[[{"header":{"parameterUnit":"m.s-1","parameterCategory":1,"la1":31.0,"la2":29.5877,"lo1":-88.7671,"lo2":-86.6584,"dy":0.0162,"dx":0.0185,"nx":115,"ny":88,"refTime":"2024-11-28T06:00:00:Z","depth":0,"parameterNumber":2,"parameterNumberName":"U-component_of_WINDS"},"data":[0.0,0.0,0.0,0.0,0.0,0.0,0.0,0.0,0.0,0.0,0.0,0.0,0.0,0.0,0.0,0.0,0.0,0.0,0.0,0.0,0.0,0.0,0.0,0.0,0.0,0.0,0.0,0.0,0.0,0.0,0.0,0.0,0.0,0.0,0.0,0.0,0.0,0.0,0.0,0.0,0.0,0.0,0.0,0.0,0.0,0.0,0.0,0.0,0.0,0.0,0.0,0.0,0.0,0.0,0.0,0.0,0.0,0.0,0.0,0.0,0.0,0.0,0.0,0.0,0.0,0.0,0.0,0.0,0.0,0.0,0.0,0.0,0.0,0.0,0.0,0.0,0.0,0.0,0.0,0.0,0.0,0.0,0.0,0.0,0.0,0.0,0.0,0.0,0.0,0.0,0.0,0.0,0.0,0.0,0.0,0.0,0.0,0.0,0.0,0.0,0.0,0.0,0.0,0.0,0.0,0.0,0.0,0.0,0.0,0.0,0.0,0.0,0.0,0.0,0.0,0.0,0.0,0.0,0.0,0.0,0.0,0.0,0.0,0.0,0.0,0.0,0.0,0.0,0.0,0.0,0.0,0.0,0.0,0.0,0.0,0.0,0.0,0.0,0.0,0.0,0.0,0.0,0.0,0.0,0.0,0.0,0.0,0.0,0.0,0.0,0.0,0.0,0.0,0.0,0.0,0.0,0.0,0.0,0.0,0.0,0.0,0.0,0.0,0.0,0.0,0.0,0.0,0.0,0.0,0.0,0.0,0.0,0.0,0.0,0.0,0.0,0.0,0.0,0.0,0.0,0.0,0.0,0.0,0.0,0.0,0.0,0.0,0.0,0.0,0.0,0.0,0.0,0.0,0.0,0.0,0.0,0.0,0.0,0.0,0.0,0.0,0.0,0.0,0.0,0.0,0.0,0.0,0.0,0.0,0.0,0.0,0.0,0.0,0.0,0.0,0.0,0.0,0.0,0.0,0.0,0.0,0.0,0.0,0.0,0.0,0.0,0.0,0.0,0.0,0.0,0.0,0.0,0.0,0.0,0.0,0.0,0.0,0.0,0.0,0.0,0.0,0.0,0.0,0.0,0.0,0.0,0.0,0.0,0.0,0.0,0.0,0.0,0.0,0.0,0.0,0.0,0.0,0.0,0.0,0.0,0.0,0.0,0.0,0.0,0.0,0.0,0.0,0.0,0.0,0.0,0.0,0.0,0.0,0.0,0.0,0.0,0.0,0.0,0.0,0.0,0.0,0.0,0.0,0.0,0.0,0.0,0.0,0.0,0.0,0.0,0.0,0.0,0.0,0.0,0.0,0.0,0.0,0.0,0.0,0.0,0.0,0.0,0.0,0.0,0.0,0.0,0.0,0.0,0.0,0.0,0.0,0.0,0.0,0.0,0.0,0.0,0.0,0.0,0.0,0.0,0.0,0.0,0.0,0.0,0.0,0.0,0.0,0.0,0.0,0.0,0.0,0.0,0.0,0.0,0.0,0.0,0.0,0.0,0.0,0.0,0.0,0.0,0.0,0.0,0.0,0.0,0.0,0.0,0.0,0.0,0.0,0.0,0.0,0.0,0.0,0.0,0.0,0.0,0.0,0.0,0.0,0.0,0.0,0.0,0.0,0.0,0.0,0.0,0.0,0.0,0.0,0.0,0.0,0.0,0.0,0.0,0.0,0.0,0.0,0.0,0.0,0.0,0.0,0.0,0.0,0.0,0.0,0.0,0.0,0.0,0.0,0.0,0.0,0.0,0.0,0.0,0.0,0.0,0.0,0.0,0.0,0.0,0.0,0.0,0.0,0.0,0.0,0.0,0.0,0.0,0.0,0.0,0.0,0.0,0.0,0.0,0.0,0.0,0.0,0.0,0.0,0.0,0.0,0.0,0.0,0.0,0.0,0.0,0.0,0.0,0.0,0.0,0.0,0.0,0.0,0.0,0.0,0.0,0.0,0.0,0.0,0.0,0.0,0.0,0.0,0.0,0.0,0.0,0.0,0.0,0.0,0.0,0.0,0.0,0.0,0.0,0.0,0.0,0.0,0.0,0.0,0.0,0.0,0.0,0.0,0.0,0.0,0.0,0.0,0.0,0.0,0.0,0.0,0.0,0.0,0.0,0.0,0.0,0.0,0.0,0.0,0.0,0.0,0.0,0.0,0.0,0.0,0.0,0.0,0.0,0.0,0.0,0.0,0.0,0.0,0.0,0.0,0.0,0.0,0.0,0.0,0.0,0.0,0.0,0.0,0.0,0.0,0.0,0.0,0.0,0.0,0.0,0.0,0.0,0.0,0.0,0.0,0.0,0.0,0.0,0.0,0.0,0.0,0.0,0.0,0.0,0.0,0.0,0.0,0.0,0.0,0.0,0.0,0.0,0.0,0.0,0.0,0.0,0.0,0.0,0.0,0.0,0.0,0.0,0.0,0.0,0.0,0.0,0.0,0.0,0.0,0.0,0.0,0.0,0.0,0.0,0.0,0.0,0.0,0.0,0.0,0.0,0.0,0.0,0.0,0.0,0.0,0.0,0.0,0.0,0.0,0.0,0.0,0.0,0.0,0.0,0.0,0.0,0.0,0.0,0.0,0.0,0.0,0.0,0.0,0.0,0.0,0.0,0.0,0.0,0.0,0.0,0.0,0.0,0.0,0.0,0.0,0.0,0.0,0.0,0.0,0.0,0.0,0.0,0.0,0.0,0.0,0.0,0.0,0.0,0.0,0.0,0.0,0.0,0.0,0.0,0.0,0.0,0.0,0.0,0.0,0.0,0.0,0.0,0.0,0.0,0.0,0.0,0.0,0.0,0.0,0.0,0.0,0.0,0.0,0.0,0.0,0.0,0.0,0.0,0.0,0.0,0.0,0.0,0.0,0.0,0.0,0.0,0.0,0.0,0.0,0.0,0.0,0.0,0.0,0.0,0.0,0.0,0.0,0.0,0.0,0.0,0.0,0.0,0.0,0.0,0.0,0.0,0.0,0.0,0.0,0.0,0.0,0.0,0.0,0.0,0.0,0.0,0.0,0.0,0.0,0.0,0.0,0.0,0.0,0.0,0.0,0.0,0.0,0.0,0.0,0.0,0.0,0.0,0.0,0.0,0.0,0.0,0.0,0.0,0.0,0.0,0.0,0.0,0.0,0.0,0.0,0.0,0.0,0.0,0.0,0.0,0.0,0.0,0.0,0.0,0.0,0.0,0.0,0.0,0.0,0.0,0.0,0.0,0.0,0.0,0.0,0.0,0.0,0.0,0.0,0.0,0.0,0.0,0.0,0.0,0.0,0.0,0.0,0.0,0.0,0.0,0.0,0.0,0.0,0.0,0.0,0.0,0.0,0.0,0.0,0.0,0.0,0.0,0.0,0.0,0.0,0.0,0.0,0.0,0.0,0.0,0.0,0.0,0.0,0.0,0.0,0.0,0.0,0.0,0.0,0.0,0.0,0.0,0.0,0.0,0.0,0.0,0.0,0.0,0.0,0.0,0.0,0.0,0.0,0.0,0.0,0.0,0.0,0.0,0.0,0.0,0.0,0.0,0.0,0.0,0.0,0.0,0.0,0.0,0.0,0.0,0.0,0.0,0.0,0.0,0.0,0.0,0.0,0.0,0.0,0.0,0.0,0.0,0.0,0.0,0.0,0.0,0.0,0.0,0.0,0.0,0.0,0.0,0.0,0.0,0.0,0.0,0.0,0.0,0.0,0.0,0.0,0.0,0.0,0.0,0.0,0.0,0.0,0.0,0.0,0.0,0.0,0.0,0.0,0.0,0.0,0.0,0.0,0.0,0.0,0.0,0.0,0.0,0.0,0.0,0.0,0.0,0.0,0.0,0.0,0.0,0.0,0.0,0.0,0.0,0.0,0.0,0.0,0.0,0.0,0.0,0.0,0.0,0.0,0.0,0.0,0.0,0.0,0.0,0.0,0.0,0.0,0.0,0.0,0.0,0.0,0.0,0.0,0.0,0.0,0.0,0.0,0.0,0.0,0.0,0.0,0.0,0.0,0.0,0.0,0.0,0.0,0.0,0.0,0.0,0.0,0.0,0.0,0.0,0.0,0.0,0.0,0.0,0.0,0.0,0.0,0.0,0.0,0.0,0.0,0.0,0.0,0.0,0.0,0.0,0.0,0.0,0.0,0.0,0.0,0.0,0.0,0.0,0.0,0.0,0.0,0.0,0.0,0.0,0.0,0.0,0.0,0.0,0.0,0.0,0.0,0.0,0.0,0.0,0.0,0.0,0.0,0.0,0.0,0.0,0.0,0.0,0.0,0.0,0.0,0.0,0.0,0.0,0.0,0.0,4.7631,0.0,0.0,0.0,0.0,0.0,0.0,0.0,0.0,0.0,0.0,0.0,0.0,0.0,0.0,0.0,0.0,0.0,0.0,0.0,0.0,0.0,0.0,0.0,0.0,0.0,0.0,0.0,0.0,0.0,0.0,0.0,0.0,0.0,0.0,0.0,0.0,0.0,0.0,0.0,0.0,0.0,0.0,0.0,0.0,0.0,0.0,0.0,0.0,0.0,0.0,0.0,0.0,0.0,0.0,0.0,0.0,0.0,0.0,0.0,0.0,0.0,0.0,0.0,0.0,0.0,0.0,0.0,0.0,0.0,0.0,0.0,0.0,0.0,0.0,0.0,0.0,0.0,0.0,0.0,0.0,0.0,0.0,0.0,0.0,0.0,0.0,0.0,0.0,0.0,0.0,0.0,0.0,0.0,0.0,0.0,0.0,0.0,0.0,0.0,0.0,0.0,0.0,0.0,0.0,0.0,0.0,0.0,0.0,0.0,0.0,5.0217,5.0264,4.9803,4.9139,4.8337,0.0,0.0,0.0,0.0,0.0,0.0,0.0,0.0,0.0,0.0,0.0,0.0,0.0,0.0,0.0,0.0,0.0,0.0,0.0,0.0,0.0,0.0,0.0,0.0,0.0,0.0,0.0,0.0,0.0,0.0,0.0,0.0,0.0,0.0,0.0,0.0,0.0,0.0,0.0,0.0,0.0,0.0,0.0,0.0,0.0,0.0,0.0,0.0,0.0,0.0,0.0,0.0,0.0,0.0,0.0,0.0,0.0,0.0,0.0,0.0,0.0,0.0,0.0,0.0,0.0,0.0,0.0,0.0,0.0,0.0,0.0,0.0,0.0,0.0,0.0,0.0,0.0,0.0,0.0,0.0,0.0,0.0,0.0,0.0,0.0,0.0,0.0,0.0,0.0,0.0,0.0,0.0,0.0,0.0,0.0,0.0,0.0,0.0,0.0,0.0,0.0,0.0,0.0,0.0,0.0,0.0,0.0,0.0,0.0,0.0,0.0,0.0,5.1047,5.0195,4.9204,0.0,0.0,0.0,0.0,0.0,0.0,0.0,0.0,0.0,0.0,0.0,0.0,0.0,0.0,0.0,0.0,0.0,0.0,0.0,0.0,0.0,0.0,0.0,0.0,0.0,0.0,0.0,0.0,0.0,0.0,0.0,0.0,0.0,0.0,0.0,0.0,0.0,0.0,0.0,0.0,0.0,0.0,0.0,0.0,0.0,0.0,0.0,0.0,0.0,0.0,0.0,0.0,0.0,0.0,0.0,0.0,0.0,0.0,0.0,0.0,0.0,0.0,0.0,0.0,0.0,0.0,0.0,0.0,0.0,0.0,0.0,0.0,0.0,0.0,0.0,0.0,0.0,0.0,0.0,0.0,0.0,0.0,0.0,0.0,0.0,0.0,0.0,0.0,0.0,0.0,0.0,0.0,0.0,0.0,0.0,0.0,0.0,0.0,0.0,0.0,0.0,0.0,0.0,0.0,0.0,0.0,0.0,0.0,0.0,0.0,5.0984,5.2507,5.2482,0.0,5.0078,0.0,0.0,0.0,0.0,0.0,0.0,0.0,0.0,0.0,0.0,0.0,0.0,0.0,0.0,0.0,0.0,0.0,0.0,0.0,0.0,0.0,0.0,0.0,0.0,0.0,0.0,0.0,0.0,0.0,0.0,0.0,0.0,0.0,0.0,0.0,0.0,0.0,0.0,0.0,0.0,0.0,0.0,0.0,0.0,0.0,0.0,0.0,0.0,0.0,0.0,0.0,0.0,0.0,0.0,0.0,0.0,0.0,0.0,0.0,0.0,0.0,0.0,0.0,0.0,0.0,0.0,0.0,0.0,0.0,0.0,0.0,0.0,0.0,0.0,0.0,0.0,0.0,0.0,0.0,0.0,0.0,0.0,0.0,0.0,0.0,0.0,0.0,0.0,0.0,0.0,0.0,0.0,0.0,0.0,0.0,0.0,0.0,0.0,0.0,0.0,0.0,0.0,0.0,0.0,0.0,0.0,0.0,0.0,0.0,0.0,5.2234,5.3444,5.2472,5.1352,0.0,0.0,0.0,0.0,0.0,0.0,0.0,0.0,0.0,0.0,0.0,0.0,0.0,0.0,0.0,0.0,0.0,0.0,0.0,0.0,0.0,0.0,0.0,0.0,0.0,0.0,0.0,0.0,0.0,0.0,0.0,0.0,0.0,0.0,0.0,0.0,0.0,0.0,0.0,0.0,0.0,0.0,0.0,0.0,0.0,0.0,0.0,0.0,0.0,0.0,0.0,0.0,0.0,0.0,0.0,0.0,0.0,0.0,0.0,0.0,0.0,0.0,0.0,0.0,0.0,0.0,0.0,0.0,0.0,0.0,0.0,0.0,0.0,0.0,0.0,0.0,0.0,0.0,0.0,0.0,0.0,0.0,0.0,0.0,0.0,0.0,0.0,0.0,0.0,0.0,0.0,0.0,0.0,0.0,0.0,0.0,0.0,0.0,0.0,0.0,0.0,0.0,0.0,0.0,0.0,0.0,0.0,0.0,0.0,0.0,5.1804,5.2741,5.3561,5.2659,5.1382,4.988,0.0,0.0,0.0,0.0,0.0,0.0,0.0,0.0,0.0,0.0,0.0,0.0,0.0,0.0,0.0,0.0,0.0,0.0,0.0,0.0,0.0,0.0,0.0,0.0,0.0,0.0,0.0,0.0,0.0,0.0,0.0,0.0,0.0,0.0,0.0,0.0,0.0,0.0,0.0,0.0,0.0,0.0,0.0,0.0,0.0,0.0,0.0,0.0,0.0,0.0,0.0,0.0,0.0,0.0,0.0,0.0,0.0,0.0,0.0,0.0,0.0,0.0,0.0,0.0,0.0,0.0,0.0,0.0,0.0,0.0,0.0,0.0,0.0,0.0,0.0,0.0,0.0,0.0,0.0,0.0,0.0,0.0,0.0,0.0,0.0,0.0,0.0,0.0,0.0,0.0,0.0,0.0,0.0,0.0,0.0,0.0,0.0,0.0,0.0,0.0,0.0,0.0,0.0,0.0,0.0,0.0,0.0,0.0,0.0,5.1843,5.1921,5.2858,5.3479,5.2347,0.0,0.0,0.0,0.0,0.0,0.0,0.0,0.0,0.0,0.0,0.0,0.0,0.0,0.0,0.0,0.0,0.0,0.0,0.0,0.0,0.0,0.0,0.0,0.0,0.0,0.0,0.0,0.0,0.0,0.0,0.0,0.0,0.0,0.0,0.0,0.0,0.0,0.0,0.0,0.0,0.0,0.0,0.0,0.0,0.0,0.0,0.0,0.0,0.0,0.0,0.0,0.0,0.0,0.0,0.0,0.0,0.0,0.0,0.0,0.0,0.0,0.0,0.0,0.0,0.0,0.0,0.0,0.0,0.0,0.0,0.0,0.0,0.0,0.0,0.0,0.0,0.0,0.0,0.0,0.0,0.0,0.0,0.0,0.0,0.0,0.0,0.0,0.0,0.0,0.0,0.0,0.0,0.0,0.0,0.0,0.0,0.0,0.0,0.0,0.0,0.0,0.0,0.0,0.0,0.0,0.0,0.0,0.0,0.0,5.1023,5.2351,5.399,5.5786,5.3643,5.2003,0.0,0.0,0.0,0.0,0.0,0.0,0.0,0.0,0.0,0.0,0.0,0.0,0.0,0.0,0.0,0.0,0.0,0.0,0.0,0.0,0.0,0.0,0.0,0.0,0.0,0.0,0.0,0.0,0.0,0.0,0.0,0.0,0.0,0.0,0.0,0.0,0.0,0.0,0.0,0.0,0.0,0.0,0.0,0.0,0.0,0.0,0.0,0.0,0.0,0.0,0.0,0.0,0.0,0.0,0.0,0.0,0.0,0.0,0.0,0.0,0.0,0.0,0.0,0.0,0.0,0.0,0.0,0.0,0.0,0.0,0.0,0.0,0.0,0.0,0.0,0.0,0.0,0.0,0.0,0.0,0.0,0.0,0.0,0.0,0.0,0.0,0.0,0.0,0.0,0.0,0.0,0.0,0.0,0.0,0.0,0.0,0.0,0.0,0.0,0.0,0.0,0.0,0.0,0.0,0.0,0.0,0.0,0.0,0.0,5.1765,0.0,5.5669,0.0,5.3764,5.189,0.0,0.0,0.0,0.0,0.0,0.0,0.0,0.0,0.0,0.0,0.0,0.0,0.0,0.0,0.0,0.0,0.0,0.0,0.0,0.0,0.0,0.0,0.0,0.0,0.0,0.0,0.0,0.0,0.0,0.0,0.0,0.0,0.0,0.0,0.0,0.0,0.0,0.0,0.0,0.0,0.0,0.0,0.0,0.0,0.0,0.0,0.0,0.0,0.0,0.0,0.0,0.0,0.0,0.0,0.0,0.0,0.0,0.0,0.0,0.0,0.0,0.0,0.0,0.0,0.0,0.0,0.0,0.0,0.0,0.0,0.0,0.0,0.0,0.0,0.0,0.0,0.0,0.0,0.0,0.0,0.0,0.0,0.0,0.0,0.0,0.0,0.0,0.0,0.0,0.0,0.0,0.0,0.0,0.0,0.0,0.0,0.0,0.0,0.0,0.0,0.0,0.0,0.0,0.0,0.0,0.0,0.0,0.0,5.1921,5.5162,5.684,5.6645,5.4225,5.4029,5.1999,0.0,0.0,0.0,0.0,0.0,0.0,0.0,0.0,0.0,0.0,0.0,0.0,0.0,0.0,0.0,0.0,0.0,0.0,0.0,0.0,0.0,0.0,0.0,0.0,0.0,0.0,0.0,0.0,0.0,0.0,0.0,0.0,0.0,0.0,0.0,0.0,0.0,0.0,0.0,0.0,0.0,0.0,0.0,0.0,0.0,0.0,0.0,0.0,0.0,0.0,0.0,0.0,0.0,0.0,0.0,0.0,0.0,0.0,0.0,0.0,0.0,0.0,0.0,0.0,0.0,0.0,0.0,0.0,0.0,0.0,0.0,0.0,0.0,0.0,0.0,0.0,0.0,0.0,0.0,0.0,0.0,0.0,0.0,0.0,0.0,0.0,0.0,0.0,0.0,0.0,0.0,0.0,0.0,0.0,0.0,0.0,0.0,0.0,0.0,0.0,0.0,0.0,0.0,0.0,0.0,0.0,0.0,0.0,0.0,5.6216,5.7231,5.8011,5.8285,5.4966,5.278,0.0,0.0,0.0,0.0,0.0,0.0,0.0,0.0,0.0,0.0,0.0,0.0,0.0,0.0,0.0,0.0,0.0,0.0,0.0,0.0,0.0,0.0,0.0,0.0,0.0,0.0,0.0,0.0,0.0,0.0,0.0,0.0,0.0,0.0,0.0,0.0,0.0,0.0,0.0,0.0,0.0,0.0,0.0,0.0,0.0,0.0,0.0,0.0,0.0,0.0,0.0,0.0,0.0,0.0,0.0,0.0,0.0,0.0,0.0,0.0,0.0,0.0,0.0,0.0,0.0,0.0,0.0,0.0,0.0,0.0,0.0,0.0,0.0,0.0,0.0,0.0,0.0,0.0,0.0,0.0,0.0,0.0,0.0,0.0,0.0,0.0,0.0,0.0,0.0,0.0,0.0,0.0,0.0,0.0,0.0,0.0,0.0,0.0,0.0,0.0,0.0,0.0,0.0,0.0,0.0,0.0,0.0,0.0,0.0,6.1398,6.152,6.1681,6.1837,5.7465,5.4576,5.3483,0.0,0.0,0.0,0.0,0.0,0.0,0.0,0.0,0.0,0.0,0.0,0.0,0.0,0.0,0.0,0.0,0.0,0.0,0.0,0.0,0.0,0.0,0.0,0.0,0.0,0.0,0.0,0.0,0.0,0.0,0.0,0.0,0.0,0.0,0.0,0.0,0.0,0.0,0.0,0.0,0.0,0.0,0.0,0.0,0.0,0.0,0.0,0.0,0.0,0.0,0.0,0.0,0.0,0.0,0.0,0.0,0.0,0.0,0.0,0.0,0.0,0.0,0.0,0.0,0.0,0.0,0.0,0.0,0.0,0.0,0.0,0.0,0.0,0.0,0.0,0.0,0.0,0.0,0.0,0.0,0.0,0.0,0.0,0.0,0.0,0.0,0.0,0.0,0.0,0.0,0.0,0.0,0.0,0.0,0.0,0.0,0.0,0.0,0.0,0.0,0.0,0.0,0.0,0.0,0.0,0.0,0.0,0.0,6.9692,6.9126,6.7531,6.4882,6.1252,5.7348,0.0,0.0,0.0,0.0,0.0,0.0,0.0,0.0,0.0,0.0,0.0,0.0,0.0,0.0,0.0,0.0,0.0,0.0,0.0,0.0,0.0,0.0,0.0,0.0,0.0,0.0,0.0,0.0,0.0,0.0,0.0,0.0,0.0,0.0,0.0,0.0,0.0,0.0,0.0,0.0,0.0,0.0,0.0,0.0,0.0,0.0,0.0,0.0,0.0,0.0,0.0,0.0,0.0,0.0,0.0,0.0,0.0,0.0,0.0,0.0,0.0,0.0,0.0,0.0,0.0,0.0,0.0,0.0,0.0,0.0,0.0,0.0,0.0,0.0,0.0,0.0,0.0,0.0,0.0,0.0,0.0,0.0,0.0,0.0,0.0,0.0,0.0,0.0,0.0,0.0,0.0,0.0,0.0,0.0,0.0,0.0,0.0,0.0,0.0,0.0,0.0,0.0,0.0,0.0,0.0,0.0,0.0,0.0,0.0,7.3985,7.6357,7.5421,7.0948,6.5111,6.0549,0.0,0.0,0.0,0.0,0.0,0.0,0.0,0.0,0.0,0.0,0.0,0.0,0.0,0.0,0.0,0.0,0.0,0.0,0.0,0.0,0.0,0.0,0.0,0.0,0.0,0.0,0.0,0.0,0.0,0.0,0.0,0.0,0.0,0.0,0.0,0.0,0.0,0.0,0.0,0.0,0.0,0.0,0.0,0.0,0.0,0.0,0.0,0.0,0.0,0.0,0.0,0.0,0.0,0.0,0.0,0.0,0.0,0.0,0.0,0.0,0.0,0.0,0.0,0.0,0.0,0.0,0.0,0.0,0.0,0.0,0.0,0.0,0.0,0.0,0.0,0.0,0.0,0.0,0.0,0.0,0.0,0.0,0.0,0.0,0.0,0.0,0.0,0.0,0.0,0.0,0.0,0.0,0.0,0.0,0.0,0.0,0.0,0.0,0.0,0.0,0.0,0.0,0.0,0.0,0.0,0.0,0.0,0.0,7.2877,7.7853,8.1275,8.1636,7.8659,7.087,6.4838,0.0,0.0,0.0,0.0,0.0,0.0,0.0,0.0,0.0,0.0,0.0,0.0,0.0,0.0,0.0,0.0,0.0,0.0,0.0,0.0,0.0,0.0,0.0,0.0,0.0,0.0,0.0,0.0,0.0,0.0,0.0,0.0,0.0,0.0,0.0,0.0,0.0,0.0,0.0,0.0,0.0,0.0,0.0,0.0,0.0,0.0,0.0,0.0,0.0,0.0,0.0,0.0,0.0,0.0,0.0,0.0,0.0,0.0,0.0,0.0,0.0,0.0,0.0,0.0,0.0,0.0,0.0,0.0,0.0,0.0,0.0,0.0,0.0,0.0,0.0,0.0,0.0,0.0,0.0,0.0,0.0,0.0,0.0,0.0,0.0,0.0,0.0,0.0,0.0,0.0,0.0,0.0,0.0,0.0,0.0,0.0,0.0,0.0,0.0,0.0,0.0,0.0,0.0,0.0,0.0,0.0,0.0,0.0,7.5416,8.1165,8.4635,8.6362,8.6005,7.7207,6.9549,0.0,0.0,0.0,0.0,0.0,0.0,0.0,0.0,0.0,0.0,0.0,0.0,0.0,0.0,0.0,0.0,0.0,0.0,0.0,0.0,0.0,0.0,0.0,0.0,0.0,0.0,0.0,0.0,0.0,0.0,0.0,0.0,0.0,0.0,0.0,0.0,0.0,0.0,0.0,0.0,0.0,0.0,0.0,0.0,0.0,0.0,0.0,0.0,0.0,0.0,0.0,0.0,0.0,0.0,0.0,0.0,0.0,0.0,0.0,0.0,0.0,0.0,0.0,0.0,0.0,0.0,0.0,0.0,0.0,0.0,0.0,0.0,0.0,0.0,0.0,0.0,0.0,0.0,0.0,0.0,0.0,0.0,0.0,0.0,0.0,0.0,0.0,0.0,0.0,0.0,0.0,0.0,0.0,0.0,0.0,0.0,0.0,0.0,0.0,0.0,0.0,0.0,0.0,0.0,0.0,0.0,0.0,0.0,7.9188,8.3777,8.7234,8.8677,8.8038,7.9539,7.247,0.0,0.0,0.0,0.0,0.0,0.0,0.0,0.0,0.0,0.0,0.0,0.0,0.0,0.0,0.0,0.0,0.0,0.0,0.0,0.0,0.0,0.0,0.0,0.0,0.0,0.0,0.0,0.0,0.0,0.0,0.0,0.0,0.0,0.0,0.0,0.0,0.0,0.0,0.0,0.0,0.0,0.0,0.0,0.0,0.0,0.0,0.0,0.0,5.2468,0.0,0.0,0.0,0.0,0.0,0.0,0.0,0.0,0.0,0.0,0.0,0.0,0.0,0.0,0.0,0.0,0.0,0.0,0.0,0.0,0.0,0.0,0.0,0.0,0.0,0.0,0.0,0.0,0.0,0.0,0.0,0.0,0.0,0.0,0.0,0.0,0.0,0.0,0.0,0.0,0.0,0.0,0.0,0.0,0.0,0.0,0.0,0.0,0.0,0.0,0.0,0.0,0.0,0.0,0.0,0.0,0.0,0.0,0.0,8.136,8.6338,8.904,9.0028,8.9013,8.3186,7.6622,0.0,0.0,0.0,0.0,0.0,0.0,0.0,0.0,0.0,0.0,0.0,0.0,0.0,0.0,0.0,0.0,0.0,0.0,0.0,0.0,0.0,0.0,0.0,0.0,0.0,0.0,0.0,0.0,0.0,0.0,0.0,0.0,0.0,0.0,0.0,0.0,0.0,0.0,0.0,0.0,0.0,0.0,0.0,0.0,0.0,0.0,0.0,0.0,0.0,0.0,0.0,0.0,0.0,0.0,0.0,0.0,0.0,0.0,0.0,0.0,0.0,0.0,0.0,0.0,0.0,0.0,0.0,0.0,0.0,0.0,0.0,0.0,0.0,0.0,0.0,0.0,0.0,0.0,0.0,0.0,0.0,0.0,0.0,0.0,0.0,0.0,0.0,0.0,0.0,0.0,0.0,0.0,0.0,0.0,0.0,0.0,0.0,0.0,0.0,0.0,0.0,0.0,0.0,0.0,0.0,0.0,0.0,7.7111,8.2869,8.8651,9.0599,9.1002,8.9976,8.6662,8.0534,7.1338,0.0,0.0,0.0,0.0,0.0,0.0,0.0,0.0,0.0,0.0,0.0,0.0,0.0,0.0,0.0,0.0,0.0,0.0,0.0,0.0,0.0,0.0,0.0,0.0,0.0,0.0,0.0,0.0,0.0,0.0,0.0,0.0,0.0,0.0,0.0,0.0,0.0,0.0,5.0825,5.3069,0.0,0.0,0.0,0.0,0.0,0.0,0.0,0.0,5.2191,0.0,0.0,0.0,0.0,0.0,0.0,0.0,0.0,0.0,0.0,0.0,0.0,0.0,0.0,0.0,0.0,0.0,0.0,0.0,0.0,0.0,0.0,0.0,0.0,0.0,0.0,0.0,0.0,0.0,0.0,0.0,0.0,0.0,0.0,0.0,0.0,0.0,0.0,0.0,0.0,0.0,0.0,0.0,0.0,0.0,0.0,0.0,0.0,0.0,0.0,0.0,0.0,0.0,0.0,0.0,0.0,7.5824,7.9751,8.4598,9.0521,9.2391,9.2508,9.0885,8.7598,8.1683,7.3154,0.0,0.0,0.0,0.0,0.0,0.0,0.0,0.0,0.0,0.0,0.0,0.0,0.0,0.0,0.0,0.0,0.0,0.0,0.0,0.0,0.0,0.0,0.0,0.0,0.0,0.0,0.0,0.0,0.0,0.0,0.0,0.0,0.0,0.0,0.0,0.0,0.0,0.0,0.0,5.679,5.7411,0.0,0.0,0.0,0.0,0.0,0.0,0.0,0.0,5.524,0.0,0.0,0.0,0.0,0.0,0.0,0.0,0.0,0.0,0.0,0.0,0.0,0.0,0.0,0.0,0.0,0.0,0.0,0.0,0.0,0.0,0.0,0.0,0.0,0.0,0.0,0.0,0.0,0.0,0.0,0.0,0.0,0.0,0.0,0.0,0.0,0.0,0.0,0.0,0.0,0.0,0.0,0.0,0.0,0.0,0.0,0.0,0.0,0.0,0.0,0.0,0.0,0.0,0.0,0.0,7.6204,8.2311,8.7481,9.1651,9.3443,9.3288,9.1105,8.7339,8.1505,0.0,0.0,0.0,0.0,0.0,0.0,0.0,0.0,0.0,0.0,0.0,0.0,0.0,0.0,0.0,0.0,0.0,0.0,0.0,0.0,0.0,0.0,0.0,0.0,0.0,0.0,0.0,0.0,0.0,0.0,0.0,0.0,0.0,0.0,0.0,0.0,0.0,0.0,0.0,0.0,5.9162,6.0048,6.0951,0.0,0.0,0.0,0.0,0.0,0.0,5.5829,5.5591,0.0,0.0,0.0,0.0,0.0,0.0,0.0,0.0,0.0,0.0,0.0,0.0,0.0,0.0,0.0,0.0,0.0,0.0,0.0,0.0,0.0,0.0,0.0,0.0,0.0,0.0,0.0,0.0,0.0,0.0,0.0,0.0,0.0,0.0,0.0,0.0,0.0,0.0,0.0,0.0,0.0,0.0,0.0,0.0,0.0,0.0,0.0,0.0,0.0,0.0,0.0,0.0,0.0,0.0,0.0,7.6493,8.4247,8.9781,9.2781,9.4184,9.3833,9.1651,8.7287,8.1337,0.0,0.0,0.0,0.0,0.0,0.0,0.0,0.0,0.0,0.0,0.0,0.0,0.0,0.0,0.0,0.0,0.0,0.0,0.0,0.0,0.0,0.0,0.0,0.0,0.0,0.0,0.0,0.0,0.0,0.0,0.0,0.0,0.0,0.0,0.0,0.0,0.0,0.0,0.0,0.0,0.0,6.2469,6.3318,6.0651,0.0,0.0,0.0,0.0,5.7083,5.7402,0.0,0.0,0.0,0.0,0.0,0.0,0.0,0.0,0.0,0.0,0.0,0.0,0.0,0.0,0.0,0.0,0.0,0.0,0.0,0.0,0.0,0.0,0.0,0.0,0.0,0.0,0.0,0.0,0.0,0.0,0.0,0.0,0.0,0.0,0.0,0.0,0.0,0.0,0.0,0.0,0.0,0.0,0.0,0.0,0.0,0.0,0.0,0.0,0.0,0.0,0.0,0.0,0.0,0.0,0.0,0.0,7.8909,8.452,8.9703,9.434,9.4807,9.4418,9.3366,8.8495,8.2194,0.0,0.0,0.0,0.0,0.0,0.0,0.0,0.0,0.0,0.0,0.0,0.0,0.0,0.0,0.0,0.0,0.0,0.0,0.0,0.0,0.0,0.0,0.0,0.0,0.0,0.0,0.0,0.0,0.0,0.0,0.0,0.0,0.0,0.0,0.0,0.0,0.0,0.0,0.0,0.0,0.0,6.4246,6.5139,6.2964,6.1174,0.0,0.0,6.24,6.3115,6.4568,0.0,0.0,0.0,0.0,0.0,0.0,0.0,0.0,0.0,0.0,0.0,0.0,0.0,0.0,0.0,0.0,0.0,0.0,0.0,0.0,0.0,0.0,0.0,0.0,0.0,0.0,0.0,0.0,0.0,0.0,0.0,0.0,0.0,0.0,0.0,0.0,0.0,0.0,0.0,0.0,0.0,0.0,0.0,0.0,0.0,0.0,0.0,0.0,0.0,0.0,0.0,0.0,0.0,0.0,0.0,7.3157,7.887,8.678,9.1963,9.4184,9.5626,9.5509,9.3716,8.8222,8.1831,0.0,0.0,0.0,0.0,0.0,0.0,0.0,0.0,0.0,0.0,0.0,0.0,0.0,0.0,0.0,0.0,0.0,0.0,0.0,0.0,0.0,0.0,0.0,0.0,0.0,0.0,0.0,0.0,0.0,0.0,0.0,0.0,0.0,0.0,0.0,0.0,0.0,0.0,0.0,0.0,0.0,0.0,6.7578,6.6739,0.0,0.0,0.0,6.572,6.5137,0.0,0.0,0.0,0.0,0.0,0.0,0.0,0.0,0.0,0.0,0.0,0.0,0.0,0.0,0.0,0.0,0.0,0.0,0.0,0.0,0.0,0.0,0.0,0.0,0.0,0.0,0.0,0.0,0.0,0.0,0.0,0.0,0.0,0.0,0.0,0.0,0.0,0.0,0.0,0.0,0.0,0.0,0.0,0.0,0.0,0.0,0.0,0.0,0.0,0.0,0.0,0.0,0.0,0.0,0.0,0.0,0.0,7.9337,8.8767,9.3989,9.4651,9.6054,9.5937,9.3989,8.8183,0.0,0.0,0.0,0.0,0.0,0.0,0.0,0.0,0.0,0.0,0.0,0.0,0.0,0.0,0.0,0.0,0.0,0.0,0.0,0.0,0.0,0.0,0.0,0.0,0.0,0.0,0.0,4.2109,0.0,0.0,0.0,0.0,0.0,0.0,0.0,0.0,0.0,0.0,0.0,0.0,0.0,0.0,6.8552,6.9816,7.0186,7.0084,0.0,0.0,6.9191,6.8327,6.9994,6.9217,0.0,0.0,0.0,0.0,0.0,0.0,0.0,0.0,0.0,0.0,0.0,0.0,0.0,0.0,0.0,0.0,0.0,0.0,0.0,0.0,0.0,0.0,0.0,0.0,0.0,0.0,0.0,0.0,0.0,0.0,0.0,0.0,0.0,0.0,0.0,0.0,0.0,0.0,0.0,0.0,0.0,0.0,0.0,0.0,0.0,0.0,0.0,0.0,0.0,0.0,0.0,0.0,0.0,0.0,0.0,8.187,8.9664,9.4846,9.7106,9.582,9.5002,9.4729,8.904,8.2299,0.0,0.0,0.0,0.0,0.0,0.0,0.0,0.0,0.0,0.0,0.0,0.0,0.0,0.0,0.0,0.0,0.0,0.0,0.0,0.0,0.0,0.0,0.0,0.0,0.0,0.0,0.0,0.0,0.0,0.0,0.0,0.0,0.0,0.0,0.0,0.0,0.0,0.0,0.0,0.0,0.0,6.903,7.147,7.2528,7.3579,0.0,7.3963,7.3481,7.4965,7.597,7.41,6.6461,0.0,0.0,0.0,0.0,0.0,0.0,0.0,0.0,0.0,0.0,0.0,0.0,0.0,0.0,0.0,0.0,0.0,0.0,0.0,0.0,0.0,0.0,0.0,0.0,0.0,0.0,0.0,0.0,0.0,0.0,0.0,0.0,0.0,0.0,0.0,0.0,0.0,0.0,0.0,0.0,0.0,0.0,0.0,0.0,0.0,0.0,0.0,0.0,0.0,0.0,0.0,0.0,0.0,7.53,8.1286,8.9469,9.469,9.66,9.6561,9.5976,9.4924,9.0092,8.3663,0.0,0.0,0.0,0.0,0.0,0.0,0.0,0.0,0.0,0.0,0.0,0.0,0.0,0.0,0.0,0.0,0.0,0.0,0.0,0.0,0.0,0.0,0.0,0.0,0.0,0.0,0.0,0.0,4.8749,4.9485,4.9628,0.0,0.0,0.0,0.0,0.0,0.0,0.0,0.0,0.0,0.0,7.2413,7.5525,7.6671,0.0,0.0,7.6911,7.6558,7.6675,7.6054,7.3672,6.8121,6.3969,0.0,0.0,0.0,0.0,0.0,0.0,0.0,0.0,0.0,0.0,0.0,0.0,0.0,0.0,0.0,0.0,0.0,0.0,0.0,0.0,0.0,0.0,0.0,0.0,0.0,0.0,0.0,0.0,0.0,0.0,0.0,0.0,0.0,0.0,0.0,0.0,0.0,0.0,0.0,0.0,0.0,0.0,0.0,0.0,0.0,0.0,0.0,0.0,0.0,0.0,0.0,0.0,7.53,8.0779,8.9547,9.4768,9.6171,9.6795,9.6405,9.4885,9.0989,8.5221,0.0,0.0,0.0,0.0,0.0,0.0,0.0,0.0,0.0,0.0,0.0,0.0,0.0,0.0,0.0,0.0,0.0,0.0,0.0,0.0,0.0,0.0,0.0,0.0,0.0,0.0,0.0,0.0,5.0937,5.0969,4.9863,0.0,0.0,0.0,0.0,0.0,0.0,0.0,0.0,0.0,0.0,7.5427,7.8042,7.914,7.9528,7.8945,7.8203,7.7695,7.7578,7.6133,7.3711,6.9961,0.0,0.0,0.0,0.0,0.0,0.0,0.0,0.0,0.0,0.0,0.0,0.0,0.0,0.0,0.0,0.0,0.0,0.0,0.0,0.0,0.0,0.0,0.0,0.0,0.0,0.0,0.0,4.4691,0.0,0.0,4.3549,0.0,0.0,0.0,0.0,0.0,0.0,0.0,0.0,0.0,0.0,0.0,0.0,0.0,0.0,0.0,0.0,0.0,0.0,0.0,0.0,0.0,0.0,7.643,8.0857,9.0053,9.5275,9.6171,9.621,9.5859,9.4885,9.1573,8.6897,8.0701,0.0,0.0,0.0,0.0,0.0,0.0,0.0,0.0,0.0,0.0,0.0,0.0,0.0,0.0,0.0,0.0,0.0,0.0,0.0,0.0,0.0,0.0,0.0,0.0,0.0,0.0,5.0051,5.0894,5.0781,0.0,0.0,0.0,0.0,0.0,0.0,0.0,0.0,0.0,6.739,7.3291,7.7456,7.8332,7.9176,7.9821,7.9765,7.7695,7.6601,7.8281,7.6992,7.4961,0.0,0.0,0.0,0.0,0.0,0.0,0.0,0.0,0.0,0.0,0.0,0.0,0.0,0.0,0.0,0.0,0.0,0.0,0.0,0.0,0.0,0.0,0.0,0.0,0.0,0.0,0.0,5.0147,4.8769,0.0,0.0,0.0,0.0,0.0,0.0,0.0,0.0,0.0,0.0,0.0,6.2324,6.2896,0.0,0.0,0.0,0.0,0.0,0.0,0.0,0.0,0.0,0.0,0.0,0.0,7.5651,8.1714,8.9858,9.4768,9.6171,9.6756,9.6639,9.5743,9.3015,8.7092,7.7701,0.0,0.0,0.0,0.0,0.0,0.0,0.0,0.0,0.0,0.0,0.0,0.0,0.0,0.0,0.0,0.0,0.0,0.0,0.0,0.0,0.0,0.0,0.0,0.0,0.0,5.0644,0.0,0.0,0.0,0.0,0.0,0.0,0.0,0.0,0.0,0.0,0.0,6.5993,7.169,7.5625,7.8731,8.0738,8.1714,8.25,0.0,0.0,0.0,0.0,0.0,0.0,0.0,0.0,0.0,0.0,0.0,0.0,0.0,0.0,6.5957,5.9065,5.8983,5.9797,5.9246,0.0,0.0,0.0,0.0,0.0,0.0,0.0,0.0,0.0,0.0,0.0,0.0,0.0,0.0,5.4448,5.3039,5.1943,0.0,0.0,0.0,0.0,0.0,0.0,0.0,0.0,6.4265,6.6866,6.8423,6.8939,6.8458,0.0,6.5309,6.1473,0.0,0.0,0.0,0.0,0.0,0.0,0.0,0.0,7.6118,8.2143,9.0014,9.4651,9.5743,9.6912,9.6951,9.5743,9.2703,8.7053,7.8636,7.3142,6.7881,0.0,0.0,0.0,0.0,0.0,0.0,0.0,0.0,0.0,0.0,0.0,0.0,0.0,0.0,0.0,0.0,0.0,0.0,0.0,0.0,0.0,0.0,0.0,5.3104,0.0,0.0,0.0,0.0,0.0,0.0,0.0,0.0,0.0,6.3035,6.666,7.0952,7.5751,7.8862,8.096,8.1747,0.0,0.0,0.0,0.0,0.0,0.0,0.0,7.6758,7.6484,7.4609,7.3164,7.3356,7.4333,7.4528,7.2806,0.0,0.0,6.5048,6.4731,6.5585,6.534,6.7292,6.8919,6.8612,6.9874,7.1031,0.0,0.0,0.0,0.0,0.0,0.0,0.0,0.0,5.9283,5.8452,0.0,5.59,0.0,0.0,0.0,0.0,5.5792,6.0672,0.0,0.0,7.1523,7.4382,7.4382,7.4278,7.3777,7.2884,7.1253,6.9157,6.6454,6.1071,0.0,0.0,0.0,0.0,0.0,0.0,7.791,8.2377,9.0599,9.4885,9.4963,9.66,9.6678,9.4885,9.0833,8.7053,8.3546,7.9376,7.4778,6.9663,6.3865,0.0,0.0,0.0,0.0,0.0,0.0,0.0,0.0,0.0,0.0,0.0,0.0,0.0,0.0,0.0,0.0,0.0,0.0,0.0,0.0,5.6181,0.0,0.0,0.0,0.0,0.0,0.0,0.0,0.0,0.0,0.0,6.8593,7.2765,7.6848,7.9348,0.0,0.0,0.0,0.0,8.3086,8.1586,8.0519,8.0324,8.1132,8.1172,8.1367,8.2148,0.0,0.0,7.918,7.8828,7.8398,7.6636,7.8392,7.835,7.3459,7.1807,7.1402,7.2104,7.2996,7.3797,7.4567,7.5908,7.7,6.8674,0.0,0.0,0.0,0.0,6.3608,6.544,6.8578,6.7154,6.5741,6.4315,6.2678,0.0,0.0,0.0,0.0,0.0,0.0,6.8382,7.1856,7.4145,7.6132,7.7831,7.7739,7.7214,7.6361,7.5895,7.4693,7.2807,7.1115,6.6383,5.8937,0.0,0.0,0.0,0.0,7.9948,8.4825,9.1404,9.4829,9.4846,9.6464,9.6576,9.4924,9.1963,8.904,8.6221,8.3195,7.9169,7.4092,6.9928,0.0,0.0,0.0,0.0,0.0,0.0,0.0,0.0,0.0,0.0,0.0,0.0,0.0,0.0,0.0,0.0,0.0,0.0,0.0,5.602,5.8089,5.8246,0.0,0.0,0.0,0.0,0.0,0.0,0.0,0.0,0.0,7.7703,7.738,7.7773,0.0,0.0,8.2784,8.202,8.3894,8.5423,8.5546,8.5338,0.0,8.5522,8.4565,8.3867,8.4101,8.5156,8.5742,8.5039,8.539,8.5429,8.4297,8.4765,8.4726,8.3318,8.0762,7.8975,7.8618,7.9554,8.0563,8.0835,8.1704,8.2413,7.6584,7.2225,6.855,6.8231,7.0196,7.0411,7.2122,7.4648,7.338,7.2024,7.0684,6.9037,6.6607,6.3676,6.2935,0.0,0.0,0.0,7.3561,7.7403,7.8147,7.9484,8.117,8.1104,8.0787,8.0284,7.9935,7.9283,7.8359,7.7641,7.3917,6.7432,0.0,0.0,7.1154,7.7209,8.2309,8.635,9.1932,9.4812,9.4776,9.5824,9.5875,9.4885,9.243,9.0209,8.8286,8.6118,8.2844,7.8416,7.4634,6.9782,0.0,0.0,0.0,0.0,0.0,0.0,0.0,0.0,0.0,0.0,0.0,5.0906,4.8564,0.0,0.0,0.0,5.6138,5.8519,5.9573,6.1369,0.0,0.0,0.0,0.0,0.0,0.0,0.0,7.2031,7.5213,7.8572,8.228,8.1617,8.1553,8.3773,8.4507,8.4692,8.4362,0.0,8.7837,8.8344,8.8736,8.8942,8.8928,8.8395,8.7851,8.75,8.8281,8.8828,8.8554,8.8906,8.9023,8.8633,8.8515,8.8476,8.8437,8.6708,8.496,8.3816,8.4597,8.5488,8.5496,8.6141,8.6746,8.3449,8.21,7.5947,7.4175,7.5523,7.7043,7.8132,7.8823,7.8077,7.737,7.6447,7.4807,7.2752,7.0464,6.9933,0.0,7.4957,7.6552,7.9003,8.2137,8.2844,8.3557,8.4173,8.4095,8.4095,8.4057,8.3283,8.2921,8.2854,8.1344,7.9803,7.8282,7.6109,7.5353,7.6325,8.0987,8.4723,8.7306,9.2204,9.4755,9.4796,9.4851,9.484,9.4651,9.2352,9.0677,8.9689,8.8144,8.5806,8.2481,7.8375,7.3846,6.8882,0.0,0.0,0.0,0.0,0.0,0.0,0.0,0.0,0.0,0.0,0.0,0.0,0.0,0.0,0.0,6.211,0.0,6.4804,6.5546,0.0,0.0,0.0,6.7255,6.9921,7.2404,7.49,7.7499,0.0,0.0,8.3887,8.5449,8.7079,8.8866,8.8889,8.8461,8.772,8.9047,9.0218,9.0335,9.1028,9.1596,9.1601,9.2031,9.207,9.1406,9.1445,9.1094,9.0625,9.0273,9.0273,9.0351,9.0273,9.0195,9.0195,9.0033,8.9705,8.8039,8.8227,8.8689,8.8556,8.9086,8.9535,8.5729,8.4241,8.324,8.1932,8.0585,8.0923,8.1616,8.2324,8.1458,8.1029,8.0739,7.9045,7.7651,7.6542,7.7086,7.823,7.983,8.0958,8.23,8.3757,8.391,8.3995,8.4132,8.4121,8.4069,8.3939,8.3837,8.3786,8.3811,8.3386,8.2661,8.1769,8.1824,8.1097,7.9671,8.2688,8.5837,8.8905,9.2073,9.4268,9.5484,9.5126,9.4279,9.2931,9.1754,9.039,8.8871,8.8403,8.7209,8.5091,8.1558,7.7841,7.4051,6.6775,0.0,0.0,0.0,0.0,0.0,0.0,0.0,0.0,0.0,5.6098,5.2663,0.0,5.9612,0.0,6.5273,6.8474,6.9098,6.9372,0.0,0.0,7.148,7.3008,7.6805,7.841,8.0141,8.2688,8.4112,8.58,8.8181,8.8852,8.9958,9.2209,9.0334,8.8837,8.9327,9.0843,9.217,9.2841,9.3645,9.421,9.4179,9.3867,9.3515,9.332,9.2734,9.2656,9.375,9.2851,9.2187,9.2773,9.2422,9.2031,9.1914,9.1988,9.1853,9.1357,9.0492,8.9711,8.9665,8.9852,8.9969,8.7748,8.6526,8.6987,8.63,8.4993,8.4291,8.4247,8.4632,8.3835,8.3451,8.3401,8.2054,8.1239,8.0906,8.1456,8.225,8.3266,8.3801,8.4544,8.5463,8.5723,8.5822,8.5759,8.6092,8.6036,8.565,8.6064,8.5925,8.5256,8.5577,8.5526,8.5125,8.5656,8.5444,8.4612,8.5287,8.6921,8.9468,9.2355,9.449,9.5755,9.5165,9.3839,9.1786,9.0555,8.8973,8.687,8.6455,8.526,8.3195,8.0935,7.8141,7.4714,6.8726,6.4021,0.0,0.0,0.0,0.0,0.0,0.0,0.0,0.0,0.0,0.0,0.0,6.3945,6.5585,7.0035,7.3041,7.351,7.4251,7.5423,7.714,7.7642,7.9242,8.2762,8.3906,8.5127,8.6928,8.7888,8.8969,9.0374,9.1233,9.2177,9.3634,9.2502,9.1721,9.2255,9.3419,9.4434,9.4942,9.5714,9.6124,9.5859,9.5039,9.4492,9.4453,9.4062,9.4101,9.5,9.4101,9.3359,9.375,9.3203,9.2617,9.2578,9.2577,9.2606,9.2457,9.1819,9.1233,9.1116,9.1116,9.1116,8.9486,8.8685,8.8646,8.8535,8.827,8.6953,8.6406,8.6368,8.5676,8.5368,8.5324,8.4362,8.401,8.4181,8.4126,8.4723,8.5681,8.5769,8.6281,8.7134,8.7758,8.8002,8.7939,8.8613,8.8575,8.7978,8.8634,8.8267,8.697,8.761,8.7919,8.7898,8.7874,8.83,8.9058,8.7908,8.8183,8.9952,9.2945,9.4807,9.5506,9.4794,9.3123,9.0602,8.8967,8.7011,8.4649,8.3702,8.2182,7.9961,7.8948,7.71,7.4108,6.9865,6.6408,0.0,6.0705,0.0,0.0,0.0,0.0,0.0,0.0,0.0,0.0,6.7068,6.9294,7.1636,7.5462,7.7882,7.8233,7.9639,8.12,8.2918,8.3738,8.5143,8.7564,8.8579,8.9398,9.0374,9.1155,9.1663,9.1858,9.3068,9.3966,9.4239,9.4708,9.502,9.541,9.584,9.6269,9.6542,9.7198,9.7221,9.6523,9.582,9.5351,9.539,9.5156,9.5312,9.5547,9.4765,9.414,9.4179,9.3633,9.3047,9.2929,9.2969,9.2969,9.3059,9.2964,9.2795,9.2482,9.2365,9.2522,9.0298,8.9568,8.9457,8.8998,8.8385,8.8079,8.8,8.8029,8.7906,8.7863,8.7863,8.6324,8.6017,8.6627,8.603,8.6277,8.7176,8.7301,8.7859,8.8725,8.8787,8.8779,8.8729,8.8815,8.8784,8.8637,8.8815,8.8768,8.8459,8.8613,8.8412,8.7842,8.782,8.7965,8.8219,0.0,0.0,0.0,9.3762,9.4227,9.3768,9.302,9.1063,8.7893,8.6888,0.0,8.3663,8.2766,8.2116,8.161,8.0117,0.0,0.0,0.0,0.0,0.0,0.0,0.0,0.0,0.0,0.0,0.0,7.0894,7.0309,6.9684,7.3588,7.6711,7.7921,8.0029,8.2176,8.4167,8.4675,8.5573,8.7251,8.7642,8.8461,9.0335,9.0726,9.1389,9.2873,9.3224,9.3576,9.42,9.4669,9.5098,9.5684,9.6035,9.6464,9.7089,9.6699,9.6699,9.7291,9.7602,9.7421,9.6601,9.6367,9.625,9.6172,9.5625,9.5781,9.6758,9.5898,9.5273,9.5742,9.5312,9.4648,9.4648,9.4687,9.457,9.4609,9.4587,9.42,9.2873,9.2561,9.2717,9.0722,9.0339,9.0187,8.9879,0.0,8.9493,8.9572,8.961,8.8838,8.8563,8.8632,8.7786,8.7632,8.8017,8.7655,8.7757,8.8236,8.8305,8.8664,8.9201,8.9407,8.9478,8.9555,8.9877,8.9806,8.942,8.9877,8.9709,8.8969,8.9324,8.9316,8.905,8.9011,8.9483,9.0469,9.1677,9.275,9.3698,9.4563,9.4848,9.4544,9.3714,9.1703,8.8434,8.7144,0.0,0.0,0.0,0.0,0.0,0.0,0.0,0.0,0.0,0.0,7.4467,7.245,7.1597,7.2495,7.327,7.4903,7.7531,7.9287,7.8975,7.6047,7.9717,8.2567,8.3426,8.4714,8.6158,8.7798,8.8032,8.854,8.9828,9.0335,9.1116,9.2326,9.2912,9.3497,9.4239,9.4434,9.463,9.502,9.5527,9.5879,9.6347,9.6777,9.7206,9.7558,9.7323,9.7245,9.7636,9.7684,9.7578,9.7187,9.7109,9.707,9.7031,9.6719,9.6797,9.7539,9.6679,9.6015,9.6367,9.5781,9.5195,9.5195,9.5195,9.5195,9.5117,9.5099,9.4903,9.4005,9.381,9.3888,9.1413,9.1337,9.1219,9.1138,9.1052,9.1052,9.1062,9.0953,8.9418,0.0,0.0,8.8825,8.8786,8.8902,8.8815,8.8913,8.9092,8.9092,8.9261,8.9599,9.0018,9.0268,9.0416,9.0971,9.086,9.0273,9.0928,9.0615,8.9369,8.996,9.0372,9.0458,9.0419,9.1368,9.3186,9.4733,9.5236,9.4694,9.5254,9.5597,9.5553,9.4738,9.2809,8.973,8.8156,8.6241,8.3922,8.2299,8.1091,8.0234,7.9571,7.9154,7.8954,7.8438,7.8417,7.8987,7.8533,7.8624,7.9483,8.0797,8.2117,8.3341,8.6308,8.6464,8.2638,8.5104,8.7173,8.8032,8.8852,8.9711,9.057,9.0843,9.1194,9.1897,9.2561,9.3263,9.3927,9.463,9.5059,9.5293,9.5332,9.541,9.5645,9.623,9.6621,9.6738,9.7245,9.7792,9.787,9.7799,9.7728,9.7955,9.7851,9.7695,9.7695,9.7656,9.7695,9.7617,9.7617,9.7695,9.7578,9.7148,9.6758,9.6758,9.6094,9.5781,9.5703,9.5781,9.5625,9.5586,9.5567,9.5567,9.5567,9.5527,9.5495,9.3217,9.3179,9.3021,9.294,9.2898,9.2814,9.2435,9.1717,9.0298,9.0136,9.0748,8.9325,8.9094,8.971,8.8979,8.9162,8.9883,8.9921,9.0365,9.1068,9.1104,9.1116,9.1149,9.1202,9.1133,9.1018,9.1133,9.1129,9.0898,9.1014,9.1087,9.1149,9.1207,9.2179,9.3969,9.5004,9.5816,9.6396,9.5816,9.5233,9.47,9.3846,9.2205,8.976,8.8818,8.7448,8.5603,8.4688,8.3741,8.2922,8.2727,8.235,8.1644,8.2211,8.2318,8.1758,8.2248,8.2996,8.3816,8.4122,8.5247,8.7542,8.9524,8.9758,8.7807,8.8728,8.9828,9.0648,9.1428,9.2326,9.3185,9.381,9.42,9.4434,9.463,9.4786,9.4903,9.5098,9.5488,9.6152,9.623,9.6503,9.7089,9.7362,9.744,9.7518,9.7558,9.7948,9.8463,9.8169,9.8097,9.8515,9.8191,9.7773,9.7695,9.7695,9.7695,9.7695,9.7695,9.7695,9.7695,9.7578,9.7422,9.75,9.7265,9.7226,9.7226,9.7344,9.7187,9.7109,9.709,9.7167,9.7128,9.7142,9.6992,9.3447,9.3368,9.3325,9.3242,9.32,9.3162,9.2707,9.1985,9.1451,9.1177,9.1024,9.0329,9.0248,9.0556,9.021,9.0283,9.0769,9.0702,9.0962,9.1361,9.1308,9.1241,9.1279,9.1245,9.121,9.121,9.121,9.121,9.1248,9.1672,9.1937,9.2079,9.3013,9.3802,9.424,9.5545,9.6396,9.6783,9.6396,9.6085,9.5903,9.5001,9.3892,9.2498,9.1659,9.068,8.9465,8.8598,8.7754,8.6884,8.6429,8.5975,8.5636,8.6033,8.6297,8.6385,8.6769,8.7166,8.7549,8.8002,8.896,9.054,9.1408,9.1769,9.1418,9.1358,9.1726,9.2585,9.3014,9.356,9.4419,9.4856,9.5098,9.5098,9.5488,9.5801,9.584,9.6269,9.666,9.7011,9.7128,9.7284,9.7636,9.7675,9.7675,9.7675,9.7675,9.8026,9.8885,9.8716,9.8535,9.8894,9.8633,9.8203,9.7812,9.7695,9.7695,9.7695,9.7695,9.7695,9.7695,9.7695,9.7695,9.7695,9.7695,9.7695,9.7695,9.7695,9.7695,9.7695,9.7676,9.7682,9.7675,9.7682,9.7532,9.3905,9.3823,9.3858,9.3774,9.365,9.3548,9.3131,9.2557,9.2526,9.2066,9.1336,9.1408,9.1518,9.1518,9.1672,9.1707,9.1583,9.1514,9.1433,9.1341,9.1241,9.1325,9.1556,9.1518,9.1595,9.171,9.1595,9.1556,9.1787,9.2095,9.2357,9.2806,9.4441,9.5077,9.4549,9.6048,9.6822,9.6822,9.6822,9.6898,9.7043,9.6372,9.5755,9.5162,9.4462,9.3717,9.2976,9.2313,9.1573,9.0702,9.0014,8.9508,8.9157,8.9337,8.9593,8.9876,9.0109,9.0328,9.0547,9.1496,9.2323,9.2912,9.3014,9.3298,9.3844,9.3437,9.3339,9.3964,9.4285,9.4714,9.529,9.5582,9.5676,9.5676,9.6262,9.6652,9.6777,9.7323,9.7675,9.7675,9.7675,9.7675,9.7675,9.7675,9.7675,9.7675,9.7987,9.8572,9.9158,9.953,9.982,9.9564,9.9413,9.8945,9.8164,9.8008,9.7929,9.7773,9.7695,9.7695,9.7695,9.7695,9.7695,9.7695,9.7695,9.7695,9.7695,9.7695,9.7695,9.7695,9.7684,9.7689,9.7675,9.7675,9.7675,9.5632,9.5629,9.5508,9.5457,9.5216,9.4658,9.4233,9.3961,9.3519,9.2794,9.2066,9.2292,9.2364,9.2479,9.3056,9.2941,9.2361,9.2364,9.1941,9.1322,9.121,9.1633,9.2328,9.2364,9.2749,9.3249,9.271,9.271,9.321,9.2095,9.1852,9.2795,9.4447,9.5354,9.5477,9.6319,9.6822,9.6822,9.6822,9.687,9.7006,9.6979,9.661,9.5923,9.5863,9.5502,9.4729,9.4613,9.4184,9.3429,9.321,9.2469,9.1183,9.1613,9.1353,9.0078,9.0667,9.1406,9.228,9.3768,9.4585,9.4769,9.4679,9.4706,9.4862,9.4796,9.4808,9.5026,9.5671,9.6032,9.6207,9.6812,9.7173,9.7143,9.729,9.7494,9.7511,9.7636,9.7675,9.7675,9.7675,9.7675,9.7675,9.7675,9.7675,9.7714,9.8807,9.9627,9.9946,10.1163,10.1788,10.1254,10.073,9.9844,9.9062,9.8867,9.8476,9.789,9.7695,9.7695,9.7695,9.7695,9.7695,9.7695,9.7695,9.7695,9.7695,9.7695,9.7695,9.7695,9.7687,9.7711,9.7689,9.7675,9.7675,9.5814,9.5729,9.581,9.5686,9.556,9.526,9.484,9.4338,9.4164,9.3555,9.2906,9.3486,9.3062,9.1787,9.2095,9.2018,9.1787,9.2249,9.2287,9.1941,9.1979,9.2441,9.3133,9.271,9.2903,9.3633,9.3364,9.3364,9.3595,9.3551,9.3735,9.4332,9.5522,9.5927,9.5623,9.6358,9.7054,9.7518,9.7054,9.7102,9.7613,9.7289,9.6998,9.6857,9.6817,9.6732,9.6444,9.6405,9.6054,9.526,9.5197,9.4651,9.3405,9.3705,9.3614,9.2951,9.3209,9.3593,9.3981,9.4624,9.4966,9.4991,9.4952,9.5147,9.5719,9.5745,9.5888,9.6369,9.6407,9.6536,9.6992,9.7405,9.7583,9.7593,9.7602,9.7611,9.7675,9.7675,9.7675,9.7675,9.7675,9.7675,9.7675,9.7675,9.7675,9.7792,9.8807,9.9595,9.9692,10.1025,10.1834,10.1749,10.1684,10.0965,9.9531,9.8984,9.8633,9.8008,9.7695,9.7695,9.7734,9.7695,9.7695,9.7695,9.7695,9.7695,9.7695,9.7695,9.7695,9.7689,9.7684,9.7672,9.7682,9.7675,9.7675,9.5686,9.5643,9.5724,9.5686,9.5598,9.5598,9.5293,9.4796,9.4768,9.4314,9.3667,9.4324,9.3601,9.2025,9.2292,9.2444,9.229,9.2903,9.3056,9.2823,9.2595,9.302,9.383,9.3213,9.3328,9.4174,9.4172,9.3941,9.3864,9.4933,9.5388,9.5451,9.6249,9.6421,9.6009,9.6706,9.7479,9.7982,9.7634,9.7866,9.8453,9.804,9.7596,9.7441,9.7635,9.771,9.7738,9.8026,9.7808,9.6951,9.6912,9.6405,9.5353,9.5303,9.5251,9.5069,9.5212,9.5354,9.5359,9.5537,9.564,9.5665,9.5626,9.5874,9.6433,9.6575,9.6834,9.7301,9.6979,9.6954,9.7422,9.7565,9.76,9.7611,9.7583,9.7602,9.7659,9.7667,9.7675,9.7675,9.7675,9.7675,9.7675,9.7714,9.7753,9.8143,9.8846,9.953,9.9832,10.1046,10.2015,10.1983,10.2515,10.1845,9.9883,9.9726,9.9219,9.8398,9.8125,9.8125,9.8008,9.7929,9.7695,9.7695,9.7695,9.7695,9.7695,9.7695,9.7693,9.7706,9.7695,9.7706,9.7682,9.7675,9.7675,9.5598,9.5598,9.5598,9.5637,9.5598,9.5637,9.5598,9.5484,9.5522,9.5113,9.4467,9.4509,9.4053,9.3408,9.4868,9.5329,9.46,9.4635,9.4326,9.3595,9.283,9.3217,9.4637,9.3947,9.4369,9.5675,9.5212,9.4557,9.3941,9.5434,9.5966,9.5412,9.6249,9.6731,9.6753,9.7479,9.8021,9.8214,9.864,9.9202,9.9421,9.9448,9.8697,9.7673,9.8122,9.8548,9.8662,9.9452,9.9522,9.8704,9.8626,9.7886,9.6366,9.6132,9.5823,9.5276,9.581,9.6239,9.6352,9.6914,9.7305,9.7316,9.7184,9.734,9.7316,9.7316,9.7379,9.7496,9.7433,9.7433,9.7511,9.7578,9.7591,9.7604,9.7589,9.7611,9.7602,9.7667,9.7675,9.7675,9.7675,9.7675,9.7675,9.7675,9.8104,9.8775,9.9634,10.0434,10.1172,10.2148,10.2611,10.2666,10.2647,10.2265,10.0703,10.0586,10.039,9.957,9.8945,9.8867,9.8633,9.8398,9.8008,9.7695,9.7695,9.7695,9.7695,9.7695,9.7695,9.7711,9.7682,9.7682,9.7675,9.7675,9.7675,9.5598,9.5675,9.621,9.6133,9.5675,9.621,9.6133,9.5637,9.5598,9.549,9.5222,9.5184,9.5074,9.4849,9.5588,9.525,9.4177,9.4599,9.4712,9.4364,9.4023,9.4445,9.532,9.4753,9.4945,9.5906,9.5904,9.5672,9.5478,9.6124,9.6343,9.6217,9.6506,9.6753,9.683,9.7078,9.7704,9.8725,9.8578,9.9048,10.0211,9.9862,9.9357,9.8956,9.925,9.9443,9.9423,9.9881,9.9951,9.9639,9.9639,9.9094,9.7964,9.734,9.694,9.6746,9.6915,9.7071,9.716,9.7357,9.7511,9.7496,9.7496,9.7496,9.7496,9.755,9.7564,9.7511,9.7525,9.7564,9.7511,9.7511,9.7564,9.7591,9.7604,9.76,9.7593,9.7659,9.7675,9.7675,9.7675,9.7675,9.7831,9.8182,9.8626,9.9067,10.0233,10.1148,10.1601,10.2344,10.2773,10.2344,10.2491,10.2298,10.0586,10.1054,10.1172,10.039,9.9804,9.9453,9.914,9.8828,9.8476,9.7773,9.7695,9.7695,9.7695,9.7695,9.7695,9.7676,9.7695,9.7675,9.7675,9.7675,9.7675,9.6401,9.6515,9.705,9.6936,9.6515,9.705,9.6783,9.6057,9.6019,9.5866,9.5637,9.5598,9.5598,9.5598,9.5686,9.5278,9.4406,9.4945,9.5252,9.5172,9.4907,9.5131,9.5657,9.5054,9.5175,9.5943,9.6213,9.6403,9.6673,9.6818,9.7037,9.7341,9.7496,9.7557,9.7573,9.7517,9.8251,9.9313,9.9049,9.9568,10.0933,10.0689,10.0457,10.054,10.0667,10.0592,10.0357,10.0699,10.0769,10.0574,10.0536,9.999,9.8899,9.8236,9.7823,9.7617,9.7525,9.7525,9.7577,9.7539,9.7496,9.7496,9.7525,9.7525,9.7564,9.7552,9.7552,9.7539,9.7578,9.7578,9.7564,9.7511,9.7511,9.7578,9.7604,9.7589,9.7593,9.7659,9.7675,9.7675,9.7675,9.7792,9.8104,9.8651,9.9218,9.9711,10.0952,10.1629,10.2031,10.2461,10.2734,10.2187,10.2578,10.2422,10.164,10.1914,10.1836,10.1094,10.0703,10.0273,9.9648,9.9336,9.875,9.8047,9.7695,9.7695,9.7695,9.7695,9.7695,9.7695,9.7701,9.7675,9.7675,9.7675,9.7675,9.8044,9.8006,9.812,9.8044,9.7891,9.7967,9.7623,9.6974,9.6783,9.6286,9.5789,9.5637,9.5598,9.5598,9.5598,9.5648,9.5738,9.5864,9.5944,9.5866,9.5175,9.5167,9.5757,9.5045,9.5208,9.6056,9.6251,9.6788,9.748,9.7668,9.8086,9.8807,9.8849,9.8803,9.9133,9.8913,9.9415,10.0138,10.0254,10.082,10.1804,10.1874,10.1879,10.1944,10.2117,10.1875,10.1254,10.2006,10.2094,10.151,10.1393,10.0574,9.9289,9.8782,9.8407,9.7812,9.7589,9.7539,9.7577,9.7539,9.7496,9.7511,9.7552,9.7604,9.7591,9.7565,9.7589,9.7577,9.7604,9.7591,9.7578,9.755,9.755,9.7591,9.7604,9.76,9.771,9.7698,9.7714,9.7714,9.7753,9.8104,9.869,9.9197,9.9842,10.0957,10.148,10.1875,10.2461,10.2695,10.2773,10.2773,10.2773,10.2578,10.2695,10.2812,10.2304,10.1836,10.1679,10.1328,10.0469,9.9922,9.9101,9.8359,9.7773,9.7734,9.7695,9.7695,9.7695,9.768,9.7701,9.7675,9.7675,9.7675,9.7675,9.8082,9.8197,9.877,9.8655,9.812,9.8082,9.7929,9.7585,9.6554,9.6172,9.6324,9.5866,9.5598,9.5598,9.5598,9.5987,9.6576,9.6207,9.5982,9.5944,9.5635,9.5585,9.5724,9.5538,9.5933,9.6826,9.7058,9.7557,9.8287,9.8477,9.8705,9.8931,9.9095,9.912,9.9188,9.905,9.9473,10.0375,10.038,10.0872,10.1873,10.2029,10.2112,10.219,10.2356,10.2323,10.2148,10.2439,10.2452,10.2211,10.225,10.1744,10.0613,9.9444,9.8704,9.8407,9.7823,9.7496,9.7525,9.7511,9.7535,9.7496,9.7525,9.7525,9.7525,9.7591,9.7643,9.7604,9.7591,9.7591,9.7578,9.7603,9.7589,9.7591,9.7611,9.7836,9.8266,9.8518,9.8299,9.787,9.8221,9.869,9.9158,9.9822,10.089,10.1465,10.164,10.1992,10.2617,10.2461,10.2031,10.2031,10.2344,10.2734,10.2617,10.2695,10.2656,10.2265,10.2109,10.164,10.0898,10.0078,9.9297,9.8711,9.8164,9.7851,9.7812,9.7695,9.7695,9.7676,9.7689,9.7675,9.7675,9.7675,9.7675,9.877,9.9075,9.9305,9.9266,9.9037,9.9037,9.8846,9.8464,9.7471,9.7127,9.7203,9.6783,9.6515,9.6515,9.6515,9.6866,9.7375,9.7006,9.6671,9.6328,9.5981,9.6006,9.6292,9.6691,9.7127,9.7749,9.7943,9.8442,9.925,9.9364,9.9516,9.982,9.9887,9.9999,9.9933,9.9557,9.9826,10.0732,10.0539,10.0839,10.1757,10.2029,10.2112,10.219,10.2373,10.2459,10.2498,10.2576,10.2591,10.2585,10.2601,10.2211,10.1393,10.0341,9.9483,9.8782,9.8314,9.7886,9.7574,9.7808,9.7808,9.7652,9.8081,9.829,9.811,9.8059,9.8072,9.8072,9.7786,9.7747,9.7994,9.7759,9.7759,9.8057,9.7797,9.7901,9.84,9.8799,9.8807,9.8494,9.8963,9.9509,10.0173,10.0681,10.1749,10.1963,10.2109,10.2187,10.2656,10.2461,10.2187,10.2109,10.2539,10.2617,10.2304,10.25,10.2851,10.2656,10.2383,10.164,10.0859,10.0,9.9179,9.8984,9.8515,9.8437,9.8359,9.789,9.7694,9.7676,9.7675,9.7675,9.7675,9.7675,9.7675,9.9916,10.0451,9.9801,9.9916,10.0413,10.0375,9.9954,9.9496,9.9152,9.8693,9.8235,9.7967,9.7929,9.8006,9.7815,9.7929,9.8204,9.8189,9.7971,9.7322,9.6705,9.6542,9.7178,9.7848,9.8319,9.8671,9.8827,9.9327,10.0096,10.0135,10.0596,10.1172,10.1096,10.1289,10.1095,10.0519,10.0634,10.1241,10.0891,10.1147,10.1889,10.2155,10.2162,10.2151,10.2288,10.2438,10.2499,10.2555,10.2607,10.2601,10.2601,10.2289,10.1627,10.1432,10.0497,9.925,9.8938,9.8509,9.8081,9.847,9.8587,9.812,9.9055,9.9771,9.902,9.8916,9.8942,9.8915,9.8267,9.8033,9.8513,9.8098,9.7994,9.8529,9.8166,9.7909,9.7792,9.8533,9.8924,9.9002,9.9666,10.0563,10.111,10.1422,10.2086,10.2491,10.2695,10.2617,10.2773,10.2695,10.2812,10.2812,10.2812,10.25,10.2187,10.2539,10.2812,10.2344,10.2226,10.1836,10.1172,10.039,9.9375,9.914,9.8906,9.8906,9.8614,9.7999,9.7687,9.7701,9.7675,9.7675,9.7675,9.7675,9.7675,10.0413,10.0566,10.0375,10.0413,10.0489,9.9992,9.9992,10.0069,9.8961,9.8808,9.8846,9.8349,9.8197,9.812,9.8158,9.8426,9.8854,9.8643,9.873,9.8849,9.8117,9.7848,9.8078,9.8389,9.8936,9.9478,9.9711,10.0173,10.0943,10.0904,10.1058,10.1328,10.1289,10.1327,10.1289,10.1058,10.1211,10.1627,10.2087,10.2036,10.2044,10.2698,10.2705,10.2151,10.2327,10.2459,10.2498,10.2552,10.2585,10.2601,10.2601,10.2523,10.2211,10.1744,10.1198,10.0652,10.0068,9.9678,9.9483,9.9576,9.96,9.9483,9.9873,9.999,9.981,9.9786,9.9813,9.9683,9.9059,9.863,9.8743,9.8224,9.7923,9.801,9.8299,9.826,9.8065,9.8963,9.9548,9.8533,9.9939,10.0798,10.0954,10.1657,10.2437,10.2647,10.25,10.2304,10.2656,10.25,10.2422,10.2773,10.2773,10.2422,10.2265,10.2656,10.2617,10.1992,10.1914,10.2109,10.1719,10.1445,10.0273,9.9414,9.9062,9.8945,9.8364,9.7734,9.7721,9.7675,9.7675,9.7675,9.7675,9.7675,9.7675,10.0298,10.0566,10.0222,10.0298,10.0527,10.0107,10.0183,10.0375,9.9649,9.9419,9.9687,9.9419,9.9152,9.9152,9.919,9.9419,9.9763,9.9517,9.9491,9.9534,9.9108,9.8916,9.9036,9.927,9.9895,10.0361,10.0557,10.0866,10.1212,10.1289,10.1289,10.1289,10.1289,10.1289,10.1289,10.1327,10.1635,10.2128,10.2665,10.2847,10.3011,10.3201,10.3403,10.3108,10.3104,10.2964,10.3062,10.3097,10.2974,10.2718,10.2601,10.2601,10.2562,10.2211,10.1744,10.1432,10.0886,10.0497,10.0224,10.038,10.0458,10.0341,10.0613,10.0886,10.073,10.0652,10.0682,10.0606,9.9865,9.9656,9.9778,9.9231,9.8626,9.8409,9.8377,9.8299,9.7753,9.8885,9.9197,9.9002,9.9744,10.0922,10.035,10.1547,10.2125,10.2328,10.2363,10.25,10.2734,10.2344,10.1992,10.2226,10.2422,10.207,10.1914,10.2187,10.2734,10.2187,10.2109,10.2265,10.1875,10.1797,10.082,9.9765,9.9336,9.8855,9.8286,9.7838,9.7714,9.7675,9.7675,9.7675,9.7675,9.7675,9.7675,9.9954,10.0566,9.9801,9.9916,10.0566,10.0566,10.0527,10.0604,10.0489,10.0489,10.0489,10.0566,10.0336,10.0604,10.026,10.0527,10.0527,10.0512,10.0289,10.0065,9.9835,9.9835,9.9835,10.0382,10.0816,10.1052,10.125,10.1289,10.1289,10.1289,10.1289,10.1289,10.1289,10.1404,10.1558,10.1558,10.2058,10.2863,10.3321,10.3623,10.3984,10.4015,10.4101,10.4245,10.4036,10.376,10.3725,10.3703,10.3426,10.2601,10.2601,10.2601,10.2601,10.2601,10.2289,10.1782,10.1549,10.1198,10.0691,10.1198,10.1276,10.0925,10.1821,10.2289,10.1705,10.151,10.1525,10.1542,10.0723,10.0487,10.0529,10.0399,9.9736,9.9041,9.8377,9.8104,9.8104,9.869,9.9119,9.908,9.9822,10.035,10.0518,10.0981,10.1696,10.2437,10.2431,10.2488,10.2539,10.2226,10.1758,10.1406,10.1562,10.164,10.1601,10.1719,10.2304,10.2539,10.2617,10.2539,10.1719,10.1367,10.0781,10.0117,9.9492,9.8965,9.8487,9.8124,9.7799,9.7675,9.7675,9.7675,9.7675,9.7675,9.7675,10.0451,10.0566,10.0413,10.0451,10.0604,10.0604,10.0604,10.0604,10.0604,10.0604,10.0604,10.0604,10.0604,10.0604,10.0604,10.0604,10.0604,10.0742,10.0716,10.0765,10.0722,10.064,10.0601,10.088,10.1043,10.1206,10.1288,10.1289,10.1289,10.1366,10.1327,10.1366,10.1558,10.1673,10.2251,10.2366,10.279,10.3751,10.4442,10.4588,10.4609,10.4992,10.5031,10.4865,10.4798,10.4439,10.3894,10.3801,10.3403,10.2835,10.2601,10.2601,10.2601,10.2601,10.2484,10.2328,10.2289,10.2211,10.2094,10.2094,10.2289,10.2055,10.225,10.2523,10.2406,10.2289,10.2319,10.2257,10.1645,10.0821,10.0196,10.0165,9.9939,9.947,9.9431,9.9627,9.9744,9.9861,9.9666,9.947,10.0251,10.1059,10.0387,10.0952,10.1632,10.2367,10.2537,10.2514,10.2304,10.2031,10.1523,10.1015,10.1054,10.1289,10.1523,10.1719,10.2383,10.2773,10.2851,10.2656,10.1836,10.1211,10.0703,10.0156,9.9531,9.8995,9.8325,9.8085,9.7675,9.7675,9.7675,9.7675,9.7675,9.7675,9.744,10.0604,10.0604,10.0604,10.0604,10.0604,10.0604,10.0604,10.0604,10.0604,10.0604,10.0604,10.0604,10.0604,10.0604,10.0604,10.0604,10.065,10.0787,10.0957,10.1043,10.1038,10.0952,10.0908,10.0913,10.1,10.1085,10.1208,10.1248,10.1404,10.1712,10.1981,10.1981,10.2251,10.2789,10.3135,10.3211,10.3752,10.4484,10.5098,10.5364,10.5619,10.5689,10.5862,10.5579,10.5784,10.5754,10.51,10.4581,10.401,10.3341,10.2835,10.2601,10.2601,10.2601,10.2601,10.2601,10.2601,10.2601,10.2601,10.2601,10.2601,10.2601,10.2601,10.2601,10.2601,10.2616,10.2659,10.262,10.2254,10.1661,10.0868,10.0642,10.0563,10.0329,10.0212,10.0446,10.072,10.0524,9.9978,9.9509,10.0095,9.9937,9.9949,10.0523,10.0936,10.1352,10.1963,10.1953,10.1992,10.1719,10.1211,10.0859,10.0859,10.0976,10.1328,10.1836,10.2656,10.2851,10.289,10.25,10.1875,10.1289,10.0742,10.0069,9.9351,9.8521,9.7929,9.7721,9.7675,9.7675,9.7675,9.7675,9.7558,9.7362,9.705,10.0604,10.0604,10.0604,10.0604,10.0604,10.0604,10.0604,10.0604,10.0604,10.0604,10.0604,10.0604,10.0604,10.0604,10.0604,10.0604,10.0696,10.0831,10.1,10.1123,10.1,10.0995,10.0952,10.0869,10.0831,10.1,10.1357,10.1477,10.1788,10.2289,10.2635,10.2751,10.3444,10.379,10.3982,10.4095,10.452,10.537,10.5639,10.5981,10.6473,10.6317,10.625,10.6498,10.6794,10.678,10.6033,10.534,10.458,10.391,10.3052,10.2663,10.2585,10.2601,10.2601,10.2601,10.2601,10.2601,10.2601,10.2601,10.2601,10.2601,10.2601,10.2601,10.2601,10.2631,10.2673,10.271,10.2577,10.2529,10.2554,10.2047,10.1618,10.1383,10.0876,10.1071,10.1344,10.1032,10.0524,9.9861,10.0102,9.9932,9.9519,9.9637,9.9971,10.035,10.0991,10.1367,10.1367,10.1328,10.082,10.0703,10.0703,10.1445,10.1875,10.1992,10.2773,10.2734,10.2773,10.2226,10.164,10.0781,10.0078,9.9687,9.8995,9.8202,9.7767,9.7721,9.7675,9.7675,9.7636,9.7597,9.7323,9.6972,9.6621,10.0604,10.0604,10.0604,10.0604,10.0604,10.0604,10.0604,10.0604,10.0604,10.0604,10.0604,10.0604,10.0604,10.0604,10.0604,10.065,10.0742,10.0869,10.1,10.1123,10.1,10.0913,10.1067,10.0933,10.094,10.1192,10.1741,10.2246,10.2442,10.3174,10.3289,10.2981,10.3597,10.4289,10.4789,10.4903,10.5287,10.5946,10.6218,10.6485,10.667,10.6859,10.691,10.708,10.7299,10.7052,10.6352,10.551,10.4639,10.3861,10.3041,10.269,10.2591,10.2585,10.2601,10.2601,10.2601,10.2601,10.2601,10.2601,10.2601,10.2601,10.2601,10.2601,10.2601,10.2685,10.2686,10.2722,10.2675,10.2546,10.1813,10.2164,10.2125,10.1891,10.1891,10.2203,10.2359,10.2164,10.1774,10.1071,10.0688,10.0109,9.9624,9.936,9.9692,10.0038,10.0488,10.0541,10.0312,10.0429,10.039,10.0469,10.0625,10.1601,10.2578,10.2617,10.2851,10.2539,10.2344,10.1758,10.1054,10.0,9.9297,9.8984,9.8594,9.7962,9.7721,9.7675,9.7675,9.7675,9.7597,9.7479,9.705,9.6621,9.6269,10.0604,10.0604,10.0604,10.0604,10.0604,10.0604,10.0604,10.0604,10.0604,10.0604,10.0604,10.0604,10.0604,10.0604,10.0604,10.065,10.0787,10.0957,10.1038,10.1081,10.0957,10.1176,10.1482,10.1338,10.1782,10.2222,10.2769,10.2781,10.2751,10.3443,10.3828,10.4212,10.4751,10.5405,10.5674,10.5828,10.5982,10.6407,10.6526,10.6641,10.6714,10.7021,10.7259,10.7391,10.7464,10.727,10.6819,10.561,10.4891,10.4287,10.3258,10.275,10.2591,10.2607,10.2601,10.2601,10.2601,10.2601,10.2601,10.2601,10.2601,10.2601,10.2601,10.2601,10.2616,10.2659,10.271,10.2743,10.2763,10.2633,10.2281,10.2554,10.2515,10.2281,10.2203,10.2359,10.2554,10.2398,10.2164,10.2047,10.1891,10.1046,9.9608,9.9458,9.9595,9.9803,10.0063,9.984,9.9492,10.0078,10.0547,10.0976,10.1289,10.1836,10.2656,10.2617,10.2422,10.2148,10.1719,10.1172,10.0469,9.9414,9.875,9.832,9.789,9.7695,9.7682,9.7675,9.7675,9.7675,9.7636,9.744,9.6777,9.6269,9.5957,10.0604,10.0604,10.0604,10.0604,10.0604,10.0604,10.0604,10.0604,10.0604,10.0604,10.0604,10.0604,10.0604,10.0604,10.0604,10.065,10.0787,10.1,10.1038,10.1034,10.0995,10.1373,10.1698,10.2073,10.2165,10.2424,10.3262,10.3276,10.3211,10.3828,10.4482,10.4982,10.5905,10.6405,10.6328,10.6251,10.6405,10.6407,10.6487,10.6603,10.6821,10.7053,10.7259,10.7391,10.7449,10.7449,10.7254,10.5821,10.5083,10.4477,10.3548,10.2576,10.2555,10.2607,10.2585,10.2601,10.2601,10.2601,10.2601,10.2601,10.2601,10.2601,10.2601,10.2601,10.2631,10.2686,10.2743,10.2781,10.2789,10.2789,10.2672,10.2789,10.2789,10.2593,10.2086,10.1774,10.2281,10.2359,10.2203,10.2281,10.2672,10.1976,10.0539,9.9289,9.9353,9.9353,9.958,9.964,9.9531,10.0742,10.1328,10.1836,10.2148,10.2304,10.2539,10.2344,10.1953,10.1328,10.0859,10.0273,9.9609,9.8867,9.8359,9.7929,9.7851,9.7711,9.7695,9.7675,9.7675,9.7675,9.7675,9.7206,9.6269,9.5879,9.5723,10.0604,10.0604,10.0604,10.0604,10.0604,10.0604,10.0604,10.0604,10.0604,10.0604,10.0604,10.0604,10.0604,10.0604,10.0604,10.0604,10.0696,10.0869,10.0952,10.0946,10.0995,10.1196,10.1422,10.1903,10.1948,10.2351,10.3076,10.3545,10.3826,10.452,10.4982,10.5328,10.5982,10.6405,10.6405,10.6405,10.6405,10.6405,10.6487,10.6676,10.6989,10.7144,10.7286,10.7352,10.7401,10.7449,10.7277,10.5955,10.5093,10.4782,10.3367,10.2575,10.2499,10.2555,10.2607,10.2585,10.2601,10.2601,10.2601,10.2601,10.2601,10.2601,10.2601,10.2616,10.2659,10.2749,10.2792,10.2781,10.2789,10.2789,10.2789,10.2789,10.2789,10.2515,10.2047,10.2086,10.2437,10.2086,10.1969,10.2398,10.275,10.2398,10.143,10.0134,9.908,9.908,9.9133,9.9321,9.9804,10.1094,10.1914,10.2344,10.2226,10.2304,10.2109,10.1953,10.1289,10.0586,10.0078,9.9492,9.8906,9.8398,9.8086,9.7734,9.7687,9.7672,9.7689,9.7675,9.7675,9.7675,9.7675,9.6738,9.5527,9.5371,9.5449,10.0604,10.0604,10.0604,10.0604,10.0604,10.0604,10.0604,10.0604,10.0604,10.0604,10.0604,10.0604,10.0604,10.0604,10.065,10.065,10.0696,10.0875,10.0952,10.0946,10.1077,10.1357,10.1737,10.203,10.2068,10.2658,10.3195,10.3967,10.4439,10.4905,10.529,10.5828,10.6174,10.6405,10.6405,10.6405,10.6405,10.6446,10.6526,10.6712,10.695,10.7105,10.7259,10.7416,10.7401,10.7449,10.7138,10.6383,10.5365,10.4938,10.3678,10.2944,10.2655,10.2576,10.2591,10.2601,10.2601,10.2601,10.2601,10.2601,10.2601,10.2601,10.2616,10.2659,10.2749,10.2772,10.2802,10.2789,10.2789,10.2789,10.2789,10.2789,10.2789,10.2554,10.2008,10.2242,10.2359,10.1891,10.1774,10.232,10.275,10.2437,10.2125,10.1266,10.0212,9.9861,10.0148,10.0527,10.097,10.1797,10.2422,10.2734,10.2344,10.1953,10.1601,10.1289,10.0469,9.9804,9.957,9.8984,9.8398,9.7929,9.7734,9.7689,9.7676,9.7701,9.7682,9.7675,9.7675,9.7675,9.7675,9.6621,9.5574,9.5098,9.4903,10.0604,10.0604,10.0604,10.0604,10.0604,10.0604,10.0604,10.0604,10.0604,10.0604,10.0604,10.0604,10.0604,10.0604,10.0696,10.0696,10.065,10.1,10.0995,10.099,10.1158,10.1477,10.1897,10.2193,10.2846,10.3475,10.4159,10.4547,10.4941,10.5405,10.5867,10.6405,10.6328,10.6405,10.6405,10.6405,10.6405,10.6448,10.6603,10.6821,10.695,10.7135,10.7286,10.7391,10.7401,10.7464,10.7324,10.6585,10.5793,10.5303,10.4471,10.3661,10.3102,10.3004,10.2807,10.2741,10.2601,10.2601,10.2601,10.2601,10.2601,10.2631,10.2659,10.2749,10.2782,10.2792,10.2802,10.2789,10.2789,10.2789,10.2789,10.2789,10.2789,10.2515,10.2047,10.232,10.2437,10.1969,10.1891,10.2437,10.2789,10.2789,10.2476,10.2164,10.1539,10.0883,10.1092,10.1621,10.2031,10.2422,10.2383,10.2578,10.2109,10.1406,10.0625,10.0195,9.9492,9.9101,9.8867,9.8554,9.8047,9.7812,9.7734,9.7684,9.7706,9.7695,9.7675,9.7675,9.7675,9.7675,9.7518,9.6667,9.5808,9.5183,9.4356,10.0604,10.0604,10.0604,10.0604,10.0604,10.0604,10.0604,10.0604,10.0604,10.0604,10.0604,10.0604,10.0604,10.0604,10.0604,10.0604,10.0604,10.0913,10.0957,10.1043,10.1208,10.1365,10.1825,10.2515,10.3203,10.3286,10.4394,10.5166,10.5403,10.5867,10.6213,10.6405,10.6405,10.6405,10.6405,10.6405,10.6446,10.6487,10.6678,10.689,10.7053,10.7202,10.734,10.7391,10.7377,10.7377,10.7377,10.6717,10.6173,10.594,10.5109,10.43,10.3646,10.3374,10.3079,10.2741,10.2601,10.2601,10.2601,10.2601,10.2616,10.2698,10.2749,10.2782,10.2802,10.2772,10.2789,10.2781,10.2781,10.2781,10.2789,10.2789,10.2789,10.2593,10.232,10.2359,10.2398,10.2125,10.2086,10.2593,10.2789,10.2789,10.2789,10.2476,10.2281,10.1657,10.1586,10.207,10.2265,10.2578,10.2187,10.1992,10.164,10.082,9.9531,9.8984,9.8711,9.8476,9.8203,9.8047,9.7812,9.7695,9.7695,9.768,9.7706,9.7689,9.7675,9.7675,9.7675,9.7675,9.7362,9.6706,9.5463,9.4324,9.3615,10.0604,10.0604,10.0604,10.0604,10.0604,10.0604,10.0604,10.0604,10.0604,10.0604,10.0604,10.0604,10.0604,10.0604,10.0604,10.0604,10.0604,10.0787,10.0913,10.1043,10.1167,10.1248,10.171,10.2325,10.3014,10.3557,10.4862,10.5781,10.602,10.6251,10.6328,10.6405,10.6405,10.6405,10.6405,10.6405,10.6446,10.6487,10.6678,10.689,10.6982,10.7231,10.7301,10.7416,10.7377,10.7377,10.7338,10.7144,10.6717,10.6173,10.5459,10.4672,10.388,10.3491,10.3041,10.2663,10.2601,10.2601,10.2601,10.2601,10.2631,10.2686,10.2772,10.2802,10.2811,10.2772,10.2811,10.2802,10.2811,10.2811,10.2802,10.2781,10.2789,10.2711,10.2633,10.2554,10.2437,10.2242,10.2242,10.2711,10.2789,10.2789,10.2789,10.275,10.2593,10.2398,10.2445,10.2461,10.2617,10.2422,10.1992,10.1328,10.0898,10.0273,9.9023,9.8515,9.8125,9.789,9.7695,9.7695,9.7695,9.7695,9.7695,9.7695,9.7701,9.7695,9.7682,9.7682,9.7682,9.7675,9.744,9.6979,9.5495,9.3706,9.3029,10.0604,10.0604,10.0604,10.0604,10.0604,10.0604,10.0604,10.0604,10.0604,10.0604,10.0604,10.0604,10.0604,10.0604,10.0604,10.0833,10.0918,10.0971,10.1099,10.1225,10.1315,10.1285,10.1594,10.2365,10.3362,10.4018,10.498,10.5864,10.629,10.6367,10.6405,10.6405,10.6405,10.6405,10.6405,10.6405,10.6405,10.6487,10.6676,10.6851,10.6982,10.7192,10.7327,10.7377,10.7377,10.7377,10.7377,10.7299,10.7105,10.6547,10.5871,10.5005,10.4211,10.3471,10.2902,10.2702,10.2601,10.2601,10.2601,10.2631,10.2659,10.2722,10.2792,10.2811,10.2772,10.2802,10.2792,10.2792,10.2792,10.2792,10.2792,10.2781,10.2789,10.275,10.275,10.2672,10.2711,10.2554,10.2633,10.2789,10.2789,10.2789,10.2789,10.2789,10.275,10.2633,10.2672,10.2647,10.2656,10.2304,10.1562,10.0859,10.0078,9.9375,9.8594,9.8242,9.7929,9.7851,9.7695,9.7695,9.7695,9.7695,9.7695,9.7695,9.7684,9.7701,9.7689,9.7643,9.7682,9.7675,9.7057,9.6205,9.5105,9.3426,9.2905,10.0604,10.0604,10.0604,10.0604,10.0604,10.0604,10.0604,10.0604,10.0604,10.0604,10.0604,10.0604,10.0604,10.0604,10.0604,10.0986,10.1406,10.1079,10.1162,10.1744,10.1426,10.1285,10.1942,10.2828,10.3749,10.4251,10.529,10.6172,10.6405,10.6405,10.6405,10.6405,10.6405,10.6405,10.6405,10.6405,10.6407,10.6526,10.6747,10.6918,10.7045,10.7248,10.7352,10.7377,10.7377,10.7377,10.7377,10.7377,10.7222,10.6833,10.6166,10.5376,10.46,10.384,10.3214,10.2679,10.264,10.2601,10.2601,10.2673,10.271,10.2743,10.2802,10.2772,10.2802,10.2792,10.2782,10.2772,10.2782,10.2802,10.2772,10.2789,10.2789,10.2789,10.2789,10.2789,10.2789,10.2789,10.2789,10.2789,10.2789,10.2789,10.2789,10.2789,10.2828,10.2828,10.2867,10.2835,10.2777,10.2226,10.1484,10.082,9.9961,9.9179,9.8594,9.8047,9.7734,9.7695,9.7695,9.7695,9.7695,9.7695,9.7695,9.7695,9.7652,9.7637,9.7617,9.7604,9.7142,9.649,9.5826,9.4972,9.3979,9.3302,9.278,10.0604,10.0604,10.0604,10.0604,10.0604,10.0604,10.0604,10.0604,10.0604,10.0604,10.0604,10.0604,10.0604,10.0604,10.0718,10.1139,10.1635,10.1062,10.1224,10.2035,10.1455,10.1705,10.2286,10.3212,10.4174,10.4866,10.5867,10.6405,10.6405,10.6405,10.6405,10.6405,10.6405,10.6405,10.6405,10.6405,10.6407,10.6487,10.6712,10.695,10.7014,10.722,10.7377,10.7377,10.7377,10.7377,10.7377,10.7377,10.7183,10.6702,10.5955,10.5104,10.4328,10.3529,10.2974,10.264,10.2601,10.2631,10.2659,10.271,10.2722,10.2753,10.2772,10.2772,10.2792,10.2733,10.2761,10.2749,10.2761,10.2733,10.2714,10.2781,10.2789,10.2789,10.2789,10.2789,10.2789,10.2789,10.2789,10.2789,10.2789,10.2711,10.2672,10.2554,10.2515,10.2601,10.264,10.2835,10.2842,10.2187,10.1484,10.0976,10.0234,9.9336,9.8594,9.8047,9.7734,9.7695,9.7695,9.7695,9.7695,9.7695,9.7695,9.7695,9.7617,9.7567,9.7081,9.6562,9.5758,9.5063,9.4587,9.4303,9.3784,9.3178,9.2694,10.0604,10.0604,10.0604,10.0604,10.0604,10.0604,10.0604,10.0604,10.0604,10.0604,10.0604,10.0604,10.0604,10.068,10.0986,10.1521,10.2209,10.1568,10.1682,10.2379,10.1532,10.182,10.2517,10.352,10.4251,10.5136,10.5905,10.6405,10.6405,10.6405,10.6405,10.6405,10.6405,10.6405,10.6405,10.6405,10.6405,10.6487,10.6712,10.6918,10.7014,10.7192,10.7377,10.7377,10.7377,10.7377,10.7377,10.7261,10.7027,10.622,10.5411,10.4619,10.3803,10.3118,10.2663,10.2585,10.2601,10.2646,10.2686,10.271,10.2722,10.2792,10.2811,10.2763,10.2782,10.271,10.2725,10.2712,10.2698,10.2722,10.2743,10.2772,10.2789,10.2789,10.2789,10.2789,10.2711,10.2711,10.2672,10.2672,10.2359,10.2359,10.2359,10.232,10.2164,10.2289,10.238,10.2569,10.2679,10.2031,10.1367,10.082,10.0117,9.9179,9.8437,9.7969,9.7773,9.7695,9.7695,9.7695,9.7695,9.7695,9.7695,9.7578,9.7265,9.6836,9.6094,9.5441,9.479,9.42,9.3751,9.3511,9.3419,9.3061,9.2585,10.0604,10.0604,10.0604,10.0604,10.0604,10.0604,10.0604,10.0604,10.0604,10.0604,10.0604,10.0604,10.0604,10.0757,10.1406,10.2209,10.2753,10.2226,10.2655,10.2777,10.2002,10.2243,10.2749,10.3558,10.4443,10.5213,10.5905,10.6405,10.6405,10.6405,10.6405,10.6405,10.6405,10.6405,10.6405,10.6405,10.6405,10.6487,10.6712,10.6885,10.6982,10.722,10.7352,10.7377,10.7377,10.7377,10.7377,10.7338,10.6833,10.6158,10.5388,10.4577,10.3783,10.3004,10.2746,10.2585,10.2601,10.2646,10.2647,10.2698,10.2722,10.2782,10.2782,10.2772,10.2749,10.2725,10.2698,10.2712,10.2686,10.2761,10.2782,10.2811,10.2789,10.2789,10.2789,10.2711,10.2633,10.2554,10.2476,10.2242,10.1735,10.1539,10.15,10.15,10.15,10.15,10.1586,10.1742,10.1827,10.1679,10.1015,10.0508,9.9765,9.8867,9.8281,9.7969,9.7773,9.7695,9.7695,9.7695,9.7695,9.7617,9.7539,9.7265,9.6719,9.6094,9.5273,9.4595,9.397,9.3454,9.3114,9.2997,9.2951,9.2873,9.2514,10.0604,10.0604,10.0604,10.0604,10.0604,10.0604,10.0604,10.0604,10.0604,10.0604,10.0604,10.0604,10.0604,10.0642,10.0909,10.1941,10.2409,10.2655,10.2861,10.272,10.239,10.2784,10.3288,10.3905,10.4789,10.5636,10.6251,10.6405,10.6405,10.6405,10.6405,10.6405,10.6405,10.6405,10.6405,10.6405,10.6405,10.6448,10.6712,10.6851,10.6982,10.722,10.7327,10.7377,10.7377,10.7377,10.7377,10.7377,10.6794,10.5536,10.5194,10.446,10.2927,10.2693,10.2591,10.2585,10.2601,10.2631,10.2673,10.2673,10.2698,10.2722,10.271,10.2725,10.2712,10.2698,10.2685,10.2646,10.2686,10.271,10.2743,10.2763,10.2781,10.2789,10.2711,10.2554,10.2398,10.2086,10.1969,10.1188,10.0681,10.0681,10.0642,10.0642,10.0642,10.0642,10.072,10.0837,10.1007,10.0883,10.0625,10.0078,9.9609,9.8789,9.8437,9.8125,9.789,9.7695,9.7695,9.7695,9.7656,9.7578,9.7344,9.6719,9.582,9.5078,9.4375,9.3785,9.327,9.3015,9.2717,9.26,9.2482,9.2522,9.2507,10.0604,10.0604,10.0604,10.0604,10.0604,10.0604,10.0604,10.0604,10.0604,10.0604,10.0604,10.0604,10.0604,10.068,10.1024,10.1712,10.2514,10.2349,10.2439,10.2561,10.262,10.3091,10.3595,10.4289,10.5174,10.5982,10.6405,10.6405,10.6405,10.6405,10.6405,10.6405,10.6405,10.6405,10.6405,10.6405,10.6405,10.6487,10.6639,10.6817,10.7014,10.7164,10.7313,10.7416,10.7377,10.7377,10.7377,10.7377,10.6639,10.5629,10.5482,10.4711,10.3316,10.2828,10.2607,10.2601,10.2601,10.2631,10.2673,10.2712,10.2686,10.2698,10.2686,10.2698,10.2646,10.2631,10.2616,10.2616,10.2673,10.271,10.2733,10.2753,10.2772,10.2789,10.2593,10.2398,10.2008,10.1618,10.0915,10.0056,9.9783,9.9783,9.9783,9.9783,9.9783,9.9783,9.9627,9.9509,9.9875,10.0171,9.9994,9.9609,9.9297,9.8828,9.8515,9.8164,9.789,9.7695,9.7695,9.7695,9.7656,9.7148,9.6601,9.5703,9.4687,9.4101,9.3629,9.3158,9.2723,9.2585,9.2561,9.2514,9.2514,9.2507,9.249,10.0604,10.0604,10.0604,10.0604,10.0604,10.0604,10.0604,10.0604,10.0604,10.0604,10.0604,10.0604,10.068,10.0948,10.1444,10.1979,10.2523,10.254,10.2662,10.2401,10.2697,10.3245,10.4095,10.4751,10.5443,10.6059,10.6405,10.6405,10.6405,10.6405,10.6405,10.6405,10.6405,10.6405,10.6405,10.6405,10.6405,10.6446,10.6565,10.6751,10.6918,10.7075,10.7259,10.7352,10.7377,10.7377,10.7377,10.7261,10.7066,10.6484,10.5847,10.5116,10.3861,10.298,10.2702,10.2601,10.2601,10.2616,10.2646,10.2685,10.2659,10.2659,10.2698,10.267,10.2616,10.2616,10.2601,10.2616,10.2659,10.2698,10.2722,10.2753,10.2772,10.2663,10.2437,10.1969,10.1344,10.072,9.9783,9.908,9.8885,9.8885,9.8885,9.8924,9.8924,9.8885,9.8807,9.8533,9.8697,9.9224,9.9207,9.9022,9.875,9.8437,9.8164,9.7851,9.7812,9.7695,9.7656,9.7461,9.7265,9.6562,9.5703,9.4844,9.3984,9.3437,9.2954,9.2677,9.2595,9.2541,9.2522,9.2514,9.2507,9.249,9.2461,10.0604,10.0604,10.0604,10.0604,10.0604,10.0604,10.0604,10.0604,10.0604,10.0604,10.0604,10.0642,10.0948,10.1406,10.1712,10.2361,10.3288,10.28,10.3458,10.355,10.3536,10.3706,10.4634,10.5097,10.5636,10.6136,10.6405,10.6405,10.6405,10.6405,10.6405,10.6405,10.6405,10.6405,10.6405,10.6405,10.6405,10.6405,10.6486,10.6678,10.6918,10.7075,10.7259,10.7327,10.7377,10.7377,10.7377,10.7338,10.6872,10.6328,10.556,10.4443,10.2984,10.2724,10.264,10.2601,10.2601,10.2616,10.2616,10.2631,10.2631,10.2616,10.2616,10.2616,10.2601,10.2601,10.2601,10.2616,10.2646,10.2673,10.2632,10.2665,10.2616,10.239,10.2164,10.1422,10.0681,9.9666,9.869,9.8377,9.8104,9.8065,9.8104,9.8065,9.8026,9.8026,9.8026,9.7948,9.7987,9.8274,9.8379,9.8238,9.8125,9.7851,9.7695,9.7695,9.7695,9.7617,9.7578,9.7304,9.6836,9.582,9.4765,9.414,9.3437,9.3029,9.2741,9.2658,9.2567,9.2561,9.2522,9.2514,9.2481,9.2461,9.2378,10.0696,10.0696,10.0604,10.0604,10.0604,10.0604,10.0604,10.0604,10.0604,10.0604,10.0604,10.0642,10.0909,10.1483,10.1712,10.2285,10.324,10.2829,10.3182,10.3696,10.41,10.4317,10.4785,10.5443,10.5905,10.6328,10.6405,10.6405,10.6328,10.6405,10.6405,10.6405,10.6405,10.6405,10.6405,10.6405,10.6405,10.6405,10.6405,10.6603,10.6885,10.7014,10.7192,10.7301,10.7377,10.7377,10.7222,10.7144,10.6639,10.5925,10.5138,10.4697,10.3646,10.3075,10.2679,10.2601,10.2601,10.2601,10.2601,10.2601,10.2601,10.2601,10.2601,10.2601,10.2601,10.2601,10.2601,10.2616,10.2646,10.2673,10.214,10.1981,10.1622,10.1319,10.1063,10.0603,9.9783,9.8846,9.826,9.7987,9.7831,9.7831,9.787,9.787,9.7831,9.7831,9.7714,9.7714,9.7714,9.7675,9.7706,9.7687,9.7694,9.7695,9.7695,9.7695,9.7695,9.7617,9.7422,9.6445,9.5625,9.4687,9.3828,9.339,9.3064,9.2814,9.2606,9.26,9.2561,9.2522,9.2522,9.2514,9.2481,9.2412,9.2327,10.0787,10.0742,10.065,10.0604,10.0604,10.0604,10.0604,10.0604,10.0604,10.0604,10.0604,10.0604,10.0642,10.1062,10.1483,10.1826,10.217,10.2552,10.2982,10.342,10.3748,10.4351,10.5131,10.5905,10.6097,10.6213,10.629,10.6174,10.6059,10.6251,10.6405,10.6405,10.6405,10.6405,10.6405,10.6405,10.6405,10.6405,10.6486,10.6602,10.6783,10.6918,10.7135,10.7274,10.7377,10.7377,10.7144,10.6755,10.6289,10.5599,10.481,10.4192,10.3819,10.313,10.2819,10.2601,10.2601,10.2601,10.2601,10.2601,10.2601,10.2601,10.2601,10.2601,10.2601,10.2601,10.2601,10.2577,10.2646,10.2348,10.1815,10.1372,10.0966,10.0412,10.0157,9.9744,9.8924,9.8182,9.7948,9.7675,9.7675,9.7675,9.7675,9.7675,9.7675,9.7675,9.7675,9.7675,9.7675,9.7682,9.7695,9.768,9.7693,9.7695,9.7695,9.7617,9.7617,9.7226,9.6875,9.5586,9.4492,9.3828,9.332,9.2937,9.26,9.26,9.26,9.2561,9.2561,9.2522,9.2522,9.2514,9.2498,9.2422,9.2237,10.0742,10.065,10.0604,10.0604,10.0604,10.0604,10.0604,10.0604,10.0604,10.0604,10.0604,10.068,10.0909,10.1635,10.1788,10.2132,10.2743,10.282,10.3049,10.3479,10.4132,10.4697,10.5208,10.5867,10.5828,10.5867,10.5905,10.5944,10.5828,10.6136,10.6405,10.6405,10.6405,10.6405,10.6405,10.6405,10.6405,10.6446,10.6565,10.6714,10.6817,10.6982,10.7096,10.7274,10.7377,10.7377,10.7183,10.66,10.6289,10.5715,10.4694,10.3783,10.337,10.3013,10.2718,10.2601,10.2601,10.264,10.264,10.2601,10.2601,10.2601,10.2601,10.2601,10.2601,10.2601,10.2562,10.2445,10.2382,10.2046,10.1593,10.1334,10.0943,10.009,9.9571,9.8916,9.8143,9.7948,9.7753,9.7675,9.7675,9.7675,9.7675,9.7675,9.7675,9.7675,9.7675,9.7675,9.7675,9.7682,9.7643,9.7555,9.7533,9.7695,9.7695,9.75,9.7383,9.6992,9.6328,9.5117,9.4062,9.3281,9.2773,9.2656,9.2606,9.26,9.2561,9.2561,9.2522,9.2522,9.2522,9.2475,9.242,9.2081,9.1652]},{"header":{"parameterUnit":"m.s-1","parameterCategory":1,"la1":31.0,"la2":29.5877,"lo1":-88.7671,"lo2":-86.6584,"dy":0.0162,"dx":0.0185,"nx":115,"ny":88,"refTime":"2024-11-28T06:00:00:Z","depth":0,"parameterNumber":3,"parameterNumberName":"V-component_of_WINDS"},"data":[0.0,0.0,0.0,0.0,0.0,0.0,0.0,0.0,0.0,0.0,0.0,0.0,0.0,0.0,0.0,0.0,0.0,0.0,0.0,0.0,0.0,0.0,0.0,0.0,0.0,0.0,0.0,0.0,0.0,0.0,0.0,0.0,0.0,0.0,0.0,0.0,0.0,0.0,0.0,0.0,0.0,0.0,0.0,0.0,0.0,0.0,0.0,0.0,0.0,0.0,0.0,0.0,0.0,0.0,0.0,0.0,0.0,0.0,0.0,0.0,0.0,0.0,0.0,0.0,0.0,0.0,0.0,0.0,0.0,0.0,0.0,0.0,0.0,0.0,0.0,0.0,0.0,0.0,0.0,0.0,0.0,0.0,0.0,0.0,0.0,0.0,0.0,0.0,0.0,0.0,0.0,0.0,0.0,0.0,0.0,0.0,0.0,0.0,0.0,0.0,0.0,0.0,0.0,0.0,0.0,0.0,0.0,0.0,0.0,0.0,0.0,0.0,0.0,0.0,0.0,0.0,0.0,0.0,0.0,0.0,0.0,0.0,0.0,0.0,0.0,0.0,0.0,0.0,0.0,0.0,0.0,0.0,0.0,0.0,0.0,0.0,0.0,0.0,0.0,0.0,0.0,0.0,0.0,0.0,0.0,0.0,0.0,0.0,0.0,0.0,0.0,0.0,0.0,0.0,0.0,0.0,0.0,0.0,0.0,0.0,0.0,0.0,0.0,0.0,0.0,0.0,0.0,0.0,0.0,0.0,0.0,0.0,0.0,0.0,0.0,0.0,0.0,0.0,0.0,0.0,0.0,0.0,0.0,0.0,0.0,0.0,0.0,0.0,0.0,0.0,0.0,0.0,0.0,0.0,0.0,0.0,0.0,0.0,0.0,0.0,0.0,0.0,0.0,0.0,0.0,0.0,0.0,0.0,0.0,0.0,0.0,0.0,0.0,0.0,0.0,0.0,0.0,0.0,0.0,0.0,0.0,0.0,0.0,0.0,0.0,0.0,0.0,0.0,0.0,0.0,0.0,0.0,0.0,0.0,0.0,0.0,0.0,0.0,0.0,0.0,0.0,0.0,0.0,0.0,0.0,0.0,0.0,0.0,0.0,0.0,0.0,0.0,0.0,0.0,0.0,0.0,0.0,0.0,0.0,0.0,0.0,0.0,0.0,0.0,0.0,0.0,0.0,0.0,0.0,0.0,0.0,0.0,0.0,0.0,0.0,0.0,0.0,0.0,0.0,0.0,0.0,0.0,0.0,0.0,0.0,0.0,0.0,0.0,0.0,0.0,0.0,0.0,0.0,0.0,0.0,0.0,0.0,0.0,0.0,0.0,0.0,0.0,0.0,0.0,0.0,0.0,0.0,0.0,0.0,0.0,0.0,0.0,0.0,0.0,0.0,0.0,0.0,0.0,0.0,0.0,0.0,0.0,0.0,0.0,0.0,0.0,0.0,0.0,0.0,0.0,0.0,0.0,0.0,0.0,0.0,0.0,0.0,0.0,0.0,0.0,0.0,0.0,0.0,0.0,0.0,0.0,0.0,0.0,0.0,0.0,0.0,0.0,0.0,0.0,0.0,0.0,0.0,0.0,0.0,0.0,0.0,0.0,0.0,0.0,0.0,0.0,0.0,0.0,0.0,0.0,0.0,0.0,0.0,0.0,0.0,0.0,0.0,0.0,0.0,0.0,0.0,0.0,0.0,0.0,0.0,0.0,0.0,0.0,0.0,0.0,0.0,0.0,0.0,0.0,0.0,0.0,0.0,0.0,0.0,0.0,0.0,0.0,0.0,0.0,0.0,0.0,0.0,0.0,0.0,0.0,0.0,0.0,0.0,0.0,0.0,0.0,0.0,0.0,0.0,0.0,0.0,0.0,0.0,0.0,0.0,0.0,0.0,0.0,0.0,0.0,0.0,0.0,0.0,0.0,0.0,0.0,0.0,0.0,0.0,0.0,0.0,0.0,0.0,0.0,0.0,0.0,0.0,0.0,0.0,0.0,0.0,0.0,0.0,0.0,0.0,0.0,0.0,0.0,0.0,0.0,0.0,0.0,0.0,0.0,0.0,0.0,0.0,0.0,0.0,0.0,0.0,0.0,0.0,0.0,0.0,0.0,0.0,0.0,0.0,0.0,0.0,0.0,0.0,0.0,0.0,0.0,0.0,0.0,0.0,0.0,0.0,0.0,0.0,0.0,0.0,0.0,0.0,0.0,0.0,0.0,0.0,0.0,0.0,0.0,0.0,0.0,0.0,0.0,0.0,0.0,0.0,0.0,0.0,0.0,0.0,0.0,0.0,0.0,0.0,0.0,0.0,0.0,0.0,0.0,0.0,0.0,0.0,0.0,0.0,0.0,0.0,0.0,0.0,0.0,0.0,0.0,0.0,0.0,0.0,0.0,0.0,0.0,0.0,0.0,0.0,0.0,0.0,0.0,0.0,0.0,0.0,0.0,0.0,0.0,0.0,0.0,0.0,0.0,0.0,0.0,0.0,0.0,0.0,0.0,0.0,0.0,0.0,0.0,0.0,0.0,0.0,0.0,0.0,0.0,0.0,0.0,0.0,0.0,0.0,0.0,0.0,0.0,0.0,0.0,0.0,0.0,0.0,0.0,0.0,0.0,0.0,0.0,0.0,0.0,0.0,0.0,0.0,0.0,0.0,0.0,0.0,0.0,0.0,0.0,0.0,0.0,0.0,0.0,0.0,0.0,0.0,0.0,0.0,0.0,0.0,0.0,0.0,0.0,0.0,0.0,0.0,0.0,0.0,0.0,0.0,0.0,0.0,0.0,0.0,0.0,0.0,0.0,0.0,0.0,0.0,0.0,0.0,0.0,0.0,0.0,0.0,0.0,0.0,0.0,0.0,0.0,0.0,0.0,0.0,0.0,0.0,0.0,0.0,0.0,0.0,0.0,0.0,0.0,0.0,0.0,0.0,0.0,0.0,0.0,0.0,0.0,0.0,0.0,0.0,0.0,0.0,0.0,0.0,0.0,0.0,0.0,0.0,0.0,0.0,0.0,0.0,0.0,0.0,0.0,0.0,0.0,0.0,0.0,0.0,0.0,0.0,0.0,0.0,0.0,0.0,0.0,0.0,0.0,0.0,0.0,0.0,0.0,0.0,0.0,0.0,0.0,0.0,0.0,0.0,0.0,0.0,0.0,0.0,0.0,0.0,0.0,0.0,0.0,0.0,0.0,0.0,0.0,0.0,0.0,0.0,0.0,0.0,0.0,0.0,0.0,0.0,0.0,0.0,0.0,0.0,0.0,0.0,0.0,0.0,0.0,0.0,0.0,0.0,0.0,0.0,0.0,0.0,0.0,0.0,0.0,0.0,0.0,0.0,0.0,0.0,0.0,0.0,0.0,0.0,0.0,0.0,0.0,0.0,0.0,0.0,0.0,0.0,0.0,0.0,0.0,0.0,0.0,0.0,0.0,0.0,0.0,0.0,0.0,0.0,0.0,0.0,0.0,0.0,0.0,0.0,0.0,0.0,0.0,0.0,0.0,0.0,0.0,0.0,0.0,0.0,0.0,0.0,0.0,0.0,0.0,0.0,0.0,0.0,0.0,0.0,0.0,0.0,0.0,0.0,0.0,0.0,0.0,0.0,0.0,0.0,0.0,0.0,0.0,0.0,0.0,0.0,0.0,0.0,0.0,0.0,0.0,0.0,0.0,0.0,0.0,0.0,0.0,0.0,0.0,0.0,0.0,0.0,0.0,0.0,0.0,0.0,0.0,0.0,0.0,0.0,0.0,0.0,0.0,0.0,0.0,0.0,0.0,0.0,0.0,0.0,0.0,0.0,0.0,0.0,0.0,0.0,0.0,0.0,0.0,0.0,0.0,0.0,0.0,0.0,0.0,0.0,0.0,0.0,0.0,0.0,0.0,0.0,0.0,0.0,0.0,0.0,0.0,0.0,0.0,0.0,0.0,0.0,0.0,0.0,0.0,0.0,0.0,0.0,0.0,0.0,0.0,0.0,0.0,0.0,0.0,0.0,0.0,0.0,0.0,0.0,0.0,0.0,0.0,0.0,0.0,0.0,0.0,0.0,0.0,0.0,0.0,0.0,0.0,0.0,0.0,0.0,0.0,0.0,0.0,0.0,0.0,0.0,0.0,0.0,0.0,0.0,0.0,0.0,0.0,0.0,0.0,0.0,0.0,0.0,0.0,0.0,0.0,0.0,0.0,0.0,0.0,0.0,0.0,0.0,0.0,0.0,0.0,0.0,0.0,0.0,0.0,0.0,0.0,0.0,0.0,0.0,0.0,0.0,0.0,0.0,0.0,-0.1559,0.0,0.0,0.0,0.0,0.0,0.0,0.0,0.0,0.0,0.0,0.0,0.0,0.0,0.0,0.0,0.0,0.0,0.0,0.0,0.0,0.0,0.0,0.0,0.0,0.0,0.0,0.0,0.0,0.0,0.0,0.0,0.0,0.0,0.0,0.0,0.0,0.0,0.0,0.0,0.0,0.0,0.0,0.0,0.0,0.0,0.0,0.0,0.0,0.0,0.0,0.0,0.0,0.0,0.0,0.0,0.0,0.0,0.0,0.0,0.0,0.0,0.0,0.0,0.0,0.0,0.0,0.0,0.0,0.0,0.0,0.0,0.0,0.0,0.0,0.0,0.0,0.0,0.0,0.0,0.0,0.0,0.0,0.0,0.0,0.0,0.0,0.0,0.0,0.0,0.0,0.0,0.0,0.0,0.0,0.0,0.0,0.0,0.0,0.0,0.0,0.0,0.0,0.0,0.0,0.0,0.0,0.0,0.0,0.0,0.0,0.1315,0.0987,0.0435,-0.0429,-0.1477,0.0,0.0,0.0,0.0,0.0,0.0,0.0,0.0,0.0,0.0,0.0,0.0,0.0,0.0,0.0,0.0,0.0,0.0,0.0,0.0,0.0,0.0,0.0,0.0,0.0,0.0,0.0,0.0,0.0,0.0,0.0,0.0,0.0,0.0,0.0,0.0,0.0,0.0,0.0,0.0,0.0,0.0,0.0,0.0,0.0,0.0,0.0,0.0,0.0,0.0,0.0,0.0,0.0,0.0,0.0,0.0,0.0,0.0,0.0,0.0,0.0,0.0,0.0,0.0,0.0,0.0,0.0,0.0,0.0,0.0,0.0,0.0,0.0,0.0,0.0,0.0,0.0,0.0,0.0,0.0,0.0,0.0,0.0,0.0,0.0,0.0,0.0,0.0,0.0,0.0,0.0,0.0,0.0,0.0,0.0,0.0,0.0,0.0,0.0,0.0,0.0,0.0,0.0,0.0,0.0,0.0,0.0,0.0,0.0,0.0,0.0,0.0,0.0891,-0.011,-0.1181,0.0,0.0,0.0,0.0,0.0,0.0,0.0,0.0,0.0,0.0,0.0,0.0,0.0,0.0,0.0,0.0,0.0,0.0,0.0,0.0,0.0,0.0,0.0,0.0,0.0,0.0,0.0,0.0,0.0,0.0,0.0,0.0,0.0,0.0,0.0,0.0,0.0,0.0,0.0,0.0,0.0,0.0,0.0,0.0,0.0,0.0,0.0,0.0,0.0,0.0,0.0,0.0,0.0,0.0,0.0,0.0,0.0,0.0,0.0,0.0,0.0,0.0,0.0,0.0,0.0,0.0,0.0,0.0,0.0,0.0,0.0,0.0,0.0,0.0,0.0,0.0,0.0,0.0,0.0,0.0,0.0,0.0,0.0,0.0,0.0,0.0,0.0,0.0,0.0,0.0,0.0,0.0,0.0,0.0,0.0,0.0,0.0,0.0,0.0,0.0,0.0,0.0,0.0,0.0,0.0,0.0,0.0,0.0,0.0,0.0,0.178,0.1834,0.1374,0.0,-0.0109,0.0,0.0,0.0,0.0,0.0,0.0,0.0,0.0,0.0,0.0,0.0,0.0,0.0,0.0,0.0,0.0,0.0,0.0,0.0,0.0,0.0,0.0,0.0,0.0,0.0,0.0,0.0,0.0,0.0,0.0,0.0,0.0,0.0,0.0,0.0,0.0,0.0,0.0,0.0,0.0,0.0,0.0,0.0,0.0,0.0,0.0,0.0,0.0,0.0,0.0,0.0,0.0,0.0,0.0,0.0,0.0,0.0,0.0,0.0,0.0,0.0,0.0,0.0,0.0,0.0,0.0,0.0,0.0,0.0,0.0,0.0,0.0,0.0,0.0,0.0,0.0,0.0,0.0,0.0,0.0,0.0,0.0,0.0,0.0,0.0,0.0,0.0,0.0,0.0,0.0,0.0,0.0,0.0,0.0,0.0,0.0,0.0,0.0,0.0,0.0,0.0,0.0,0.0,0.0,0.0,0.0,0.0,0.0,0.0,0.0,0.1824,0.1866,0.1718,0.1233,0.0,0.0,0.0,0.0,0.0,0.0,0.0,0.0,0.0,0.0,0.0,0.0,0.0,0.0,0.0,0.0,0.0,0.0,0.0,0.0,0.0,0.0,0.0,0.0,0.0,0.0,0.0,0.0,0.0,0.0,0.0,0.0,0.0,0.0,0.0,0.0,0.0,0.0,0.0,0.0,0.0,0.0,0.0,0.0,0.0,0.0,0.0,0.0,0.0,0.0,0.0,0.0,0.0,0.0,0.0,0.0,0.0,0.0,0.0,0.0,0.0,0.0,0.0,0.0,0.0,0.0,0.0,0.0,0.0,0.0,0.0,0.0,0.0,0.0,0.0,0.0,0.0,0.0,0.0,0.0,0.0,0.0,0.0,0.0,0.0,0.0,0.0,0.0,0.0,0.0,0.0,0.0,0.0,0.0,0.0,0.0,0.0,0.0,0.0,0.0,0.0,0.0,0.0,0.0,0.0,0.0,0.0,0.0,0.0,0.0,0.1809,0.1842,0.187,0.1954,0.157,0.0544,0.0,0.0,0.0,0.0,0.0,0.0,0.0,0.0,0.0,0.0,0.0,0.0,0.0,0.0,0.0,0.0,0.0,0.0,0.0,0.0,0.0,0.0,0.0,0.0,0.0,0.0,0.0,0.0,0.0,0.0,0.0,0.0,0.0,0.0,0.0,0.0,0.0,0.0,0.0,0.0,0.0,0.0,0.0,0.0,0.0,0.0,0.0,0.0,0.0,0.0,0.0,0.0,0.0,0.0,0.0,0.0,0.0,0.0,0.0,0.0,0.0,0.0,0.0,0.0,0.0,0.0,0.0,0.0,0.0,0.0,0.0,0.0,0.0,0.0,0.0,0.0,0.0,0.0,0.0,0.0,0.0,0.0,0.0,0.0,0.0,0.0,0.0,0.0,0.0,0.0,0.0,0.0,0.0,0.0,0.0,0.0,0.0,0.0,0.0,0.0,0.0,0.0,0.0,0.0,0.0,0.0,0.0,0.0,0.0,0.181,0.1813,0.1846,0.1984,0.1942,0.0,0.0,0.0,0.0,0.0,0.0,0.0,0.0,0.0,0.0,0.0,0.0,0.0,0.0,0.0,0.0,0.0,0.0,0.0,0.0,0.0,0.0,0.0,0.0,0.0,0.0,0.0,0.0,0.0,0.0,0.0,0.0,0.0,0.0,0.0,0.0,0.0,0.0,0.0,0.0,0.0,0.0,0.0,0.0,0.0,0.0,0.0,0.0,0.0,0.0,0.0,0.0,0.0,0.0,0.0,0.0,0.0,0.0,0.0,0.0,0.0,0.0,0.0,0.0,0.0,0.0,0.0,0.0,0.0,0.0,0.0,0.0,0.0,0.0,0.0,0.0,0.0,0.0,0.0,0.0,0.0,0.0,0.0,0.0,0.0,0.0,0.0,0.0,0.0,0.0,0.0,0.0,0.0,0.0,0.0,0.0,0.0,0.0,0.0,0.0,0.0,0.0,0.0,0.0,0.0,0.0,0.0,0.0,0.0,0.1782,0.1828,0.1885,0.1948,0.1756,0.1702,0.0,0.0,0.0,0.0,0.0,0.0,0.0,0.0,0.0,0.0,0.0,0.0,0.0,0.0,0.0,0.0,0.0,0.0,0.0,0.0,0.0,0.0,0.0,0.0,0.0,0.0,0.0,0.0,0.0,0.0,0.0,0.0,0.0,0.0,0.0,0.0,0.0,0.0,0.0,0.0,0.0,0.0,0.0,0.0,0.0,0.0,0.0,0.0,0.0,0.0,0.0,0.0,0.0,0.0,0.0,0.0,0.0,0.0,0.0,0.0,0.0,0.0,0.0,0.0,0.0,0.0,0.0,0.0,0.0,0.0,0.0,0.0,0.0,0.0,0.0,0.0,0.0,0.0,0.0,0.0,0.0,0.0,0.0,0.0,0.0,0.0,0.0,0.0,0.0,0.0,0.0,0.0,0.0,0.0,0.0,0.0,0.0,0.0,0.0,0.0,0.0,0.0,0.0,0.0,0.0,0.0,0.0,0.0,0.0,0.1808,0.0,0.1944,0.0,0.1643,0.1585,0.0,0.0,0.0,0.0,0.0,0.0,0.0,0.0,0.0,0.0,0.0,0.0,0.0,0.0,0.0,0.0,0.0,0.0,0.0,0.0,0.0,0.0,0.0,0.0,0.0,0.0,0.0,0.0,0.0,0.0,0.0,0.0,0.0,0.0,0.0,0.0,0.0,0.0,0.0,0.0,0.0,0.0,0.0,0.0,0.0,0.0,0.0,0.0,0.0,0.0,0.0,0.0,0.0,0.0,0.0,0.0,0.0,0.0,0.0,0.0,0.0,0.0,0.0,0.0,0.0,0.0,0.0,0.0,0.0,0.0,0.0,0.0,0.0,0.0,0.0,0.0,0.0,0.0,0.0,0.0,0.0,0.0,0.0,0.0,0.0,0.0,0.0,0.0,0.0,0.0,0.0,0.0,0.0,0.0,0.0,0.0,0.0,0.0,0.0,0.0,0.0,0.0,0.0,0.0,0.0,0.0,0.0,0.0,0.1813,0.1926,0.1985,0.1978,0.1894,0.1887,0.1816,0.0,0.0,0.0,0.0,0.0,0.0,0.0,0.0,0.0,0.0,0.0,0.0,0.0,0.0,0.0,0.0,0.0,0.0,0.0,0.0,0.0,0.0,0.0,0.0,0.0,0.0,0.0,0.0,0.0,0.0,0.0,0.0,0.0,0.0,0.0,0.0,0.0,0.0,0.0,0.0,0.0,0.0,0.0,0.0,0.0,0.0,0.0,0.0,0.0,0.0,0.0,0.0,0.0,0.0,0.0,0.0,0.0,0.0,0.0,0.0,0.0,0.0,0.0,0.0,0.0,0.0,0.0,0.0,0.0,0.0,0.0,0.0,0.0,0.0,0.0,0.0,0.0,0.0,0.0,0.0,0.0,0.0,0.0,0.0,0.0,0.0,0.0,0.0,0.0,0.0,0.0,0.0,0.0,0.0,0.0,0.0,0.0,0.0,0.0,0.0,0.0,0.0,0.0,0.0,0.0,0.0,0.0,0.0,0.0,0.1963,0.1999,0.2026,0.2035,0.1919,0.1843,0.0,0.0,0.0,0.0,0.0,0.0,0.0,0.0,0.0,0.0,0.0,0.0,0.0,0.0,0.0,0.0,0.0,0.0,0.0,0.0,0.0,0.0,0.0,0.0,0.0,0.0,0.0,0.0,0.0,0.0,0.0,0.0,0.0,0.0,0.0,0.0,0.0,0.0,0.0,0.0,0.0,0.0,0.0,0.0,0.0,0.0,0.0,0.0,0.0,0.0,0.0,0.0,0.0,0.0,0.0,0.0,0.0,0.0,0.0,0.0,0.0,0.0,0.0,0.0,0.0,0.0,0.0,0.0,0.0,0.0,0.0,0.0,0.0,0.0,0.0,0.0,0.0,0.0,0.0,0.0,0.0,0.0,0.0,0.0,0.0,0.0,0.0,0.0,0.0,0.0,0.0,0.0,0.0,0.0,0.0,0.0,0.0,0.0,0.0,0.0,0.0,0.0,0.0,0.0,0.0,0.0,0.0,0.0,0.0,0.2412,0.2283,0.2154,0.2159,0.2007,0.1906,0.1868,0.0,0.0,0.0,0.0,0.0,0.0,0.0,0.0,0.0,0.0,0.0,0.0,0.0,0.0,0.0,0.0,0.0,0.0,0.0,0.0,0.0,0.0,0.0,0.0,0.0,0.0,0.0,0.0,0.0,0.0,0.0,0.0,0.0,0.0,0.0,0.0,0.0,0.0,0.0,0.0,0.0,0.0,0.0,0.0,0.0,0.0,0.0,0.0,0.0,0.0,0.0,0.0,0.0,0.0,0.0,0.0,0.0,0.0,0.0,0.0,0.0,0.0,0.0,0.0,0.0,0.0,0.0,0.0,0.0,0.0,0.0,0.0,0.0,0.0,0.0,0.0,0.0,0.0,0.0,0.0,0.0,0.0,0.0,0.0,0.0,0.0,0.0,0.0,0.0,0.0,0.0,0.0,0.0,0.0,0.0,0.0,0.0,0.0,0.0,0.0,0.0,0.0,0.0,0.0,0.0,0.0,0.0,0.0,0.3195,0.2716,0.2506,0.2266,0.2139,0.2003,0.0,0.0,0.0,0.0,0.0,0.0,0.0,0.0,0.0,0.0,0.0,0.0,0.0,0.0,0.0,0.0,0.0,0.0,0.0,0.0,0.0,0.0,0.0,0.0,0.0,0.0,0.0,0.0,0.0,0.0,0.0,0.0,0.0,0.0,0.0,0.0,0.0,0.0,0.0,0.0,0.0,0.0,0.0,0.0,0.0,0.0,0.0,0.0,0.0,0.0,0.0,0.0,0.0,0.0,0.0,0.0,0.0,0.0,0.0,0.0,0.0,0.0,0.0,0.0,0.0,0.0,0.0,0.0,0.0,0.0,0.0,0.0,0.0,0.0,0.0,0.0,0.0,0.0,0.0,0.0,0.0,0.0,0.0,0.0,0.0,0.0,0.0,0.0,0.0,0.0,0.0,0.0,0.0,0.0,0.0,0.0,0.0,0.0,0.0,0.0,0.0,0.0,0.0,0.0,0.0,0.0,0.0,0.0,0.0,0.3392,0.3668,0.3623,0.3098,0.2416,0.2114,0.0,0.0,0.0,0.0,0.0,0.0,0.0,0.0,0.0,0.0,0.0,0.0,0.0,0.0,0.0,0.0,0.0,0.0,0.0,0.0,0.0,0.0,0.0,0.0,0.0,0.0,0.0,0.0,0.0,0.0,0.0,0.0,0.0,0.0,0.0,0.0,0.0,0.0,0.0,0.0,0.0,0.0,0.0,0.0,0.0,0.0,0.0,0.0,0.0,0.0,0.0,0.0,0.0,0.0,0.0,0.0,0.0,0.0,0.0,0.0,0.0,0.0,0.0,0.0,0.0,0.0,0.0,0.0,0.0,0.0,0.0,0.0,0.0,0.0,0.0,0.0,0.0,0.0,0.0,0.0,0.0,0.0,0.0,0.0,0.0,0.0,0.0,0.0,0.0,0.0,0.0,0.0,0.0,0.0,0.0,0.0,0.0,0.0,0.0,0.0,0.0,0.0,0.0,0.0,0.0,0.0,0.0,0.0,0.366,0.425,0.4615,0.4457,0.3778,0.3094,0.2406,0.0,0.0,0.0,0.0,0.0,0.0,0.0,0.0,0.0,0.0,0.0,0.0,0.0,0.0,0.0,0.0,0.0,0.0,0.0,0.0,0.0,0.0,0.0,0.0,0.0,0.0,0.0,0.0,0.0,0.0,0.0,0.0,0.0,0.0,0.0,0.0,0.0,0.0,0.0,0.0,0.0,0.0,0.0,0.0,0.0,0.0,0.0,0.0,0.0,0.0,0.0,0.0,0.0,0.0,0.0,0.0,0.0,0.0,0.0,0.0,0.0,0.0,0.0,0.0,0.0,0.0,0.0,0.0,0.0,0.0,0.0,0.0,0.0,0.0,0.0,0.0,0.0,0.0,0.0,0.0,0.0,0.0,0.0,0.0,0.0,0.0,0.0,0.0,0.0,0.0,0.0,0.0,0.0,0.0,0.0,0.0,0.0,0.0,0.0,0.0,0.0,0.0,0.0,0.0,0.0,0.0,0.0,0.0,0.4447,0.5142,0.5362,0.5282,0.4695,0.3877,0.2885,0.0,0.0,0.0,0.0,0.0,0.0,0.0,0.0,0.0,0.0,0.0,0.0,0.0,0.0,0.0,0.0,0.0,0.0,0.0,0.0,0.0,0.0,0.0,0.0,0.0,0.0,0.0,0.0,0.0,0.0,0.0,0.0,0.0,0.0,0.0,0.0,0.0,0.0,0.0,0.0,0.0,0.0,0.0,0.0,0.0,0.0,0.0,0.0,0.0,0.0,0.0,0.0,0.0,0.0,0.0,0.0,0.0,0.0,0.0,0.0,0.0,0.0,0.0,0.0,0.0,0.0,0.0,0.0,0.0,0.0,0.0,0.0,0.0,0.0,0.0,0.0,0.0,0.0,0.0,0.0,0.0,0.0,0.0,0.0,0.0,0.0,0.0,0.0,0.0,0.0,0.0,0.0,0.0,0.0,0.0,0.0,0.0,0.0,0.0,0.0,0.0,0.0,0.0,0.0,0.0,0.0,0.0,0.0,0.4843,0.5308,0.5718,0.5812,0.5385,0.4168,0.3164,0.0,0.0,0.0,0.0,0.0,0.0,0.0,0.0,0.0,0.0,0.0,0.0,0.0,0.0,0.0,0.0,0.0,0.0,0.0,0.0,0.0,0.0,0.0,0.0,0.0,0.0,0.0,0.0,0.0,0.0,0.0,0.0,0.0,0.0,0.0,0.0,0.0,0.0,0.0,0.0,0.0,0.0,0.0,0.0,0.0,0.0,0.0,0.0,-0.1832,0.0,0.0,0.0,0.0,0.0,0.0,0.0,0.0,0.0,0.0,0.0,0.0,0.0,0.0,0.0,0.0,0.0,0.0,0.0,0.0,0.0,0.0,0.0,0.0,0.0,0.0,0.0,0.0,0.0,0.0,0.0,0.0,0.0,0.0,0.0,0.0,0.0,0.0,0.0,0.0,0.0,0.0,0.0,0.0,0.0,0.0,0.0,0.0,0.0,0.0,0.0,0.0,0.0,0.0,0.0,0.0,0.0,0.0,0.0,0.5154,0.5659,0.6226,0.6098,0.5444,0.4724,0.3848,0.0,0.0,0.0,0.0,0.0,0.0,0.0,0.0,0.0,0.0,0.0,0.0,0.0,0.0,0.0,0.0,0.0,0.0,0.0,0.0,0.0,0.0,0.0,0.0,0.0,0.0,0.0,0.0,0.0,0.0,0.0,0.0,0.0,0.0,0.0,0.0,0.0,0.0,0.0,0.0,0.0,0.0,0.0,0.0,0.0,0.0,0.0,0.0,0.0,0.0,0.0,0.0,0.0,0.0,0.0,0.0,0.0,0.0,0.0,0.0,0.0,0.0,0.0,0.0,0.0,0.0,0.0,0.0,0.0,0.0,0.0,0.0,0.0,0.0,0.0,0.0,0.0,0.0,0.0,0.0,0.0,0.0,0.0,0.0,0.0,0.0,0.0,0.0,0.0,0.0,0.0,0.0,0.0,0.0,0.0,0.0,0.0,0.0,0.0,0.0,0.0,0.0,0.0,0.0,0.0,0.0,0.0,0.4885,0.5432,0.6199,0.6335,0.6164,0.57,0.549,0.4573,0.3115,0.0,0.0,0.0,0.0,0.0,0.0,0.0,0.0,0.0,0.0,0.0,0.0,0.0,0.0,0.0,0.0,0.0,0.0,0.0,0.0,0.0,0.0,0.0,0.0,0.0,0.0,0.0,0.0,0.0,0.0,0.0,0.0,0.0,0.0,0.0,0.0,0.0,0.0,-0.523,-0.4293,0.0,0.0,0.0,0.0,0.0,0.0,0.0,0.0,-0.1937,0.0,0.0,0.0,0.0,0.0,0.0,0.0,0.0,0.0,0.0,0.0,0.0,0.0,0.0,0.0,0.0,0.0,0.0,0.0,0.0,0.0,0.0,0.0,0.0,0.0,0.0,0.0,0.0,0.0,0.0,0.0,0.0,0.0,0.0,0.0,0.0,0.0,0.0,0.0,0.0,0.0,0.0,0.0,0.0,0.0,0.0,0.0,0.0,0.0,0.0,0.0,0.0,0.0,0.0,0.0,0.0,0.4804,0.5227,0.5916,0.633,0.6461,0.6469,0.6156,0.555,0.4996,0.4314,0.0,0.0,0.0,0.0,0.0,0.0,0.0,0.0,0.0,0.0,0.0,0.0,0.0,0.0,0.0,0.0,0.0,0.0,0.0,0.0,0.0,0.0,0.0,0.0,0.0,0.0,0.0,0.0,0.0,0.0,0.0,0.0,0.0,0.0,0.0,0.0,0.0,0.0,0.0,-0.3101,-0.2381,0.0,0.0,0.0,0.0,0.0,0.0,0.0,0.0,-0.1929,0.0,0.0,0.0,0.0,0.0,0.0,0.0,0.0,0.0,0.0,0.0,0.0,0.0,0.0,0.0,0.0,0.0,0.0,0.0,0.0,0.0,0.0,0.0,0.0,0.0,0.0,0.0,0.0,0.0,0.0,0.0,0.0,0.0,0.0,0.0,0.0,0.0,0.0,0.0,0.0,0.0,0.0,0.0,0.0,0.0,0.0,0.0,0.0,0.0,0.0,0.0,0.0,0.0,0.0,0.0,0.4995,0.5575,0.6117,0.6409,0.6534,0.6523,0.6371,0.5916,0.5342,0.0,0.0,0.0,0.0,0.0,0.0,0.0,0.0,0.0,0.0,0.0,0.0,0.0,0.0,0.0,0.0,0.0,0.0,0.0,0.0,0.0,0.0,0.0,0.0,0.0,0.0,0.0,0.0,0.0,0.0,0.0,0.0,0.0,0.0,0.0,0.0,0.0,0.0,0.0,0.0,-0.3359,-0.2884,-0.2794,0.0,0.0,0.0,0.0,0.0,0.0,-0.1828,-0.1941,0.0,0.0,0.0,0.0,0.0,0.0,0.0,0.0,0.0,0.0,0.0,0.0,0.0,0.0,0.0,0.0,0.0,0.0,0.0,0.0,0.0,0.0,0.0,0.0,0.0,0.0,0.0,0.0,0.0,0.0,0.0,0.0,0.0,0.0,0.0,0.0,0.0,0.0,0.0,0.0,0.0,0.0,0.0,0.0,0.0,0.0,0.0,0.0,0.0,0.0,0.0,0.0,0.0,0.0,0.0,0.5349,0.5891,0.6278,0.6488,0.6586,0.6561,0.6409,0.6104,0.5509,0.0,0.0,0.0,0.0,0.0,0.0,0.0,0.0,0.0,0.0,0.0,0.0,0.0,0.0,0.0,0.0,0.0,0.0,0.0,0.0,0.0,0.0,0.0,0.0,0.0,0.0,0.0,0.0,0.0,0.0,0.0,0.0,0.0,0.0,0.0,0.0,0.0,0.0,0.0,0.0,0.0,-0.3684,-0.318,-0.2516,0.0,0.0,0.0,0.0,-0.1744,-0.1503,0.0,0.0,0.0,0.0,0.0,0.0,0.0,0.0,0.0,0.0,0.0,0.0,0.0,0.0,0.0,0.0,0.0,0.0,0.0,0.0,0.0,0.0,0.0,0.0,0.0,0.0,0.0,0.0,0.0,0.0,0.0,0.0,0.0,0.0,0.0,0.0,0.0,0.0,0.0,0.0,0.0,0.0,0.0,0.0,0.0,0.0,0.0,0.0,0.0,0.0,0.0,0.0,0.0,0.0,0.0,0.0,0.5518,0.591,0.6273,0.6597,0.663,0.6602,0.6529,0.6188,0.5567,0.0,0.0,0.0,0.0,0.0,0.0,0.0,0.0,0.0,0.0,0.0,0.0,0.0,0.0,0.0,0.0,0.0,0.0,0.0,0.0,0.0,0.0,0.0,0.0,0.0,0.0,0.0,0.0,0.0,0.0,0.0,0.0,0.0,0.0,0.0,0.0,0.0,0.0,0.0,0.0,0.0,-0.407,-0.2702,-0.2336,-0.2136,0.0,0.0,-0.1634,-0.1102,-0.0563,0.0,0.0,0.0,0.0,0.0,0.0,0.0,0.0,0.0,0.0,0.0,0.0,0.0,0.0,0.0,0.0,0.0,0.0,0.0,0.0,0.0,0.0,0.0,0.0,0.0,0.0,0.0,0.0,0.0,0.0,0.0,0.0,0.0,0.0,0.0,0.0,0.0,0.0,0.0,0.0,0.0,0.0,0.0,0.0,0.0,0.0,0.0,0.0,0.0,0.0,0.0,0.0,0.0,0.0,0.0,0.5437,0.5515,0.6068,0.6431,0.6586,0.6687,0.6679,0.6553,0.6169,0.5722,0.0,0.0,0.0,0.0,0.0,0.0,0.0,0.0,0.0,0.0,0.0,0.0,0.0,0.0,0.0,0.0,0.0,0.0,0.0,0.0,0.0,0.0,0.0,0.0,0.0,0.0,0.0,0.0,0.0,0.0,0.0,0.0,0.0,0.0,0.0,0.0,0.0,0.0,0.0,0.0,0.0,0.0,-0.3246,-0.2768,0.0,0.0,0.0,-0.1721,-0.1563,0.0,0.0,0.0,0.0,0.0,0.0,0.0,0.0,0.0,0.0,0.0,0.0,0.0,0.0,0.0,0.0,0.0,0.0,0.0,0.0,0.0,0.0,0.0,0.0,0.0,0.0,0.0,0.0,0.0,0.0,0.0,0.0,0.0,0.0,0.0,0.0,0.0,0.0,0.0,0.0,0.0,0.0,0.0,0.0,0.0,0.0,0.0,0.0,0.0,0.0,0.0,0.0,0.0,0.0,0.0,0.0,0.0,0.5548,0.6207,0.6572,0.6619,0.6717,0.6709,0.6572,0.6166,0.0,0.0,0.0,0.0,0.0,0.0,0.0,0.0,0.0,0.0,0.0,0.0,0.0,0.0,0.0,0.0,0.0,0.0,0.0,0.0,0.0,0.0,0.0,0.0,0.0,0.0,0.0,0.0,0.0,0.0,0.0,0.0,0.0,0.0,0.0,0.0,0.0,0.0,0.0,0.0,0.0,0.0,-0.2394,-0.3048,-0.2604,-0.2141,0.0,0.0,-0.1963,-0.2088,-0.0916,-0.0453,0.0,0.0,0.0,0.0,0.0,0.0,0.0,0.0,0.0,0.0,0.0,0.0,0.0,0.0,0.0,0.0,0.0,0.0,0.0,0.0,0.0,0.0,0.0,0.0,0.0,0.0,0.0,0.0,0.0,0.0,0.0,0.0,0.0,0.0,0.0,0.0,0.0,0.0,0.0,0.0,0.0,0.0,0.0,0.0,0.0,0.0,0.0,0.0,0.0,0.0,0.0,0.0,0.0,0.0,0.0,0.5725,0.627,0.6632,0.679,0.67,0.6643,0.6624,0.6226,0.5755,0.0,0.0,0.0,0.0,0.0,0.0,0.0,0.0,0.0,0.0,0.0,0.0,0.0,0.0,0.0,0.0,0.0,0.0,0.0,0.0,0.0,0.0,0.0,0.0,0.0,0.0,0.0,0.0,0.0,0.0,0.0,0.0,0.0,0.0,0.0,0.0,0.0,0.0,0.0,0.0,0.0,-0.2109,-0.1403,-0.1266,-0.1445,0.0,-0.1775,-0.2245,-0.229,-0.0995,-0.0485,-0.174,0.0,0.0,0.0,0.0,0.0,0.0,0.0,0.0,0.0,0.0,0.0,0.0,0.0,0.0,0.0,0.0,0.0,0.0,0.0,0.0,0.0,0.0,0.0,0.0,0.0,0.0,0.0,0.0,0.0,0.0,0.0,0.0,0.0,0.0,0.0,0.0,0.0,0.0,0.0,0.0,0.0,0.0,0.0,0.0,0.0,0.0,0.0,0.0,0.0,0.0,0.0,0.0,0.0,0.5596,0.5684,0.6256,0.6621,0.6755,0.6752,0.6711,0.6638,0.63,0.585,0.0,0.0,0.0,0.0,0.0,0.0,0.0,0.0,0.0,0.0,0.0,0.0,0.0,0.0,0.0,0.0,0.0,0.0,0.0,0.0,0.0,0.0,0.0,0.0,0.0,0.0,0.0,0.0,-0.0319,-0.0864,-0.1408,0.0,0.0,0.0,0.0,0.0,0.0,0.0,0.0,0.0,0.0,-0.1106,-0.1813,-0.1171,0.0,0.0,-0.0671,-0.0835,-0.0836,-0.0332,-0.0161,-0.0743,-0.1396,0.0,0.0,0.0,0.0,0.0,0.0,0.0,0.0,0.0,0.0,0.0,0.0,0.0,0.0,0.0,0.0,0.0,0.0,0.0,0.0,0.0,0.0,0.0,0.0,0.0,0.0,0.0,0.0,0.0,0.0,0.0,0.0,0.0,0.0,0.0,0.0,0.0,0.0,0.0,0.0,0.0,0.0,0.0,0.0,0.0,0.0,0.0,0.0,0.0,0.0,0.0,0.0,0.5596,0.5649,0.6262,0.6627,0.6725,0.6769,0.6741,0.6635,0.6363,0.5959,0.0,0.0,0.0,0.0,0.0,0.0,0.0,0.0,0.0,0.0,0.0,0.0,0.0,0.0,0.0,0.0,0.0,0.0,0.0,0.0,0.0,0.0,0.0,0.0,0.0,0.0,0.0,0.0,-0.0222,-0.089,-0.1415,0.0,0.0,0.0,0.0,0.0,0.0,0.0,0.0,0.0,0.0,-0.0658,-0.0851,0.0,0.0694,0.0,0.0,0.0,0.0,0.0,0.0,0.0,0.0,0.0,0.0,0.0,0.0,0.0,0.0,0.0,0.0,0.0,0.0,0.0,0.0,0.0,0.0,0.0,0.0,0.0,0.0,0.0,0.0,0.0,0.0,0.0,0.0,0.0,0.0,0.5586,0.0,0.0,0.4577,0.0,0.0,0.0,0.0,0.0,0.0,0.0,0.0,0.0,0.0,0.0,0.0,0.0,0.0,0.0,0.0,0.0,0.0,0.0,0.0,0.0,0.0,0.568,0.5654,0.6297,0.6662,0.6725,0.6728,0.6703,0.6635,0.6403,0.6076,0.5643,0.0,0.0,0.0,0.0,0.0,0.0,0.0,0.0,0.0,0.0,0.0,0.0,0.0,0.0,0.0,0.0,0.0,0.0,0.0,0.0,0.0,0.0,0.0,0.0,0.0,0.0,0.1639,0.0666,-0.0222,0.0,0.0,0.0,0.0,0.0,0.0,0.0,0.0,0.0,-0.2059,-0.2079,-0.0845,0.2051,0.2592,0.1916,0.0348,0.0,0.0,0.0,0.0,0.0,0.0,0.0,0.0,0.0,0.0,0.0,0.0,0.0,0.0,0.0,0.0,0.0,0.0,0.0,0.0,0.0,0.0,0.0,0.0,0.0,0.0,0.0,0.0,0.0,0.0,0.0,0.0,0.6936,0.6637,0.0,0.0,0.0,0.0,0.0,0.0,0.0,0.0,0.0,0.0,0.0,0.5179,0.5364,0.0,0.0,0.0,0.0,0.0,0.0,0.0,0.0,0.0,0.0,0.0,0.0,0.5622,0.5714,0.6284,0.6627,0.6725,0.6766,0.6758,0.6695,0.6504,0.609,0.5433,0.0,0.0,0.0,0.0,0.0,0.0,0.0,0.0,0.0,0.0,0.0,0.0,0.0,0.0,0.0,0.0,0.0,0.0,0.0,0.0,0.0,0.0,0.0,0.0,0.0,0.1437,0.0,0.0,0.0,0.0,0.0,0.0,0.0,0.0,0.0,0.0,0.0,-0.1728,-0.2034,-0.0165,0.1718,0.2643,0.2675,0.2521,0.0,0.0,0.0,0.0,0.0,0.0,0.0,0.0,0.0,0.0,0.0,0.0,0.0,0.0,-0.1583,-0.2063,-0.2189,-0.2349,-0.2457,0.0,0.0,0.0,0.0,0.0,0.0,0.0,0.0,0.0,0.0,0.0,0.0,0.0,0.0,0.7773,0.769,0.7069,0.0,0.0,0.0,0.0,0.0,0.0,0.0,0.0,0.4917,0.5703,0.6287,0.6638,0.6742,0.0,0.6432,0.5919,0.0,0.0,0.0,0.0,0.0,0.0,0.0,0.0,0.5657,0.5744,0.6294,0.6619,0.6695,0.6777,0.6779,0.6695,0.6482,0.6087,0.5499,0.5115,0.4747,0.0,0.0,0.0,0.0,0.0,0.0,0.0,0.0,0.0,0.0,0.0,0.0,0.0,0.0,0.0,0.0,0.0,0.0,0.0,0.0,0.0,0.0,0.0,0.1507,0.0,0.0,0.0,0.0,0.0,0.0,0.0,0.0,0.0,-0.1238,-0.16,-0.1858,-0.2149,0.086,0.3004,0.2855,0.0,0.0,0.0,0.0,0.0,0.0,0.0,0.0,0.0,0.0,-0.016,-0.064,-0.0649,-0.065,-0.0953,0.0,0.0,-0.1987,-0.2119,-0.229,-0.2567,-0.2644,-0.3009,-0.4347,-0.5346,-0.6058,0.0,0.0,0.0,0.0,0.0,0.0,0.0,0.0,0.8992,0.8736,0.0,0.8105,0.0,0.0,0.0,0.0,0.4024,0.4243,0.0,0.0,0.6257,0.7162,0.7162,0.7807,0.808,0.7982,0.7804,0.7574,0.7131,0.5612,0.0,0.0,0.0,0.0,0.0,0.0,0.579,0.576,0.6335,0.6635,0.664,0.6755,0.676,0.6635,0.6352,0.6087,0.5842,0.5551,0.5229,0.5024,0.3906,0.0,0.0,0.0,0.0,0.0,0.0,0.0,0.0,0.0,0.0,0.0,0.0,0.0,0.0,0.0,0.0,0.0,0.0,0.0,0.0,0.1839,0.0,0.0,0.0,0.0,0.0,0.0,0.0,0.0,0.0,0.0,0.015,-0.1111,-0.2012,-0.2078,0.0,0.0,0.0,0.0,0.2539,0.1602,0.2108,0.2103,0.0354,0.0,0.0,0.0,0.0,0.0,0.0,0.0,-0.0171,-0.0836,-0.1026,-0.1197,-0.1603,-0.2037,-0.2493,-0.2518,-0.2709,-0.3222,-0.4234,-0.5308,-0.6398,1.011,0.0,0.0,0.0,0.0,0.9648,1.0072,1.1476,1.169,1.1149,1.0187,0.9787,0.0,0.0,0.0,0.0,0.0,0.0,0.5382,0.5025,0.6324,0.7331,0.8009,0.8857,0.931,0.9207,0.9151,0.8675,0.7974,0.7631,0.6684,0.4897,0.0,0.0,0.0,0.0,0.6292,0.7048,0.7595,0.788,0.7673,0.8016,0.7601,0.6638,0.6431,0.6226,0.6218,0.5818,0.571,0.5506,0.4583,0.0,0.0,0.0,0.0,0.0,0.0,0.0,0.0,0.0,0.0,0.0,0.0,0.0,0.0,0.0,0.0,0.0,0.0,0.0,0.1956,0.2029,0.2034,0.0,0.0,0.0,0.0,0.0,0.0,0.0,0.0,0.0,0.2204,0.0675,-0.017,0.0,0.0,0.2168,0.2864,0.293,0.2796,0.2614,0.149,0.0,0.2053,0.0922,0.0,0.0,0.0,0.0,0.0,0.0,-0.0,0.0,-0.037,-0.037,-0.0545,-0.1762,-0.2758,-0.2917,-0.2952,-0.3165,-0.406,-0.4639,-0.5221,1.213,1.1439,1.1164,1.1418,1.1747,1.1152,1.1584,1.2827,1.3269,1.2862,1.167,1.1089,1.0699,1.0228,0.9125,0.0,0.0,0.0,0.6274,0.6262,0.7181,0.8354,0.9787,1.0318,1.0636,1.057,1.0524,1.0086,0.9274,0.9361,0.8585,0.679,0.0,0.0,0.4976,0.5738,0.6659,0.7555,0.7841,0.8087,0.85,0.8173,0.7546,0.6635,0.6463,0.6308,0.6367,0.6022,0.5793,0.5827,0.5055,0.4421,0.0,0.0,0.0,0.0,0.0,0.0,0.0,0.0,0.0,0.0,0.0,0.1778,0.1696,0.0,0.0,0.0,0.196,0.2044,0.208,0.2143,0.0,0.0,0.0,0.0,0.0,0.0,0.0,0.0,0.1805,0.3087,0.3233,0.1959,0.1246,0.1645,0.2028,0.2403,0.2946,0.0,0.3067,0.3085,0.1549,0.0776,0.1746,0.0771,0.0,0.0,0.0,0.0,0.0,0.0,0.0,0.0,0.0,0.0,0.0,-0.1324,-0.2596,-0.2927,-0.2954,-0.3172,-0.392,-0.4326,-0.4736,1.3965,1.3739,1.288,1.2579,1.2808,1.272,1.3075,1.3899,1.4295,1.3816,1.2964,1.2351,1.1848,1.1318,1.014,0.0,0.6888,0.7034,0.7259,0.7728,0.8525,0.989,1.183,1.1819,1.1819,1.1813,1.1705,1.1469,1.1092,1.089,1.0329,0.9265,0.7161,0.593,0.5505,0.6018,0.6854,0.783,0.7864,0.829,0.9128,0.809,0.7256,0.6619,0.6458,0.6341,0.6468,0.6164,0.6,0.5948,0.5309,0.4517,0.3761,0.0,0.0,0.0,0.0,0.0,0.0,0.0,0.0,0.0,0.0,0.0,0.0,0.0,0.0,0.0,0.2169,0.0,0.2263,0.2289,0.0,0.0,0.0,0.1174,0.0305,0.158,0.1798,0.0338,0.0,0.0,0.3113,0.3171,0.228,0.0388,0.1746,0.3089,0.3063,0.311,0.315,0.3155,0.2185,0.0999,0.0,0.0,0.0,0.0,0.0,0.0,0.0,0.0,0.0,0.0,0.0,0.0,0.0,-0.0982,-0.1957,-0.2882,-0.3081,-0.3291,-0.3673,-0.4084,-0.4497,1.4538,1.4664,1.449,1.4263,1.4028,1.3905,1.4024,1.4516,1.4914,1.4653,1.4055,1.376,1.3343,1.2637,1.2209,1.1169,0.9802,0.9582,0.9195,0.8803,0.956,1.0499,1.1263,1.1635,1.2002,1.2358,1.1969,1.1775,1.1593,1.1534,1.1066,1.004,1.0228,0.9061,0.6795,0.6326,0.7132,0.9148,0.9271,0.97,1.0457,0.8532,0.742,0.711,0.6617,0.6519,0.6409,0.6376,0.6098,0.6137,0.5703,0.5102,0.4367,0.3646,0.0,0.0,0.0,0.0,0.0,0.0,0.0,0.0,0.0,0.1959,0.1839,0.0,0.2082,0.0,0.2279,0.2391,0.2413,0.2423,0.0,0.0,0.2496,0.239,0.2179,0.2053,0.1574,0.1082,0.2203,0.3184,0.3272,0.3103,0.2748,0.1811,0.1774,0.2326,0.2924,0.3172,0.3219,0.3039,0.2248,0.1233,0.0,0.0,0.0,0.0,0.0,0.0,0.0,0.0,0.0,0.0,0.0,0.0,0.0,-0.0803,-0.2004,-0.2991,-0.316,-0.3133,-0.3327,-0.353,-0.3535,1.5472,1.5646,1.573,1.58,1.5561,1.5053,1.4855,1.4923,1.516,1.509,1.4706,1.4468,1.4142,1.3539,1.3084,1.2292,1.0962,1.0475,1.0193,0.9737,1.0525,1.1299,1.2053,1.2483,1.2858,1.28,1.2671,1.2267,1.1982,1.2218,1.202,1.1207,1.1657,1.087,0.8893,0.8024,0.8178,0.9403,1.0318,1.0557,1.0487,0.8954,0.8004,0.7224,0.6928,0.6612,0.6456,0.6235,0.5962,0.5818,0.566,0.5293,0.4406,0.3752,0.3215,0.0,0.0,0.0,0.0,0.0,0.0,0.0,0.0,0.0,0.0,0.0,0.2233,0.229,0.2446,0.2551,0.2567,0.2593,0.2634,0.2694,0.2881,0.294,0.289,0.2564,0.2229,0.2087,0.2685,0.3107,0.3156,0.3186,0.3018,0.2656,0.2624,0.2602,0.302,0.3262,0.3298,0.3315,0.2297,0.1258,0.0209,0.0,0.0,0.0,0.0,0.0,0.0,0.0,0.0,0.0,0.0,0.0,0.0,-0.0404,-0.1414,-0.2825,-0.3206,-0.3186,-0.3182,-0.3182,-0.3182,1.6182,1.6437,1.643,1.6809,1.7158,1.592,1.543,1.5423,1.53,1.5245,1.5045,1.4875,1.4624,1.4087,1.3701,1.2662,1.147,1.1101,1.0785,1.0892,1.1554,1.2368,1.3339,1.3837,1.3831,1.3345,1.3444,1.2995,1.2416,1.2898,1.2944,1.2549,1.2154,1.1625,1.0935,1.0016,0.9658,0.9653,1.1001,1.1221,1.0249,0.9545,0.8557,0.7329,0.7197,0.6657,0.6291,0.5853,0.5747,0.5591,0.5521,0.5053,0.4046,0.3661,0.319,0.0,0.212,0.0,0.0,0.0,0.0,0.0,0.0,0.0,0.0,0.2342,0.242,0.2502,0.2635,0.272,0.2732,0.2781,0.2836,0.2896,0.2924,0.2973,0.3058,0.3093,0.3122,0.3156,0.3183,0.3201,0.3208,0.325,0.3281,0.3291,0.3307,0.3318,0.3332,0.3347,0.3362,0.3371,0.2333,0.1061,0.0,0.0,0.0,0.0,0.0,0.0,0.0,0.0,0.0,0.0,0.0,0.0,0.0,0.0,0.0,-0.2234,-0.284,-0.324,-0.323,-0.3225,-0.3231,1.6736,1.66,1.6984,1.7299,1.718,1.732,1.6906,1.6117,1.5698,1.5493,1.5493,1.5221,1.5167,1.508,1.4397,1.3858,1.3418,1.2853,1.2543,1.2272,1.2676,1.3268,1.3855,1.4067,1.4261,1.4435,1.4067,1.3861,1.3813,1.3837,1.3608,1.2932,1.2538,1.1776,1.1027,0.0,0.0,0.0,1.172,1.1778,1.0684,0.9982,0.917,0.827,0.722,0.0,0.585,0.5788,0.5562,0.5528,0.5602,0.0,0.0,0.0,0.0,0.0,0.0,0.0,0.0,0.0,0.0,0.0,0.2476,0.2455,0.2433,0.257,0.2679,0.2721,0.2795,0.287,0.2939,0.2957,0.2988,0.3047,0.3061,0.3089,0.3155,0.3168,0.3191,0.3243,0.3255,0.3268,0.329,0.3306,0.3321,0.3341,0.3354,0.3369,0.339,0.3377,0.3377,0.3185,0.1704,0.0425,0.0,0.0,0.0,0.0,0.0,0.0,0.0,0.0,0.0,0.0,0.0,0.0,0.0,0.0,0.0,0.0,-0.2064,-0.329,-0.3243,-0.3232,-0.3238,1.7019,1.7151,1.7735,1.8082,0.0,1.8411,1.802,1.7013,1.6465,1.6015,1.5628,1.5479,1.5452,1.552,1.4865,1.4489,1.3975,1.3789,1.3251,1.2536,1.3561,1.4372,1.4384,1.4839,1.5028,1.4964,1.4839,1.4409,1.4091,1.4347,1.4146,1.3309,1.3303,1.2775,1.191,1.2884,1.2829,1.192,1.224,1.1856,1.0772,1.047,0.9436,0.7931,0.7433,0.0,0.0,0.0,0.0,0.0,0.0,0.0,0.0,0.0,0.0,0.3089,0.2688,0.25,0.2532,0.2719,0.2943,0.2707,0.2769,0.2758,0.2656,0.2784,0.2883,0.2913,0.2958,0.3009,0.3066,0.3074,0.3092,0.3137,0.3155,0.3182,0.3224,0.3245,0.3265,0.3291,0.3298,0.3305,0.3318,0.3336,0.3348,0.3365,0.338,0.3395,0.3407,0.3399,0.3396,0.341,0.1492,0.0,0.0,0.0,0.0,0.0,0.0,0.0,0.0,0.0,0.0,0.0,0.0,0.0,0.0,0.0,0.0,0.0,-0.1867,-0.3314,-0.3283,-0.3276,-0.3279,1.7149,1.7754,1.8352,1.8749,1.9354,1.9354,1.8734,1.7886,1.6977,0.0,0.0,1.5662,1.5655,1.5676,1.5261,1.468,1.431,1.431,1.3739,1.2792,1.4459,1.5106,1.4928,1.5632,1.5817,1.5309,1.542,1.5164,1.4555,1.5054,1.4718,1.3923,1.3917,1.3655,1.3096,1.3314,1.3385,1.3308,1.2964,1.2161,1.0887,1.0794,0.9755,0.7456,0.7519,0.6977,0.6052,0.5755,0.567,0.561,0.5564,0.5362,0.4829,0.4282,0.3938,0.3449,0.3086,0.2746,0.2776,0.3175,0.3406,0.3092,0.3202,0.3208,0.3066,0.2972,0.3044,0.3074,0.3103,0.3133,0.3163,0.3172,0.3185,0.3209,0.3232,0.3257,0.328,0.3305,0.332,0.3328,0.3329,0.3332,0.334,0.336,0.3374,0.3378,0.3396,0.3415,0.3418,0.3202,0.2986,0.3207,0.0,0.0,0.0,0.0,0.0,0.0,0.0,0.0,0.0,0.0,0.0,0.0,0.0,0.0,0.0,0.0,0.0,0.0,-0.1877,-0.3337,-0.3337,-0.3336,-0.3126,1.7277,1.748,1.8503,1.8909,1.9111,1.9517,1.9227,1.8452,1.6736,1.6096,1.6001,1.575,1.571,1.5818,1.5689,1.5321,1.5041,1.5048,1.4515,1.3813,1.4837,1.5248,1.5049,1.5671,1.6069,1.6049,1.6069,1.5864,1.5823,1.5844,1.5652,1.5049,1.4446,1.3776,1.3416,1.3352,1.3466,1.3548,1.3466,1.2538,1.079,1.0692,0.9895,0.8445,0.7575,0.7074,0.7113,0.6293,0.5856,0.5798,0.5785,0.5578,0.4994,0.4668,0.4134,0.357,0.3052,0.2898,0.2927,0.3121,0.3349,0.3631,0.3909,0.3919,0.3834,0.3292,0.3137,0.3165,0.3193,0.3224,0.3254,0.3276,0.329,0.3298,0.3305,0.331,0.3314,0.3321,0.3335,0.3358,0.336,0.337,0.339,0.34,0.3403,0.3405,0.3407,0.342,0.3223,0.2571,0.2355,0.2795,0.15,0.0,0.0,0.0,0.0,0.0,0.0,0.0,0.0,0.0,0.0,0.0,0.0,0.0,0.0,0.0,0.0,0.0,-0.1907,-0.3393,-0.3392,-0.2968,-0.2752,1.7953,1.836,1.8775,1.9182,1.9386,1.9378,1.9072,1.8506,1.7156,1.6488,1.646,1.6131,1.5913,1.5967,1.5906,1.5716,1.519,1.5585,1.5222,1.447,1.528,1.5678,1.5685,1.5884,1.6083,1.6083,1.6083,1.6083,1.609,1.6164,1.6004,1.5409,1.4524,1.4019,1.3454,1.3428,1.3548,1.3602,1.3548,1.265,1.0927,1.1244,1.0283,0.8093,0.7818,0.7336,0.6845,0.639,0.6136,0.6266,0.6044,0.5823,0.5613,0.4885,0.4334,0.4149,0.3409,0.3234,0.344,0.3842,0.4273,0.4745,0.4591,0.4408,0.4391,0.3989,0.3604,0.3638,0.3655,0.3676,0.371,0.352,0.3321,0.3321,0.3335,0.3345,0.3347,0.3362,0.3375,0.3388,0.3392,0.3397,0.341,0.3411,0.3411,0.3411,0.3411,0.3423,0.3453,0.2585,0.1935,0.151,0.0,0.0,0.0,0.0,0.0,0.0,0.0,0.0,0.0,0.0,0.0,0.0,0.0,0.0,0.0,0.0,0.0,0.0,-0.1918,-0.3198,-0.3411,-0.3198,-0.298,1.8466,1.8875,1.9096,1.9505,1.9906,1.9245,1.8948,1.8831,1.7776,1.7271,1.7134,1.6529,1.6137,1.6137,1.6164,1.5964,1.5531,1.5931,1.5711,1.5081,1.5678,1.6103,1.6144,1.6137,1.6151,1.6171,1.6151,1.6144,1.6185,1.6239,1.587,1.5322,1.4747,1.4209,1.3498,1.3499,1.3607,1.3607,1.3607,1.2757,1.1271,1.162,1.0487,0.8116,0.8057,0.7581,0.6502,0.6455,0.6403,0.6541,0.6294,0.6259,0.6234,0.5268,0.4891,0.471,0.3934,0.3352,0.3755,0.4395,0.504,0.5683,0.5282,0.5094,0.5123,0.4692,0.4279,0.4308,0.4117,0.4135,0.4369,0.3964,0.355,0.355,0.3572,0.3586,0.338,0.3399,0.3411,0.3411,0.3411,0.3411,0.3411,0.3411,0.3411,0.3411,0.3422,0.3442,0.3463,0.2824,0.2178,0.1086,0.0434,0.0,0.0,0.0,0.0,0.0,0.0,0.0,0.0,0.0,0.0,0.0,0.0,0.0,0.0,0.0,0.0,0.0,-0.1492,-0.2985,-0.3411,-0.3411,-0.3411,1.8589,1.8805,1.9214,1.9855,2.0239,1.9474,1.96,1.9758,1.8602,1.8037,1.7687,1.6689,1.6286,1.6307,1.6408,1.6388,1.6078,1.6286,1.6212,1.5897,1.6083,1.6157,1.6488,1.6286,1.6354,1.6442,1.6347,1.6347,1.6435,1.6239,1.5577,1.4905,1.4959,1.4464,1.3631,1.3537,1.3607,1.3607,1.3607,1.2968,1.1911,1.1478,1.058,0.9236,0.8176,0.7307,0.6624,0.6616,0.6586,0.6738,0.6518,0.6466,0.6376,0.5804,0.5587,0.5312,0.4553,0.3791,0.3424,0.4299,0.5164,0.5381,0.5584,0.5792,0.5802,0.559,0.5384,0.498,0.4595,0.4403,0.4832,0.4439,0.4243,0.4029,0.4248,0.4044,0.3618,0.341,0.3411,0.3411,0.3411,0.3411,0.3411,0.3411,0.3411,0.3412,0.345,0.3479,0.3272,0.3091,0.311,0.2651,0.1538,0.0,0.0,0.0,0.0,0.0,0.0,0.0,0.0,0.0,0.0,0.0,0.0,0.0,0.0,0.0,0.0,0.0,-0.1279,-0.2132,-0.2985,-0.3411,-0.3411,1.9276,1.9694,1.9493,1.9903,2.0312,2.0031,1.9943,2.0052,1.9158,1.8822,1.848,1.7749,1.7038,1.6185,1.6239,1.6225,1.6185,1.6266,1.6273,1.6212,1.6218,1.63,1.6422,1.6347,1.6381,1.651,1.6463,1.6463,1.6503,1.6075,1.5686,1.4941,1.4916,1.4336,1.3439,1.3542,1.364,1.3705,1.364,1.2999,1.1769,1.1515,1.0623,0.89,0.847,0.7613,0.6744,0.6741,0.6717,0.687,0.6657,0.6619,0.6531,0.6142,0.5726,0.5685,0.5293,0.47,0.3898,0.5166,0.6016,0.6226,0.6224,0.6236,0.5854,0.6066,0.6285,0.6105,0.5474,0.527,0.5508,0.5105,0.4687,0.4474,0.4261,0.4048,0.3411,0.3411,0.3411,0.3411,0.3411,0.3411,0.3411,0.3411,0.3411,0.3415,0.345,0.326,0.2611,0.2425,0.2889,0.3109,0.2663,0.1542,0.0,0.0,0.0,0.0,0.0,0.0,0.0,0.0,0.0,0.0,0.0,0.0,0.0,0.0,-0.0213,-0.1066,-0.1492,-0.2131,-0.3198,-0.3411,-0.3411,1.9903,2.0111,1.9911,1.9903,2.032,2.032,2.0255,2.015,1.9712,1.9403,1.9057,1.8762,1.7982,1.6848,1.6689,1.6508,1.6481,1.6381,1.6408,1.6158,1.6327,1.6611,1.6967,1.6646,1.6666,1.6817,1.6605,1.6564,1.6551,1.6099,1.5749,1.5118,1.4814,1.4195,1.3493,1.3591,1.37,1.377,1.3722,1.2884,1.1653,1.1821,1.0904,0.8954,0.8542,0.8119,0.7263,0.707,0.6839,0.6779,0.6777,0.6741,0.6668,0.6246,0.5826,0.5607,0.5823,0.5415,0.458,0.5634,0.6478,0.669,0.6687,0.6494,0.6321,0.6542,0.6771,0.6804,0.6356,0.6142,0.6172,0.5754,0.5115,0.4902,0.4687,0.4261,0.3837,0.3624,0.3411,0.3411,0.3411,0.3411,0.3411,0.3412,0.3414,0.3427,0.3452,0.2824,0.1525,0.1323,0.1781,0.3116,0.358,0.2445,0.0,0.0,0.0,0.0,0.0,0.0,0.0,0.0,0.0,0.0,0.0,0.0,0.0,0.0,-0.0639,-0.2345,-0.2772,-0.2345,-0.3198,-0.3411,-0.3411,2.032,2.032,2.032,2.0328,2.032,2.0328,2.032,2.0296,2.0304,1.9783,1.9434,1.9228,1.8922,1.8157,1.7797,1.7668,1.7533,1.69,1.6632,1.6503,1.6786,1.7487,1.7967,1.7624,1.749,1.7517,1.7003,1.6673,1.6564,1.6184,1.5844,1.5112,1.4814,1.4241,1.3813,1.37,1.3776,1.3803,1.3863,1.3501,1.2428,1.2211,1.1245,0.9405,0.88,0.8405,0.7981,0.7391,0.6959,0.6902,0.6897,0.6845,0.6739,0.6722,0.6071,0.541,0.565,0.5675,0.505,0.5503,0.6165,0.6592,0.6796,0.6807,0.6592,0.6592,0.6809,0.6818,0.66,0.66,0.6605,0.6182,0.5969,0.5756,0.5328,0.4902,0.4261,0.3624,0.3411,0.3411,0.3411,0.3411,0.3411,0.3411,0.3426,0.3234,0.3262,0.263,0.0,0.0,0.1119,0.2464,0.3136,0.0,0.0,0.0,0.0,0.0,0.0,0.0,0.0,0.0,0.0,0.0,0.0,0.0,0.0,0.0,0.0,-0.2132,-0.3198,-0.3198,-0.3411,-0.3411,-0.3411,2.032,2.0336,2.045,2.0434,2.0336,2.045,2.0434,2.0328,2.032,2.0079,2.0023,2.0015,1.9775,1.9513,1.9014,1.8299,1.7455,1.732,1.6913,1.6639,1.7214,1.8144,1.896,1.7989,1.7597,1.7775,1.7126,1.687,1.6621,1.6086,1.5475,1.5024,1.4423,1.3813,1.3824,1.4292,1.4602,1.4095,1.4293,1.348,1.2083,1.204,1.132,0.9528,0.8901,0.8482,0.8261,0.7422,0.6989,0.6967,0.6967,0.6929,0.685,0.6807,0.6354,0.5705,0.614,0.615,0.5305,0.5955,0.6605,0.6818,0.6818,0.6818,0.6818,0.6608,0.6395,0.6605,0.6392,0.6395,0.6605,0.6605,0.6395,0.5969,0.5756,0.5115,0.4474,0.3837,0.3411,0.3411,0.3411,0.3411,0.3416,0.3429,0.3013,0.2594,0.2844,0.2207,0.0,0.0,0.0,0.0,0.1342,0.1116,0.0,0.0,0.0,0.0,0.0,0.0,0.0,0.0,0.0,0.0,0.0,0.0,0.0,0.0,0.0,-0.1918,-0.2772,-0.3411,-0.3411,-0.3411,-0.3411,2.0491,2.0515,2.0629,2.0604,2.0515,2.0629,2.0572,2.0418,2.0409,2.0377,2.0328,2.032,2.032,2.032,1.9903,1.9168,1.8137,1.7811,1.7224,1.6781,1.759,1.8707,1.9462,1.8692,1.8069,1.7999,1.7398,1.6998,1.7046,1.6202,1.5586,1.5417,1.4136,1.3711,1.4147,1.4792,1.4903,1.44,1.4582,1.3993,1.2617,1.2363,1.1668,1.0567,0.9693,0.8801,0.8339,0.7483,0.7046,0.7033,0.703,0.6992,0.6916,0.6869,0.6626,0.6184,0.6392,0.6392,0.5541,0.6179,0.6818,0.6818,0.6392,0.6392,0.6395,0.5967,0.5967,0.6179,0.6182,0.6182,0.6395,0.6605,0.6605,0.6182,0.5756,0.5328,0.4474,0.3837,0.3411,0.3411,0.3411,0.3415,0.3426,0.3445,0.2815,0.174,0.2203,0.1552,0.0,0.0,0.0,0.0,0.0,0.0,0.0,0.0,0.0,0.0,0.0,0.0,0.0,0.0,0.0,0.0,0.0,0.0,0.0,0.0,0.0,0.0,-0.2558,-0.3411,-0.3411,-0.3411,-0.3411,2.084,2.0832,2.0856,2.084,2.0807,2.0824,2.0751,2.0612,2.0572,2.0466,2.0361,2.0328,2.032,2.032,2.032,1.9895,1.9261,1.8417,1.7566,1.7119,1.7855,1.893,2.0136,1.9337,1.8722,1.8454,1.7405,1.7066,1.7188,1.6563,1.6194,1.565,1.4332,1.4106,1.4816,1.5224,1.5301,1.4966,1.4983,1.4618,1.4081,1.296,1.2284,1.2066,1.0508,0.9361,0.8859,0.7804,0.7139,0.7098,0.709,0.7033,0.6943,0.6908,0.6666,0.6197,0.661,0.6179,0.5541,0.6179,0.6818,0.6605,0.5967,0.5756,0.5969,0.5754,0.5328,0.5541,0.5756,0.5969,0.6182,0.6608,0.6608,0.5969,0.5756,0.5115,0.448,0.3839,0.3412,0.3412,0.3414,0.3426,0.3446,0.3464,0.2832,0.1983,0.0886,0.0,0.0,0.0,0.0,0.0,0.0,0.0,0.0,0.0,0.0,0.0,0.0,0.0,0.0,0.0,0.0,0.0,0.0,0.0,0.0,0.0,0.0,-0.1705,-0.2558,-0.3411,-0.3411,-0.3411,-0.3411,2.0848,2.0872,2.0994,2.097,2.0856,2.0848,2.0815,2.0742,2.0523,2.0442,2.0474,2.0377,2.032,2.032,2.032,2.0184,1.9649,1.8701,1.7789,1.7349,1.8157,1.923,1.9911,1.9655,1.9082,1.8164,1.7551,1.7202,1.711,1.67,1.6518,1.6112,1.481,1.4372,1.5488,1.6353,1.6423,1.5225,1.545,1.5075,1.3864,1.298,1.2312,1.1643,1.0081,0.9177,0.9386,0.8287,0.7613,0.7147,0.715,0.7115,0.7036,0.6954,0.6902,0.6666,0.6626,0.6818,0.6392,0.6605,0.682,0.6818,0.6392,0.6392,0.6392,0.5969,0.5758,0.5756,0.5969,0.5969,0.6182,0.6397,0.661,0.5969,0.4902,0.4272,0.429,0.3871,0.3433,0.3418,0.343,0.3446,0.3463,0.3486,0.3082,0.1993,0.0,0.0,0.0,0.0,0.0,0.0,0.0,0.0,0.0,0.0,0.0,0.0,0.0,0.0,0.0,0.0,0.0,0.0,0.0,0.0,0.0,0.0,0.0,-0.1918,-0.2985,-0.3411,-0.3411,-0.3411,-0.3411,2.0994,2.1059,2.1108,2.11,2.1051,2.1051,2.101,2.0929,2.0718,2.0645,2.0661,2.0572,2.0515,2.0515,2.0515,2.0369,2.0032,1.9296,1.8354,1.7853,1.8222,1.9315,2.0248,1.9672,1.888,1.8117,1.749,1.7358,1.75,1.7074,1.6877,1.648,1.5821,1.5615,1.6275,1.7331,1.7153,1.5729,1.5699,1.5295,1.3849,1.298,1.2312,1.1643,1.0308,0.9415,0.9418,0.8523,0.7849,0.7398,0.7175,0.7147,0.709,0.7017,0.6957,0.6908,0.6875,0.6845,0.6823,0.6839,0.6839,0.6828,0.6858,0.6658,0.643,0.5998,0.5784,0.5784,0.5981,0.5978,0.5779,0.6407,0.6407,0.5353,0.427,0.3633,0.3866,0.3666,0.345,0.344,0.3456,0.3475,0.3498,0.3516,0.3109,0.2447,0.0,0.0,0.0,0.0,0.0,0.0,0.0,0.0,0.0,0.0,0.0,0.0,0.0,0.0,0.0,0.0,0.0,0.0,0.0,0.0,0.0,0.0,-0.0426,-0.1918,-0.3411,-0.3411,-0.3411,-0.3411,-0.3411,2.1238,2.1352,2.1213,2.1238,2.1343,2.1335,2.1246,2.1148,2.1075,2.0978,2.088,2.0824,2.0815,2.0832,2.0791,2.0815,2.065,1.9754,1.9044,1.8697,1.8798,1.9422,2.0213,1.9463,1.8889,1.8288,1.7648,1.7514,1.765,1.7656,1.7512,1.7157,1.7372,1.7632,1.7144,1.7724,1.7292,1.6262,1.5979,1.5342,1.432,1.3222,1.2544,1.2316,1.0751,0.9638,0.8967,0.8296,0.7625,0.7175,0.7175,0.7153,0.7106,0.7093,0.7027,0.694,0.6918,0.6888,0.6858,0.6886,0.6894,0.6861,0.6927,0.6758,0.6273,0.605,0.5618,0.54,0.5795,0.5781,0.5594,0.6,0.5779,0.4517,0.3857,0.3419,0.3415,0.3441,0.3454,0.3457,0.348,0.3512,0.3531,0.3542,0.3565,0.3131,0.0,0.0,0.0,0.0,0.0,0.0,0.0,0.0,0.0,0.0,0.0,0.0,0.0,0.0,0.0,0.0,0.0,0.0,0.0,0.0,-0.1937,-0.1283,-0.1279,-0.2558,-0.3411,-0.3411,-0.3411,-0.3411,-0.3411,2.1343,2.1376,2.1335,2.1343,2.136,2.1254,2.1254,2.127,2.1035,2.1002,2.101,2.0905,2.0872,2.0856,2.0864,2.0921,2.0787,2.0069,1.9639,1.9438,1.9517,1.9463,1.9509,1.9348,1.8784,1.8437,1.7806,1.7663,1.7799,1.7792,1.7819,1.7639,1.786,1.7867,1.7632,1.7819,1.7164,1.6323,1.6169,1.5477,1.4341,1.3293,1.2611,1.2316,1.0755,0.9415,0.8517,0.7846,0.7398,0.7175,0.7175,0.7169,0.7147,0.7115,0.7076,0.7038,0.6997,0.697,0.6957,0.6745,0.6965,0.6957,0.6984,0.6992,0.6761,0.654,0.6105,0.566,0.5625,0.5601,0.4959,0.5148,0.4918,0.3851,0.3433,0.3431,0.3425,0.3456,0.3476,0.3441,0.349,0.352,0.3525,0.355,0.3577,0.3136,0.0,0.0,0.0,0.0,0.0,0.0,0.0,0.0,0.0,0.0,0.0,0.0,0.0,0.0,0.0,0.0,0.0,0.0,0.0,0.0,-0.2576,-0.2773,-0.3199,-0.3411,-0.3411,-0.3411,-0.3411,-0.3411,-0.3411,2.1319,2.1376,2.1303,2.1319,2.1368,2.1278,2.1295,2.1335,2.1181,2.1132,2.1189,2.1132,2.1075,2.1075,2.1083,2.1132,2.1205,2.0473,2.0016,1.9799,1.9939,1.99,1.97,1.9521,1.8966,1.8601,1.7957,1.7785,1.7846,1.786,1.786,1.786,1.786,1.786,1.786,1.7867,1.7236,1.6404,1.6261,1.56,1.4477,1.3358,1.2696,1.2204,1.0837,0.9461,0.8337,0.7888,0.7426,0.7183,0.7175,0.7175,0.7172,0.7147,0.7115,0.7093,0.7055,0.7027,0.7008,0.7019,0.7025,0.7017,0.7036,0.7055,0.7044,0.7038,0.6599,0.5933,0.5889,0.5441,0.4575,0.4549,0.4091,0.3651,0.3435,0.3433,0.3414,0.3453,0.3464,0.3457,0.3483,0.3304,0.2847,0.3324,0.3566,0.335,0.201,0.0,0.0,0.0,0.0,0.0,0.0,0.0,0.0,0.0,0.0,0.0,0.0,0.0,0.0,0.0,0.0,0.0,0.0,-0.151,-0.2574,-0.3203,-0.3412,-0.3411,-0.3411,-0.3411,-0.3411,-0.3411,-0.3411,2.1246,2.1376,2.1213,2.1238,2.1376,2.1376,2.1368,2.1384,2.136,2.136,2.136,2.1376,2.1327,2.1384,2.1311,2.1368,2.1368,2.0678,2.0404,2.0131,2.0085,2.0085,2.0085,1.974,1.9141,1.8729,1.8081,1.786,1.786,1.786,1.786,1.786,1.786,1.788,1.7907,1.7907,1.7308,1.6752,1.6364,1.5949,1.4845,1.3463,1.2782,1.2569,1.0935,0.9763,0.8847,0.8162,0.7686,0.7175,0.7175,0.7175,0.7175,0.7175,0.7153,0.7117,0.7101,0.7076,0.7041,0.7076,0.7082,0.7057,0.712,0.7153,0.7112,0.7098,0.6877,0.5988,0.594,0.5266,0.4389,0.3725,0.3701,0.3459,0.3435,0.3426,0.3426,0.3446,0.3461,0.346,0.3486,0.2847,0.2413,0.2644,0.3551,0.3577,0.2459,0.1565,0.0,0.0,0.0,0.0,0.0,0.0,0.0,0.0,0.0,0.0,0.0,0.0,0.0,0.0,0.0,0.0,0.0,-0.1943,-0.2364,-0.2784,-0.3202,-0.3411,-0.3411,-0.3411,-0.3411,-0.3411,-0.3411,2.1352,2.1376,2.1343,2.1352,2.1384,2.1384,2.1384,2.1384,2.1384,2.1384,2.1384,2.1384,2.1384,2.1384,2.1384,2.1384,2.1384,2.0725,2.0262,1.9815,2.0035,2.0247,2.0239,1.9838,1.9412,1.8757,1.8088,1.786,1.786,1.7874,1.7867,1.7874,1.7907,1.7928,1.803,1.805,1.7893,1.7129,1.6776,1.6098,1.5168,1.3822,1.2896,1.2644,1.0784,1.0056,1.0004,0.8397,0.7457,0.7191,0.7175,0.7175,0.7175,0.7175,0.7166,0.7155,0.7153,0.7147,0.7139,0.7139,0.7153,0.7136,0.715,0.7169,0.7161,0.7153,0.6706,0.5807,0.5549,0.4843,0.3937,0.3717,0.349,0.3474,0.3472,0.3479,0.3483,0.3487,0.348,0.3474,0.3501,0.2646,0.0876,0.2203,0.3105,0.3351,0.2909,0.2237,0.0,0.0,0.0,0.0,0.0,0.0,0.0,0.0,0.0,0.0,0.0,0.0,0.0,0.0,0.0,0.0,0.0,-0.2376,-0.2575,-0.2783,-0.3411,-0.3411,-0.3411,-0.3411,-0.3411,-0.3411,-0.3403,2.1384,2.1384,2.1384,2.1384,2.1384,2.1384,2.1384,2.1384,2.1384,2.1384,2.1384,2.1384,2.1384,2.1384,2.1384,2.1384,2.1164,2.0505,1.9853,1.9412,1.964,2.0081,2.0301,2.0073,1.9632,1.9192,1.853,1.8309,1.788,1.7935,1.7982,1.7982,1.803,1.8124,1.8186,1.8431,1.8061,1.7485,1.6881,1.6452,1.5549,1.3914,1.253,1.2263,1.1118,1.0649,1.012,0.892,0.7729,0.7226,0.7191,0.7175,0.7175,0.7175,0.7175,0.7175,0.7175,0.7175,0.7175,0.7175,0.7175,0.7175,0.7175,0.7175,0.7175,0.6951,0.6279,0.5603,0.5135,0.4439,0.3743,0.3514,0.3512,0.3504,0.3499,0.3508,0.3517,0.351,0.3491,0.3475,0.3495,0.2181,0.1527,0.2193,0.2863,0.3318,0.2447,0.0,0.0,0.0,0.0,0.0,0.0,0.0,0.0,0.0,0.0,0.0,0.0,0.0,0.0,0.0,0.0,-0.131,-0.2168,-0.258,-0.2778,-0.3199,-0.3411,-0.3411,-0.3411,-0.3411,-0.3407,-0.34,-0.3389,2.1384,2.1384,2.1384,2.1384,2.1384,2.1384,2.1384,2.1384,2.1384,2.1384,2.1384,2.1384,2.1384,2.1384,2.1384,2.1384,2.0945,2.0285,1.9632,1.9199,1.9632,1.986,2.0081,2.0293,2.0285,1.9632,1.9014,1.8579,1.8177,1.8036,1.8097,1.8118,1.8007,1.8068,1.8335,1.8589,1.843,1.7869,1.7204,1.6549,1.5913,1.4233,1.2576,1.1428,1.1225,1.0988,1.021,0.9216,0.846,0.7494,0.7432,0.7404,0.7398,0.7175,0.7175,0.7175,0.7175,0.7175,0.7175,0.7175,0.7175,0.7175,0.7175,0.7175,0.7175,0.6727,0.6055,0.5383,0.4927,0.4252,0.3581,0.3564,0.3549,0.354,0.3523,0.3529,0.3539,0.3528,0.351,0.3487,0.3277,0.2399,0.152,0.1522,0.24,0.2847,0.2204,0.0,0.0,0.0,0.0,0.0,0.0,0.0,0.0,0.0,0.0,0.0,0.0,0.0,0.0,0.0,0.0,0.0,-0.2376,-0.2786,-0.2987,-0.3199,-0.3411,-0.3411,-0.341,-0.3408,-0.3399,-0.3386,-0.3374,2.1384,2.1384,2.1384,2.1384,2.1384,2.1384,2.1384,2.1384,2.1384,2.1384,2.1384,2.1384,2.1384,2.1384,2.1384,2.1164,2.0725,2.0293,1.9632,1.9199,1.9632,2.0073,2.0103,2.0764,2.0536,1.967,1.9086,1.8719,1.8294,1.8192,1.8213,1.8158,1.8267,1.8389,1.8477,1.8733,1.8802,1.8443,1.7537,1.6866,1.618,1.4305,1.2654,1.1491,1.1278,1.1016,1.0944,0.9927,0.9155,0.863,0.8109,0.8082,0.7849,0.7398,0.7175,0.7175,0.7175,0.7175,0.7175,0.7175,0.7175,0.7175,0.7175,0.7175,0.7175,0.6505,0.5831,0.5159,0.4483,0.3805,0.3555,0.3568,0.3566,0.3558,0.3558,0.3569,0.3574,0.3568,0.3554,0.3529,0.3296,0.3059,0.2174,0.1734,0.2611,0.2838,0.1973,0.1097,0.0,0.0,0.0,0.0,0.0,0.0,0.0,0.0,0.0,0.0,0.0,0.0,0.0,0.0,0.0,0.0,0.0,-0.2993,-0.3199,-0.3411,-0.3411,-0.3411,-0.3408,-0.3404,-0.3389,-0.3374,-0.3362,2.1384,2.1384,2.1384,2.1384,2.1384,2.1384,2.1384,2.1384,2.1384,2.1384,2.1384,2.1384,2.1384,2.1384,2.1384,2.1164,2.0505,1.9853,1.964,1.9419,1.9853,2.0355,2.0416,2.1309,2.0708,2.0101,1.9744,1.9049,1.8118,1.824,1.8308,1.8375,1.847,1.8586,1.8633,1.866,1.8687,1.8523,1.7826,1.7129,1.6663,1.4565,1.2695,1.1524,1.0821,1.0802,1.0992,0.9704,0.9407,0.9583,0.8807,0.8312,0.7849,0.7625,0.7175,0.7175,0.7175,0.7175,0.7175,0.7175,0.7175,0.7175,0.7175,0.7175,0.6951,0.6279,0.5383,0.471,0.4262,0.3584,0.3572,0.3581,0.358,0.3572,0.3569,0.3574,0.3581,0.3576,0.3568,0.3564,0.3558,0.3087,0.2826,0.2604,0.326,0.2831,0.1747,0.0871,0.0217,0.0,0.0,0.0,0.0,0.0,0.0,0.0,0.0,0.0,0.0,0.0,0.0,0.0,0.0,0.0,0.0,0.0,-0.3198,-0.3411,-0.3411,-0.3411,-0.341,-0.3403,-0.338,-0.3362,-0.3351,2.1384,2.1384,2.1384,2.1384,2.1384,2.1384,2.1384,2.1384,2.1384,2.1384,2.1384,2.1384,2.1384,2.1384,2.1384,2.1164,2.0505,1.9632,1.964,1.9868,1.986,2.0164,2.0922,2.1231,2.0786,1.9677,2.0072,1.9374,1.8431,1.8308,1.8423,1.8511,1.8674,1.8762,1.8749,1.8735,1.8762,1.8523,1.8059,1.7361,1.5965,1.4331,1.2695,1.1524,1.0583,1.0583,1.0564,0.9956,0.9887,1.006,0.9515,0.8523,0.8296,0.7625,0.7398,0.7175,0.7175,0.7175,0.7175,0.7175,0.7175,0.7175,0.7175,0.7175,0.6727,0.5831,0.471,0.3814,0.3589,0.3589,0.3585,0.3589,0.3589,0.3583,0.3565,0.3554,0.3572,0.3574,0.3569,0.3572,0.3585,0.3338,0.3072,0.3034,0.3469,0.3469,0.239,0.1304,0.0,0.0,0.0,0.0,0.0,0.0,0.0,0.0,0.0,0.0,0.0,0.0,0.0,0.0,0.0,0.0,0.0,-0.2132,-0.2772,-0.3411,-0.3411,-0.3411,-0.3411,-0.3395,-0.3362,-0.3348,-0.3343,2.1384,2.1384,2.1384,2.1384,2.1384,2.1384,2.1384,2.1384,2.1384,2.1384,2.1384,2.1384,2.1384,2.1384,2.1384,2.1384,2.0945,2.0293,2.0081,2.0308,1.986,1.9441,1.9714,2.0501,2.0279,1.9432,1.9803,1.9425,1.8541,1.843,1.8511,1.8572,1.8687,1.8762,1.8762,1.8762,1.8762,1.8762,1.8059,1.6657,1.4798,1.363,1.2461,1.152,1.1051,1.0583,1.033,1.0202,1.0582,1.0551,1.0181,0.9425,0.8967,0.8296,0.7625,0.7398,0.7175,0.7175,0.7175,0.7175,0.7175,0.7175,0.7175,0.6951,0.6279,0.5385,0.4488,0.3814,0.3589,0.3589,0.3589,0.3589,0.3589,0.358,0.3564,0.3565,0.3577,0.3565,0.3561,0.3576,0.3588,0.3576,0.332,0.3497,0.346,0.346,0.3029,0.1734,0.0,0.0,0.0,0.0,0.0,0.0,0.0,0.0,0.0,0.0,0.0,0.0,0.0,0.0,0.0,0.0,-0.1279,-0.2131,-0.2985,-0.3411,-0.3411,-0.3411,-0.3411,-0.3378,-0.3336,-0.333,-0.3333,2.1384,2.1384,2.1384,2.1384,2.1384,2.1384,2.1384,2.1384,2.1384,2.1384,2.1384,2.1384,2.1384,2.1384,2.1164,2.1164,2.0945,2.0065,2.0081,2.0308,1.9647,1.9014,1.9315,2.0064,2.0071,1.949,1.9592,1.9504,1.8886,1.8498,1.8565,1.866,1.8721,1.8762,1.8762,1.8762,1.8762,1.853,1.7826,1.6425,1.4793,1.3626,1.2695,1.129,1.1051,1.0583,1.0552,1.0243,1.061,1.0567,1.0211,0.9686,0.8981,0.8523,0.7849,0.7175,0.7175,0.7175,0.7175,0.7175,0.7175,0.7175,0.6951,0.6279,0.5385,0.4936,0.4264,0.3589,0.3589,0.3589,0.3589,0.3589,0.3589,0.3581,0.3562,0.357,0.3574,0.3558,0.3554,0.3573,0.3588,0.3577,0.3566,0.3536,0.3499,0.3487,0.306,0.1974,0.1101,0.0,0.0,0.0,0.0,0.0,0.0,0.0,0.0,0.0,0.0,0.0,0.0,0.0,0.0,-0.1066,-0.1918,-0.2558,-0.3198,-0.3411,-0.3411,-0.3411,-0.3411,-0.3374,-0.3129,-0.3321,-0.3314,2.1384,2.1384,2.1384,2.1384,2.1384,2.1384,2.1384,2.1384,2.1384,2.1384,2.1384,2.1384,2.1384,2.1384,2.0945,2.0945,2.1164,1.9632,1.986,2.0088,1.9434,1.8579,1.8886,1.9633,1.9758,1.8945,1.954,1.9377,1.874,1.8586,1.8667,1.8762,1.8749,1.8762,1.8762,1.8762,1.8762,1.8291,1.7361,1.5965,1.4793,1.3392,1.2461,1.1524,1.1051,1.0821,1.1043,1.0968,1.0653,1.0836,1.052,0.9981,0.9247,0.8559,0.8091,0.741,0.7175,0.7175,0.7175,0.7175,0.7175,0.6727,0.6279,0.5385,0.4712,0.4488,0.4264,0.3589,0.3589,0.3589,0.3589,0.3589,0.3589,0.358,0.3564,0.3573,0.3577,0.3561,0.3558,0.3577,0.3589,0.3589,0.3579,0.3568,0.3546,0.3303,0.2868,0.1996,0.0,0.0,0.0,0.0,0.0,0.0,0.0,0.0,0.0,0.0,0.0,0.0,0.0,0.0,0.0,-0.1492,-0.2345,-0.2772,-0.3411,-0.3411,-0.3411,-0.3411,-0.3405,-0.3165,-0.3136,-0.3116,-0.3295,2.1384,2.1384,2.1384,2.1384,2.1384,2.1384,2.1384,2.1384,2.1384,2.1384,2.1384,2.1384,2.1384,2.1384,2.1384,2.1384,2.1384,2.0073,1.9853,1.9412,1.853,1.8101,1.8413,1.8769,1.9128,1.8677,1.9348,1.9254,1.8823,1.8667,1.8728,1.8762,1.8762,1.8762,1.8762,1.8762,1.853,1.8059,1.6896,1.5498,1.4331,1.3163,1.1993,1.1524,1.1286,1.1286,1.1286,1.1216,1.1159,1.1135,1.0816,1.0273,0.9296,0.8817,0.8113,0.741,0.7175,0.7175,0.7175,0.7175,0.6951,0.6281,0.5385,0.4712,0.4264,0.4038,0.3589,0.3814,0.3814,0.3814,0.3589,0.3589,0.3589,0.3583,0.3573,0.3574,0.3576,0.3566,0.3565,0.3583,0.3589,0.3589,0.3589,0.3579,0.3572,0.355,0.3326,0.0,0.0,0.0,0.0,0.0,0.0,0.0,0.0,0.0,0.0,0.0,0.0,0.0,0.0,0.0,0.0,-0.1705,-0.2345,-0.2985,-0.3411,-0.3411,-0.3411,-0.3411,-0.34,-0.3166,-0.2917,-0.3088,-0.3269,2.1384,2.1384,2.1384,2.1384,2.1384,2.1384,2.1384,2.1384,2.1384,2.1384,2.1384,2.1384,2.1384,2.1384,2.1384,2.1384,2.1384,2.0505,2.0073,1.9412,1.875,1.8309,1.8392,1.8503,1.886,1.8493,1.8962,1.9367,1.8694,1.8735,1.8749,1.8762,1.8762,1.8762,1.8762,1.8762,1.853,1.8059,1.6896,1.5498,1.456,1.2929,1.1988,1.129,1.1286,1.1286,1.1282,1.1261,1.1216,1.1159,1.0852,1.0079,0.9317,0.8827,0.8109,0.7404,0.7175,0.7175,0.7175,0.7175,0.6727,0.5831,0.4936,0.4264,0.4039,0.4038,0.4039,0.4264,0.4039,0.4039,0.4264,0.3814,0.3589,0.3587,0.3584,0.3581,0.3577,0.357,0.357,0.3587,0.3589,0.3589,0.3589,0.3588,0.3583,0.3576,0.3354,0.0,0.0,0.0,0.0,0.0,0.0,0.0,0.0,0.0,0.0,0.0,0.0,0.0,0.0,0.0,0.0,0.0,-0.2558,-0.2772,-0.3198,-0.3198,-0.3198,-0.3411,-0.3403,-0.3175,-0.3126,-0.2863,-0.3249,2.1384,2.1384,2.1384,2.1384,2.1384,2.1384,2.1384,2.1384,2.1384,2.1384,2.1384,2.1384,2.1384,2.1384,2.1384,2.1433,2.1221,2.0772,2.0339,1.9905,1.9235,1.8544,1.8371,1.828,1.8691,1.8575,1.8747,1.8905,1.8742,1.8755,1.8762,1.8762,1.8762,1.8762,1.8762,1.8762,1.8762,1.8059,1.6657,1.5493,1.456,1.2924,1.1754,1.1286,1.1286,1.1286,1.1286,1.1278,1.1257,1.0964,1.0661,0.988,0.9117,0.8598,0.7873,0.7407,0.7175,0.7175,0.7175,0.6727,0.6279,0.5159,0.4488,0.4039,0.4038,0.4264,0.4488,0.4488,0.4488,0.4488,0.4488,0.3814,0.3589,0.3588,0.3588,0.3585,0.3587,0.3581,0.3584,0.3589,0.3589,0.3589,0.3589,0.3589,0.3588,0.3584,0.3585,0.3136,0.0,0.0,0.0,0.0,0.0,0.0,0.0,0.0,0.0,0.0,0.0,0.0,0.0,0.0,0.0,0.0,-0.1492,-0.2558,-0.2985,-0.3196,-0.3198,-0.3411,-0.3177,-0.2939,-0.3113,-0.3058,-0.3447,2.1384,2.1384,2.1384,2.1384,2.1384,2.1384,2.1384,2.1384,2.1384,2.1384,2.1384,2.1384,2.1384,2.1384,2.1384,2.1465,2.1555,2.1024,2.0812,2.07,1.9486,1.8544,1.8204,1.8131,1.8527,1.8382,1.8565,1.896,1.8762,1.8762,1.8762,1.8762,1.8762,1.8762,1.8762,1.8762,1.8523,1.7588,1.6192,1.5026,1.4093,1.2456,1.152,1.1286,1.1286,1.1286,1.1286,1.1286,1.1269,1.1229,1.0456,0.9683,0.9151,0.84,0.7897,0.718,0.7177,0.7175,0.7175,0.6055,0.5383,0.471,0.4264,0.4038,0.4264,0.4488,0.4712,0.4936,0.4712,0.4264,0.4038,0.3589,0.3589,0.3589,0.3589,0.3589,0.3589,0.3589,0.3589,0.3589,0.3589,0.3589,0.3589,0.3589,0.3591,0.3591,0.3592,0.3366,0.2691,0.0,0.0,0.0,0.0,0.0,0.0,0.0,0.0,0.0,0.0,0.0,0.0,0.0,0.0,0.0,-0.0852,-0.1917,-0.2769,-0.3195,-0.2968,-0.2527,-0.2509,-0.228,-0.2871,-0.3258,-0.3645,2.1384,2.1384,2.1384,2.1384,2.1384,2.1384,2.1384,2.1384,2.1384,2.1384,2.1384,2.1384,2.1384,2.1384,2.1408,2.1498,2.1603,2.1481,2.1285,2.1223,1.9951,1.885,1.8496,1.8199,1.8369,1.8491,1.8667,1.8762,1.8762,1.8762,1.8762,1.8762,1.8762,1.8762,1.8762,1.8762,1.8523,1.8059,1.6425,1.4793,1.4326,1.269,1.1286,1.1286,1.1286,1.1286,1.1286,1.1286,1.1265,1.098,1.0202,0.9658,0.9128,0.8375,0.7426,0.7177,0.7175,0.6727,0.6279,0.5383,0.5159,0.4486,0.4038,0.4038,0.4488,0.4935,0.5161,0.5385,0.5161,0.4935,0.4485,0.3814,0.3589,0.3589,0.3589,0.3589,0.3589,0.3589,0.3589,0.3589,0.3589,0.3587,0.3585,0.3581,0.358,0.3359,0.336,0.3366,0.3142,0.0,0.0,0.0,0.0,0.0,0.0,0.0,0.0,0.0,0.0,0.0,0.0,0.0,0.0,0.0,0.0,-0.149,-0.233,-0.2739,-0.2089,-0.1659,-0.2064,-0.2469,-0.2865,-0.3457,-0.3844,2.1384,2.1384,2.1384,2.1384,2.1384,2.1384,2.1384,2.1384,2.1384,2.1384,2.1384,2.1384,2.1384,2.14,2.1465,2.1579,2.1725,2.1357,2.1381,2.1295,1.9966,1.8871,1.8538,1.8253,1.8382,1.8538,1.8674,1.8762,1.8762,1.8762,1.8762,1.8762,1.8762,1.8762,1.8762,1.8762,1.8762,1.8059,1.6425,1.5026,1.4326,1.2924,1.1286,1.1286,1.1286,1.1286,1.1286,1.1274,1.1249,1.0696,1.015,0.9383,0.8853,0.8116,0.7404,0.7398,0.7175,0.6503,0.5831,0.5383,0.5159,0.4488,0.4039,0.4262,0.4712,0.5383,0.5833,0.6057,0.5607,0.5159,0.471,0.4038,0.3589,0.3589,0.3589,0.3589,0.3587,0.3587,0.3585,0.3585,0.3574,0.3574,0.3574,0.3573,0.3568,0.3349,0.2904,0.3134,0.3361,0.0,0.0,0.0,0.0,0.0,0.0,0.0,0.0,0.0,0.0,0.0,0.0,0.0,0.0,0.0,0.0,0.0,0.0,-0.2291,-0.1655,-0.185,-0.266,-0.2857,-0.3262,-0.3453,-0.3638,2.1384,2.1384,2.1384,2.1384,2.1384,2.1384,2.1384,2.1384,2.1384,2.1384,2.1384,2.1384,2.1384,2.1416,2.1555,2.1725,2.1607,2.1263,2.1119,2.091,1.9596,1.895,1.8349,1.826,1.8416,1.8552,1.8674,1.8762,1.8762,1.8762,1.8762,1.8762,1.8762,1.8762,1.8762,1.8762,1.8762,1.8059,1.6425,1.526,1.456,1.269,1.152,1.1286,1.1286,1.1286,1.1286,1.1282,1.1229,1.0924,1.038,0.9839,0.908,0.8559,0.7861,0.7398,0.7175,0.6503,0.5829,0.5607,0.5159,0.4712,0.4712,0.4936,0.5385,0.5833,0.6281,0.6057,0.5831,0.5161,0.4712,0.4039,0.3589,0.3589,0.3589,0.3587,0.3584,0.3581,0.3579,0.357,0.3553,0.3546,0.3544,0.3544,0.3544,0.3544,0.3326,0.3331,0.3111,0.0,0.0,0.0,0.0,0.0,0.0,0.0,0.0,0.0,0.0,0.0,0.0,0.0,0.0,0.0,0.0,0.0,0.0,-0.1651,-0.164,-0.2039,-0.3048,-0.3044,-0.3246,-0.3243,-0.3433,2.1384,2.1384,2.1384,2.1384,2.1384,2.1384,2.1384,2.1384,2.1384,2.1384,2.1384,2.1384,2.1384,2.1392,2.1449,2.1668,2.1534,2.1119,2.0694,2.0199,1.9439,1.8818,1.8445,1.8321,1.8477,1.8626,1.8735,1.8762,1.8762,1.8762,1.8762,1.8762,1.8762,1.8762,1.8762,1.8762,1.8762,1.8291,1.6425,1.5493,1.456,1.269,1.1754,1.1286,1.1286,1.1286,1.1286,1.1286,1.1225,1.086,1.0361,0.9828,0.9005,0.8533,0.7849,0.7398,0.7175,0.6727,0.6055,0.6055,0.5607,0.5159,0.5383,0.5833,0.6057,0.6281,0.6505,0.6503,0.5831,0.5383,0.471,0.4262,0.3814,0.3589,0.3587,0.3581,0.3576,0.3565,0.3561,0.3534,0.3516,0.3516,0.3514,0.3514,0.3514,0.3514,0.3517,0.3521,0.3086,0.1761,0.0,0.0,0.0,0.0,0.0,0.0,0.0,0.0,0.0,0.0,0.0,0.0,0.0,0.0,0.0,0.0,0.0,-0.0818,-0.1424,-0.2436,-0.3238,-0.3234,-0.323,-0.3231,-0.3635,2.1384,2.1384,2.1384,2.1384,2.1384,2.1384,2.1384,2.1384,2.1384,2.1384,2.1384,2.1384,2.1384,2.14,2.1473,2.162,2.179,2.1056,2.0609,2.0401,1.9483,1.8874,1.85,1.8389,1.8545,1.8687,1.8762,1.8762,1.8762,1.8762,1.8762,1.8762,1.8762,1.8762,1.8762,1.8762,1.8762,1.8059,1.689,1.5726,1.4326,1.3158,1.2227,1.129,1.1286,1.1286,1.1286,1.1286,1.1208,1.1102,1.0621,1.0083,0.9039,0.8318,0.7625,0.7175,0.7175,0.6727,0.6055,0.6057,0.5831,0.5607,0.5831,0.6281,0.6503,0.6727,0.6951,0.6951,0.6055,0.5383,0.4935,0.4486,0.4038,0.3589,0.3583,0.3576,0.3562,0.3549,0.3524,0.3494,0.3484,0.3484,0.3484,0.3484,0.3484,0.3484,0.3479,0.3475,0.3051,0.2186,0.1091,0.0,0.0,0.0,0.0,0.0,0.0,0.0,0.0,0.0,0.0,0.0,0.0,0.0,0.0,0.0,-0.0817,-0.1016,-0.1416,-0.2424,-0.3232,-0.3433,-0.3433,-0.3635,-0.4038,2.1384,2.1384,2.1384,2.1384,2.1384,2.1384,2.1384,2.1384,2.1384,2.1384,2.1384,2.1384,2.14,2.1457,2.1563,2.1676,2.1558,2.1095,2.0887,2.0601,1.9498,1.8902,1.8589,1.847,1.8593,1.8701,1.8762,1.8762,1.8762,1.8762,1.8762,1.8762,1.8762,1.8762,1.8762,1.8762,1.8762,1.853,1.7594,1.643,1.5026,1.3859,1.2695,1.152,1.1286,1.1286,1.1286,1.1274,1.1253,1.1192,1.0892,1.0353,0.9087,0.7879,0.7407,0.7175,0.7175,0.6951,0.6503,0.6505,0.6279,0.6279,0.6281,0.6729,0.6951,0.6951,0.7175,0.6951,0.6279,0.5607,0.5159,0.4486,0.4038,0.3809,0.3577,0.3561,0.3539,0.3517,0.3484,0.346,0.3453,0.3453,0.3453,0.3454,0.3454,0.3453,0.345,0.3441,0.3231,0.2598,0.1515,0.0432,0.0,0.0,0.0,0.0,0.0,0.0,0.0,0.0,0.0,0.0,0.0,0.0,0.0,0.0,-0.1623,-0.182,-0.202,-0.2625,-0.3231,-0.3433,-0.3635,-0.4038,-0.4643,2.1384,2.1384,2.1384,2.1384,2.1384,2.1384,2.1384,2.1384,2.1384,2.1384,2.1384,2.1392,2.1457,2.1555,2.162,2.1758,2.1719,2.1382,2.1284,2.0832,1.9891,1.8987,1.8685,1.8531,1.8626,1.8715,1.8762,1.8762,1.8762,1.8762,1.8762,1.8762,1.8762,1.8762,1.8762,1.8762,1.8762,1.8762,1.8298,1.6896,1.5026,1.3859,1.2695,1.1754,1.1286,1.1286,1.1286,1.1282,1.1233,1.1176,1.0629,0.9597,0.8331,0.7634,0.7177,0.7175,0.7175,0.6951,0.6951,0.6727,0.6727,0.6951,0.6951,0.6951,0.7175,0.7175,0.7175,0.6951,0.6503,0.6055,0.5379,0.4707,0.4032,0.3799,0.3568,0.3542,0.3516,0.348,0.3446,0.3435,0.3426,0.3425,0.3426,0.3425,0.3423,0.3423,0.3423,0.342,0.3422,0.3003,0.1932,0.0857,0.0214,0.0,0.0,0.0,0.0,0.0,0.0,0.0,0.0,0.0,0.0,0.0,0.0,-0.1827,-0.2429,-0.2629,-0.303,-0.3232,-0.3231,-0.3433,-0.424,-0.4643,-0.5448,2.0945,2.0945,2.1384,2.1384,2.1384,2.1384,2.1384,2.1384,2.1384,2.1384,2.1384,2.1392,2.1449,2.1571,2.162,2.1741,2.1944,2.1623,2.1462,2.1097,2.0471,1.9334,1.8948,1.8593,1.8674,1.8749,1.8762,1.8762,1.8749,1.8762,1.8762,1.8762,1.8762,1.8762,1.8762,1.8762,1.8762,1.8762,1.8762,1.7361,1.526,1.4326,1.2924,1.1988,1.1286,1.1286,1.1269,1.1261,1.1208,1.09,1.0124,0.939,0.8385,0.766,0.718,0.7175,0.7175,0.7175,0.7175,0.7175,0.7175,0.7175,0.7175,0.7175,0.7175,0.7175,0.7175,0.6951,0.6503,0.6055,0.58,0.5122,0.4437,0.4202,0.375,0.3513,0.3484,0.3452,0.3431,0.3422,0.3416,0.3416,0.3418,0.3418,0.3416,0.3416,0.3412,0.3412,0.3412,0.3411,0.2345,0.1279,0.0426,0.0,0.0,0.0,0.0,0.0,0.0,0.0,0.0,0.0,0.0,-0.1223,-0.2031,-0.2633,-0.3032,-0.3234,-0.3232,-0.3231,-0.3231,-0.3433,-0.424,-0.4843,-0.5647,2.0505,2.0725,2.1164,2.1384,2.1384,2.1384,2.1384,2.1384,2.1384,2.1384,2.1384,2.1384,2.1392,2.1481,2.1571,2.1644,2.1717,2.1798,2.1655,2.1276,2.0637,1.9576,1.9011,1.8674,1.8708,1.8728,1.8742,1.8721,1.8701,1.8735,1.8762,1.8762,1.8762,1.8762,1.8762,1.8762,1.8762,1.8762,1.8298,1.7123,1.5959,1.5026,1.3392,1.2222,1.1286,1.1286,1.1261,1.122,1.1171,1.0633,0.9861,0.8887,0.8171,0.7438,0.7415,0.7175,0.7175,0.7175,0.7175,0.7175,0.7175,0.7175,0.7175,0.7175,0.7175,0.7175,0.7175,0.6948,0.6503,0.626,0.6004,0.5534,0.5071,0.4384,0.3935,0.3483,0.3454,0.3429,0.342,0.3411,0.3411,0.3411,0.3411,0.3411,0.3411,0.3411,0.3411,0.3411,0.3411,0.3198,0.2772,0.1705,0.0639,0.0,0.0,0.0,0.0,0.0,0.0,0.0,0.0,0.0,0.0,-0.2434,-0.3234,-0.3234,-0.3234,-0.3232,-0.3232,-0.3231,-0.3231,-0.3433,-0.3836,-0.4641,-0.5843,2.0725,2.1164,2.1384,2.1384,2.1384,2.1384,2.1384,2.1384,2.1384,2.1384,2.1384,2.14,2.1449,2.1603,2.1636,2.1709,2.1839,2.1855,2.1904,2.1759,2.0713,1.9641,1.9025,1.8667,1.866,1.8667,1.8674,1.8681,1.866,1.8715,1.8762,1.8762,1.8762,1.8762,1.8762,1.8762,1.8762,1.853,1.7833,1.6663,1.5726,1.456,1.3387,1.2222,1.1286,1.1286,1.1265,1.1204,1.1171,1.0645,0.985,0.8624,0.7908,0.7429,0.7183,0.7175,0.7175,0.7177,0.7177,0.7175,0.7175,0.7175,0.7175,0.7175,0.7175,0.7175,0.7172,0.7164,0.6935,0.6688,0.6436,0.6198,0.5511,0.4589,0.3912,0.367,0.3427,0.342,0.3414,0.3411,0.3411,0.3411,0.3411,0.3411,0.3411,0.3411,0.3411,0.3411,0.3411,0.3198,0.3196,0.2129,0.1064,0.0,0.0,0.0,0.0,0.0,0.0,0.0,0.0,0.0,0.0,0.0,-0.3032,-0.3234,-0.3232,-0.3232,-0.3231,-0.3231,-0.3231,-0.3431,-0.3833,-0.4423,-0.5806]}]]